[[{"header":{"parameterUnit":"m.s-1","parameterCategory":1,"la1":30.6,"la2":28.766,"lo1":-90.7593,"lo2":-88.6598,"dy":0.0162,"dx":0.0183,"nx":116,"ny":114,"refTime":"2024-03-08T06:00:00:Z","depth":0,"parameterNumber":2,"parameterNumberName":"U-component_of_WINDS"},"data":[0.0,0.0,0.0,0.0,0.0,0.0,0.0,0.0,0.0,0.0,0.0,0.0,0.0,0.0,0.0,0.0,0.0,0.0,0.0,0.0,0.0,0.0,0.0,0.0,0.0,0.0,0.0,0.0,0.0,0.0,0.0,0.0,0.0,0.0,0.0,0.0,0.0,0.0,0.0,0.0,0.0,0.0,0.0,0.0,0.0,0.0,0.0,0.0,0.0,0.0,0.0,0.0,0.0,0.0,0.0,0.0,0.0,0.0,0.0,0.0,0.0,0.0,0.0,0.0,0.0,0.0,0.0,0.0,0.0,0.0,0.0,0.0,0.0,0.0,0.0,0.0,0.0,0.0,0.0,0.0,0.0,0.0,0.0,0.0,0.0,0.0,0.0,0.0,0.0,0.0,0.0,0.0,0.0,0.0,0.0,0.0,0.0,0.0,0.0,0.0,0.0,0.0,0.0,0.0,0.0,0.0,0.0,0.0,0.0,0.0,0.0,0.0,0.0,0.0,0.0,0.0,0.0,0.0,0.0,0.0,0.0,0.0,0.0,0.0,0.0,0.0,0.0,0.0,0.0,0.0,0.0,0.0,0.0,0.0,0.0,0.0,0.0,0.0,0.0,0.0,0.0,0.0,0.0,0.0,0.0,0.0,0.0,0.0,0.0,0.0,0.0,0.0,0.0,0.0,0.0,0.0,0.0,0.0,0.0,0.0,0.0,0.0,0.0,0.0,0.0,0.0,0.0,0.0,0.0,0.0,0.0,0.0,0.0,0.0,0.0,0.0,0.0,0.0,0.0,0.0,0.0,0.0,0.0,0.0,0.0,0.0,0.0,0.0,0.0,0.0,0.0,0.0,0.0,0.0,0.0,0.0,0.0,0.0,0.0,0.0,0.0,0.0,0.0,0.0,0.0,0.0,0.0,0.0,0.0,0.0,0.0,0.0,0.0,0.0,0.0,0.0,0.0,0.0,0.0,0.0,0.0,0.0,0.0,0.0,0.0,0.0,0.0,0.0,0.0,0.0,0.0,0.0,0.0,0.0,0.0,0.0,0.0,0.0,0.0,0.0,0.0,0.0,0.0,0.0,0.0,0.0,0.0,0.0,0.0,0.0,0.0,0.0,0.0,0.0,0.0,0.0,0.0,0.0,0.0,0.0,0.0,0.0,0.0,0.0,0.0,0.0,0.0,0.0,0.0,0.0,0.0,0.0,0.0,0.0,0.0,0.0,0.0,0.0,0.0,0.0,0.0,0.0,0.0,0.0,0.0,0.0,0.0,0.0,0.0,0.0,0.0,0.0,0.0,0.0,0.0,0.0,0.0,0.0,0.0,0.0,0.0,0.0,0.0,0.0,0.0,0.0,0.0,0.0,0.0,0.0,0.0,0.0,0.0,0.0,0.0,0.0,0.0,0.0,0.0,0.0,0.0,0.0,0.0,0.0,0.0,0.0,0.0,0.0,0.0,0.0,0.0,0.0,0.0,0.0,0.0,0.0,0.0,0.0,0.0,0.0,0.0,0.0,0.0,0.0,0.0,0.0,0.0,0.0,0.0,0.0,0.0,0.0,0.0,0.0,0.0,0.0,0.0,0.0,0.0,0.0,0.0,0.0,0.0,0.0,0.0,0.0,0.0,0.0,0.0,0.0,0.0,0.0,0.0,0.0,0.0,0.0,0.0,0.0,0.0,0.0,0.0,0.0,0.0,0.0,0.0,0.0,0.0,0.0,0.0,0.0,0.0,0.0,0.0,0.0,0.0,0.0,0.0,0.0,0.0,0.0,0.0,0.0,0.0,0.0,0.0,0.0,0.0,0.0,0.0,0.0,0.0,0.0,0.0,0.0,0.0,0.0,0.0,0.0,0.0,0.0,0.0,0.0,0.0,0.0,0.0,0.0,0.0,0.0,0.0,0.0,0.0,0.0,0.0,0.0,0.0,0.0,0.0,0.0,0.0,0.0,0.0,0.0,0.0,0.0,0.0,0.0,0.0,0.0,0.0,0.0,0.0,0.0,0.0,0.0,0.0,0.0,0.0,0.0,0.0,0.0,0.0,0.0,0.0,0.0,0.0,0.0,0.0,0.0,0.0,0.0,0.0,0.0,0.0,0.0,0.0,0.0,0.0,0.0,0.0,0.0,0.0,0.0,0.0,0.0,0.0,0.0,0.0,0.0,0.0,0.0,0.0,0.0,0.0,0.0,0.0,0.0,0.0,0.0,0.0,0.0,0.0,0.0,0.0,0.0,0.0,0.0,0.0,0.0,0.0,0.0,0.0,0.0,0.0,0.0,0.0,0.0,0.0,0.0,0.0,0.0,0.0,0.0,0.0,0.0,0.0,0.0,0.0,0.0,0.0,0.0,0.0,0.0,0.0,0.0,0.0,0.0,0.0,0.0,0.0,0.0,0.0,0.0,0.0,0.0,0.0,0.0,0.0,0.0,0.0,0.0,0.0,0.0,0.0,0.0,0.0,0.0,0.0,0.0,0.0,0.0,0.0,0.0,0.0,0.0,0.0,0.0,0.0,0.0,0.0,0.0,0.0,0.0,0.0,0.0,0.0,0.0,0.0,0.0,0.0,0.0,0.0,0.0,0.0,0.0,0.0,0.0,0.0,0.0,0.0,0.0,0.0,0.0,0.0,0.0,0.0,0.0,0.0,0.0,0.0,0.0,0.0,0.0,0.0,0.0,0.0,0.0,0.0,0.0,0.0,0.0,0.0,0.0,0.0,0.0,0.0,0.0,0.0,0.0,0.0,0.0,0.0,0.0,0.0,0.0,0.0,0.0,0.0,0.0,0.0,0.0,0.0,0.0,0.0,0.0,0.0,0.0,0.0,0.0,0.0,0.0,0.0,0.0,0.0,0.0,0.0,0.0,0.0,0.0,0.0,0.0,0.0,0.0,0.0,0.0,0.0,0.0,0.0,0.0,0.0,0.0,0.0,0.0,0.0,0.0,0.0,0.0,0.0,0.0,0.0,0.0,0.0,0.0,0.0,0.0,0.0,0.0,0.0,0.0,0.0,0.0,0.0,0.0,0.0,0.0,0.0,0.0,0.0,0.0,0.0,0.0,0.0,0.0,0.0,0.0,0.0,0.0,0.0,0.0,0.0,0.0,0.0,0.0,0.0,0.0,0.0,0.0,0.0,0.0,0.0,0.0,0.0,0.0,0.0,0.0,0.0,0.0,0.0,0.0,0.0,0.0,0.0,0.0,0.0,0.0,0.0,0.0,0.0,0.0,0.0,0.0,0.0,0.0,0.0,0.0,0.0,0.0,0.0,0.0,0.0,0.0,0.0,0.0,0.0,0.0,0.0,0.0,0.0,0.0,0.0,0.0,0.0,0.0,0.0,0.0,0.0,0.0,0.0,0.0,0.0,0.0,0.0,0.0,0.0,0.0,0.0,0.0,0.0,0.0,0.0,0.0,0.0,0.0,0.0,0.0,0.0,0.0,0.0,0.0,0.0,0.0,0.0,0.0,0.0,0.0,0.0,0.0,0.0,0.0,0.0,0.0,0.0,0.0,0.0,0.0,0.0,0.0,0.0,0.0,0.0,0.0,0.0,0.0,0.0,0.0,0.0,0.0,0.0,0.0,0.0,0.0,0.0,0.0,0.0,0.0,0.0,0.0,0.0,0.0,0.0,0.0,0.0,0.0,0.0,0.0,0.0,0.0,0.0,0.0,0.0,0.0,0.0,0.0,0.0,0.0,0.0,0.0,0.0,0.0,0.0,0.0,0.0,0.0,0.0,0.0,0.0,0.0,0.0,0.0,0.0,0.0,0.0,0.0,0.0,0.0,0.0,0.0,0.0,0.0,0.0,0.0,0.0,0.0,0.0,0.0,0.0,0.0,0.0,0.0,0.0,0.0,0.0,0.0,0.0,0.0,0.0,0.0,0.0,0.0,0.0,0.0,0.0,0.0,0.0,0.0,0.0,0.0,0.0,0.0,0.0,0.0,0.0,0.0,0.0,0.0,0.0,0.0,0.0,0.0,0.0,0.0,0.0,0.0,0.0,0.0,0.0,0.0,0.0,0.0,0.0,0.0,0.0,0.0,0.0,0.0,0.0,0.0,0.0,0.0,0.0,0.0,0.0,0.0,0.0,0.0,0.0,0.0,0.0,0.0,0.0,0.0,0.0,0.0,0.0,0.0,0.0,0.0,0.0,0.0,0.0,0.0,0.0,0.0,0.0,0.0,0.0,0.0,0.0,0.0,0.0,0.0,0.0,0.0,0.0,0.0,0.0,0.0,0.0,0.0,0.0,0.0,0.0,0.0,0.0,0.0,0.0,0.0,0.0,0.0,0.0,0.0,0.0,0.0,0.0,0.0,0.0,0.0,0.0,0.0,0.0,0.0,0.0,0.0,0.0,0.0,0.0,0.0,0.0,0.0,0.0,0.0,0.0,0.0,0.0,0.0,0.0,0.0,0.0,0.0,0.0,0.0,0.0,0.0,0.0,0.0,0.0,0.0,0.0,0.0,0.0,0.0,0.0,0.0,0.0,0.0,0.0,0.0,0.0,0.0,0.0,0.0,0.0,0.0,0.0,0.0,0.0,0.0,0.0,0.0,0.0,0.0,0.0,0.0,0.0,0.0,0.0,0.0,0.0,0.0,0.0,0.0,0.0,0.0,0.0,0.0,0.0,0.0,0.0,0.0,0.0,0.0,0.0,0.0,0.0,0.0,0.0,0.0,0.0,0.0,0.0,0.0,0.0,0.0,0.0,0.0,0.0,0.0,0.0,0.0,0.0,0.0,0.0,0.0,0.0,0.0,0.0,0.0,0.0,0.0,0.0,0.0,0.0,0.0,0.0,0.0,0.0,0.0,0.0,0.0,0.0,0.0,0.0,0.0,0.0,0.0,0.0,0.0,0.0,0.0,0.0,0.0,0.0,0.0,0.0,0.0,0.0,0.0,0.0,0.0,0.0,0.0,0.0,0.0,0.0,0.0,0.0,0.0,0.0,0.0,0.0,0.0,0.0,0.0,0.0,0.0,0.0,0.0,0.0,0.0,0.0,0.0,0.0,0.0,0.0,0.0,0.0,0.0,0.0,0.0,0.0,0.0,0.0,0.0,0.0,0.0,0.0,0.0,0.0,0.0,0.0,0.0,0.0,0.0,0.0,0.0,0.0,0.0,0.0,0.0,0.0,0.0,0.0,0.0,0.0,0.0,0.0,0.0,0.0,0.0,0.0,0.0,0.0,0.0,0.0,0.0,0.0,0.0,0.0,0.0,0.0,0.0,0.0,0.0,0.0,0.0,0.0,0.0,0.0,0.0,0.0,0.0,0.0,0.0,0.0,0.0,0.0,0.0,0.0,0.0,0.0,0.0,0.0,0.0,0.0,0.0,0.0,0.0,0.0,0.0,0.0,0.0,0.0,0.0,0.0,0.0,0.0,0.0,0.0,0.0,0.0,0.0,0.0,0.0,0.0,0.0,0.0,0.0,0.0,0.0,0.0,0.0,0.0,0.0,0.0,0.0,0.0,0.0,0.0,0.0,0.0,0.0,0.0,0.0,0.0,0.0,0.0,0.0,0.0,0.0,0.0,0.0,0.0,0.0,0.0,0.0,0.0,0.0,0.0,0.0,0.0,0.0,0.0,0.0,0.0,0.0,0.0,0.0,0.0,0.0,0.0,0.0,0.0,0.0,0.0,0.0,0.0,0.0,0.0,0.0,0.0,0.0,0.0,0.0,0.0,0.0,0.0,0.0,0.0,0.0,0.0,0.0,0.0,0.0,0.0,0.0,0.0,0.0,0.0,0.0,0.0,0.0,0.0,0.0,0.0,0.0,0.0,0.0,0.0,0.0,0.0,0.0,0.0,0.0,0.0,0.0,0.0,0.0,0.0,0.0,0.0,0.0,0.0,0.0,0.0,0.0,0.0,0.0,0.0,0.0,0.0,0.0,0.0,0.0,0.0,0.0,0.0,0.0,0.0,0.0,0.0,0.0,0.0,0.0,0.0,0.0,0.0,0.0,0.0,0.0,0.0,0.0,0.0,0.0,0.0,0.0,0.0,0.0,0.0,0.0,0.0,0.0,0.0,0.0,0.0,0.0,0.0,0.0,0.0,0.0,0.0,0.0,0.0,0.0,0.0,0.0,0.0,0.0,0.0,0.0,0.0,0.0,5.4426,0.0,0.0,0.0,0.0,0.0,0.0,0.0,0.0,0.0,0.0,0.0,0.0,0.0,0.0,0.0,0.0,0.0,0.0,0.0,0.0,0.0,0.0,0.0,0.0,0.0,0.0,0.0,0.0,0.0,0.0,0.0,0.0,0.0,0.0,0.0,0.0,0.0,5.1601,5.2031,5.2886,5.3969,5.5162,5.5999,0.0,0.0,0.0,0.0,0.0,0.0,0.0,0.0,0.0,0.0,0.0,0.0,0.0,0.0,0.0,0.0,0.0,0.0,0.0,0.0,0.0,0.0,0.0,0.0,0.0,0.0,0.0,0.0,0.0,0.0,0.0,0.0,0.0,0.0,0.0,0.0,0.0,0.0,0.0,0.0,0.0,0.0,0.0,0.0,0.0,0.0,0.0,0.0,0.0,0.0,0.0,0.0,0.0,0.0,0.0,0.0,0.0,0.0,0.0,0.0,0.0,0.0,0.0,0.0,0.0,0.0,0.0,0.0,0.0,0.0,0.0,0.0,0.0,5.667,0.0,0.0,0.0,0.0,0.0,0.0,0.0,0.0,0.0,0.0,0.0,0.0,0.0,0.0,0.0,0.0,0.0,0.0,0.0,0.0,0.0,0.0,0.0,4.4413,4.5738,4.6468,4.7325,4.8116,0.0,0.0,0.0,0.0,0.0,5.1016,5.1836,5.2578,5.3281,5.3983,5.5059,5.7035,5.9846,6.1764,0.0,0.0,0.0,0.0,0.0,0.0,0.0,0.0,0.0,0.0,0.0,0.0,0.0,0.0,0.0,0.0,0.0,0.0,0.0,0.0,0.0,0.0,0.0,0.0,0.0,0.0,0.0,0.0,0.0,0.0,0.0,0.0,0.0,0.0,0.0,0.0,0.0,0.0,0.0,0.0,0.0,0.0,0.0,0.0,0.0,0.0,0.0,0.0,0.0,0.0,0.0,0.0,0.0,0.0,0.0,0.0,0.0,0.0,0.0,0.0,0.0,0.0,0.0,0.0,0.0,0.0,6.8527,7.0423,7.164,7.338,7.427,7.4038,6.781,6.34,6.0538,0.0,0.0,0.0,0.0,0.0,0.0,0.0,0.0,0.0,0.0,0.0,0.0,0.0,0.0,0.0,0.0,0.0,0.0,0.0,0.0,0.0,0.0,4.6228,4.7293,4.7421,4.8163,4.8672,4.8828,0.0,5.0273,5.1055,5.1914,5.2773,5.3633,5.3789,5.3864,5.3994,5.9265,6.3872,6.7932,7.0431,7.129,7.0431,6.29,0.0,0.0,0.0,0.0,0.0,0.0,0.0,0.0,0.0,0.0,0.0,0.0,0.0,0.0,0.0,0.0,0.0,0.0,0.0,0.0,0.0,0.0,0.0,0.0,0.0,0.0,0.0,0.0,0.0,0.0,0.0,0.0,0.0,0.0,0.0,0.0,0.0,0.0,0.0,0.0,0.0,0.0,0.0,5.3481,5.2182,0.0,0.0,0.0,0.0,0.0,0.0,0.0,0.0,0.0,0.0,0.0,0.0,0.0,6.6552,6.9688,7.223,7.3966,7.4928,7.755,7.8441,7.7867,7.9661,8.0821,8.1426,8.1194,0.0,6.8274,6.5373,0.0,0.0,0.0,0.0,0.0,0.0,0.0,0.0,0.0,0.0,0.0,0.0,0.0,0.0,0.0,0.0,0.0,0.0,0.0,0.0,0.0,4.7846,4.9916,5.042,5.3896,5.4835,5.1904,5.3896,5.4013,5.1513,5.1784,5.2605,5.3971,5.401,5.6152,6.0514,6.559,7.023,7.448,7.6119,7.69,7.6705,7.2411,6.8474,6.4926,6.312,0.0,0.0,0.0,0.0,0.0,0.0,0.0,0.0,0.0,0.0,0.0,0.0,0.0,0.0,0.0,0.0,0.0,0.0,0.0,0.0,0.0,0.0,0.0,0.0,0.0,0.0,0.0,0.0,0.0,0.0,0.0,0.0,0.0,0.0,0.0,0.0,0.0,0.0,0.0,5.4525,5.6132,5.3923,5.5586,5.5509,0.0,0.0,0.0,0.0,0.0,0.0,0.0,0.0,0.0,6.8333,7.1785,7.4381,7.6067,7.9491,8.1929,8.3266,8.5758,8.7188,8.7735,8.8417,8.8892,8.924,8.9588,8.661,8.0923,7.4193,6.9048,6.5102,0.0,0.0,0.0,0.0,0.0,6.2008,0.0,0.0,0.0,0.0,0.0,0.0,0.0,0.0,0.0,0.0,0.0,0.0,4.6521,5.0467,5.3587,5.4892,5.9109,6.0163,5.6523,5.7469,5.661,5.3171,5.262,5.3127,5.4615,5.6177,6.051,6.7893,7.2612,7.7134,8.1382,8.2709,8.3295,8.3295,8.2631,7.7564,6.945,6.8072,6.4799,0.0,0.0,0.0,0.0,0.0,0.0,0.0,0.0,0.0,0.0,0.0,0.0,0.0,0.0,0.0,0.0,0.0,0.0,0.0,0.0,0.0,0.0,0.0,0.0,0.0,0.0,0.0,0.0,0.0,0.0,0.0,0.0,0.0,0.0,0.0,0.0,0.0,0.0,5.7409,5.8954,5.5531,5.872,5.8952,0.0,0.0,0.0,0.0,0.0,0.0,6.6407,7.0593,7.407,7.6594,8.0278,8.2759,8.3777,8.6893,8.9313,9.0996,9.2819,9.4395,9.58,9.5686,9.5623,9.5545,9.5313,9.3998,9.1329,8.2355,7.5817,7.1059,6.7655,6.6031,6.5721,6.6379,6.7268,6.8545,0.0,0.0,0.0,0.0,0.0,0.0,0.0,0.0,0.0,0.0,0.0,4.7459,5.0722,5.4896,5.8484,6.1013,6.152,6.1944,6.2512,5.8124,5.6103,5.7434,5.5946,5.5517,5.6454,6.2002,6.7932,7.4056,8.0023,8.5137,8.9477,9.1929,9.31,9.31,9.3068,8.8266,7.975,7.2378,7.004,7.0509,0.0,0.0,0.0,0.0,0.0,0.0,0.0,0.0,0.0,0.0,0.0,0.0,0.0,0.0,0.0,0.0,0.0,0.0,0.0,0.0,0.0,0.0,0.0,0.0,0.0,0.0,0.0,0.0,0.0,0.0,0.0,0.0,0.0,0.0,0.0,0.0,0.0,0.0,0.0,5.6652,6.3245,0.0,0.0,0.0,0.0,6.3541,6.7554,7.1038,7.364,7.7831,8.2128,8.6456,8.9136,9.2168,9.5625,9.5664,9.6445,9.7995,9.8309,9.8767,9.9357,9.9452,9.9452,9.9289,9.833,9.7363,9.5855,8.8079,8.2355,7.8138,7.4734,7.2375,7.0905,7.0982,7.2065,7.3535,0.0,0.0,0.0,0.0,0.0,0.0,0.0,0.0,4.3342,4.3667,4.761,5.1704,5.513,6.0866,6.5468,6.8111,7.085,7.0928,6.7336,6.4336,6.1725,5.9577,5.6801,5.7274,6.1456,6.7425,7.3744,8.0296,8.5839,9.0445,9.4122,9.5059,9.5488,9.5449,9.4903,9.2639,8.8806,8.2137,7.6164,7.0855,6.719,6.3052,0.0,0.0,0.0,0.0,0.0,0.0,0.0,0.0,0.0,0.0,0.0,0.0,0.0,0.0,0.0,0.0,0.0,0.0,0.0,0.0,0.0,0.0,0.0,0.0,0.0,0.0,0.0,0.0,0.0,0.0,0.0,0.0,0.0,0.0,0.0,0.0,0.0,6.7557,7.3192,0.0,6.7193,6.9225,7.1104,7.1466,7.6101,8.0215,8.3353,8.7549,9.1115,9.3895,9.5904,9.7536,9.8945,9.9414,9.9957,10.0512,10.1012,10.1317,10.1512,10.092,10.0624,10.0496,9.9607,9.9018,9.8515,9.5768,9.1047,8.5217,8.1813,7.9724,7.8757,7.9337,7.9569,7.9763,0.0,0.0,0.0,0.0,0.0,0.0,0.0,0.0,4.3813,4.4098,4.9907,5.5556,5.9577,6.6405,7.2099,7.5567,7.7167,7.6275,7.2266,6.7927,6.414,6.0983,5.8948,6.0588,6.6336,7.2963,7.9398,8.5683,9.0602,9.431,9.6855,9.6855,9.6855,9.6816,9.623,9.5488,9.4395,9.0094,8.3146,7.4759,7.1875,6.8479,6.4497,0.0,0.0,0.0,0.0,0.0,0.0,0.0,0.0,0.0,0.0,0.0,0.0,0.0,0.0,0.0,0.0,0.0,0.0,0.0,0.0,0.0,0.0,0.0,0.0,0.0,0.0,0.0,0.0,0.0,0.0,0.0,0.0,0.0,0.0,0.0,7.362,7.5066,8.0662,8.1833,7.5275,7.7905,8.0134,8.0431,8.5058,8.9013,9.1509,9.5441,9.8164,9.9414,10.1113,10.1984,10.1986,10.2608,10.2888,10.2808,10.3283,10.3492,10.3507,10.2802,10.2523,10.2412,10.1177,10.0711,10.0594,10.0017,9.6824,9.2067,8.9243,8.719,8.5952,8.6532,8.6339,8.5836,0.0,0.0,0.0,0.0,0.0,0.0,0.0,4.2555,4.4039,4.4972,5.1925,5.8796,6.3974,7.1468,7.8143,8.3263,7.9743,7.7245,7.714,6.8307,6.2686,6.1803,6.2735,6.5707,7.0943,7.8585,8.5058,9.0211,9.4434,9.6933,9.7792,9.7792,9.7792,9.7792,9.7792,9.7284,9.6425,9.5567,9.0836,8.3263,7.6438,7.4023,7.352,0.0,0.0,0.0,0.0,0.0,0.0,0.0,0.0,0.0,0.0,0.0,0.0,0.0,0.0,0.0,0.0,0.0,0.0,0.0,0.0,0.0,0.0,0.0,0.0,0.0,0.0,0.0,0.0,0.0,0.0,0.0,0.0,0.0,6.4994,7.3442,7.9105,7.8508,8.5204,8.7668,8.1989,8.6049,8.9377,9.0272,9.4297,9.707,9.7851,10.1211,10.3008,10.3008,10.4609,10.5501,10.5404,10.5404,10.5413,10.5214,10.5388,10.539,10.5185,10.5204,10.5214,10.5092,10.3279,10.2499,10.2304,10.059,9.9358,9.8411,9.6734,9.4423,9.2025,9.2025,9.1909,9.1367,0.0,0.0,0.0,0.0,0.0,0.0,0.0,4.2165,4.4468,4.6612,5.5287,6.3442,6.9243,7.7323,8.3926,8.7876,8.3692,8.0062,7.8155,6.9796,6.4492,6.3603,6.68,0.0,7.8975,8.487,9.0094,9.463,9.7714,9.9353,9.9588,9.9588,9.9588,9.9588,9.9588,9.908,9.826,9.8026,9.5606,9.1343,8.5104,7.9723,7.4965,0.0,0.0,0.0,0.0,0.0,0.0,0.0,0.0,0.0,0.0,0.0,0.0,0.0,0.0,0.0,0.0,0.0,0.0,0.0,0.0,0.0,0.0,0.0,0.0,0.0,0.0,0.0,0.0,0.0,0.0,0.0,6.7096,7.2048,7.3319,7.8921,8.4665,8.9512,9.3745,9.5642,9.402,9.6395,9.7872,9.75,10.0297,10.2191,10.2387,10.4515,10.5381,10.4717,10.5811,10.612,10.5399,10.5998,10.6317,10.6307,10.6285,10.6291,10.6312,10.5683,10.5409,10.5409,10.4206,10.3702,10.3587,10.1794,10.0584,9.9691,9.8393,9.6643,9.4854,9.4756,9.3843,9.2451,0.0,0.0,0.0,0.0,0.0,0.0,0.0,4.2009,4.4898,4.8216,5.7668,6.6371,7.2405,8.0407,8.6464,8.9203,8.4395,7.9789,7.6477,6.9221,6.5629,6.6922,0.0,7.8155,8.4824,9.0062,9.4278,9.7479,9.9392,10.029,10.029,10.029,10.029,10.029,10.029,10.0017,9.9509,9.9158,9.8104,9.6347,9.2131,8.7564,8.2807,7.772,7.4675,7.2617,6.8913,6.8054,6.8054,6.4331,0.0,0.0,0.0,0.0,0.0,0.0,0.0,0.0,0.0,0.0,0.0,0.0,0.0,0.0,0.0,0.0,0.0,0.0,0.0,0.0,0.0,0.0,0.0,0.0,7.4208,8.0392,8.3386,8.6397,9.0259,9.5768,9.8821,10.0509,10.0509,10.2519,10.3386,10.2488,10.4501,10.5615,10.5279,10.6903,10.758,10.6994,10.7892,10.8088,10.758,10.8106,10.8293,10.8293,10.8293,10.8293,10.8293,10.7512,10.6888,0.0,10.5209,10.4506,10.3999,10.2296,10.1093,0.0,0.0,0.0,0.0,0.0,9.539,9.3959,0.0,0.0,0.0,0.0,0.0,0.0,0.0,4.197,4.5249,4.9544,5.9152,6.781,7.3569,8.1226,8.6698,8.8533,8.3185,7.7915,7.371,6.8049,6.7,7.1802,7.835,8.4278,8.9469,9.4544,9.7948,9.958,10.0407,10.0915,10.0915,10.0915,10.0798,10.072,10.072,10.0603,10.0407,9.9627,9.9236,9.9002,9.7362,9.5488,9.2795,8.4987,8.269,8.3008,7.8245,7.434,7.1095,6.8964,0.0,0.0,0.0,0.0,0.0,0.0,0.0,0.0,0.0,0.0,0.0,0.0,0.0,0.0,0.0,0.0,0.0,0.0,0.0,0.0,0.0,0.0,0.0,0.0,8.1074,8.7675,9.3735,9.4763,9.5971,9.8916,10.1612,10.3319,10.3514,10.56,10.6693,10.599,10.7385,10.8016,10.72,0.0,0.0,0.0,0.0,11.0714,11.0596,11.0714,11.0714,11.0596,11.0596,11.0714,11.0596,10.9699,10.8918,10.802,10.6185,10.5014,10.4116,10.2308,10.0991,10.0105,9.9177,9.8273,9.7442,9.7137,9.6551,0.0,0.0,0.0,0.0,0.0,0.0,0.0,0.0,4.1618,4.5249,4.9544,5.9148,6.7375,7.1969,8.0016,8.6034,8.8501,8.3185,7.8155,7.4506,7.0592,7.1914,7.9717,8.4668,8.9626,9.4817,9.9275,10.2086,10.3101,10.3999,10.4389,10.4389,10.4389,10.3999,10.3413,10.3413,10.2593,10.1305,10.111,10.0603,9.9939,9.8924,9.6191,9.2436,8.9391,8.6698,8.4239,8.1897,8.2293,8.323,7.8741,7.781,7.7742,7.3061,0.0,0.0,0.0,0.0,0.0,0.0,0.0,0.0,0.0,0.0,0.0,0.0,0.0,0.0,0.0,0.0,0.0,0.0,0.0,0.0,8.0615,8.76,9.3957,9.9307,10.1283,10.2185,10.208,10.3787,10.5497,10.691,10.8094,10.8986,10.9581,10.9902,11.0019,10.9894,11.0792,0.0,11.0284,11.1104,11.1182,11.0518,11.1182,11.1611,11.1494,0.0,0.0,11.1611,11.0011,10.9191,10.8918,10.6497,10.5287,10.5014,10.2601,10.0707,9.9137,9.8173,9.7616,9.7305,9.7095,9.6822,9.6319,0.0,0.0,0.0,0.0,0.0,0.0,0.0,4.1501,4.5249,4.9544,5.7231,6.3818,6.7709,7.3888,7.7915,7.8344,7.487,7.2651,7.2588,7.3432,7.7759,8.6431,9.135,9.5676,9.9502,10.2984,10.5014,10.5404,10.5795,10.6107,10.599,10.5599,10.4897,10.4116,10.4584,10.3804,10.2203,10.2203,10.1696,10.0798,9.9978,9.8338,9.623,9.4512,9.2241,8.986,8.9001,8.8689,8.8181,8.4707,8.3269,8.2143,7.7843,7.3236,6.8747,0.0,0.0,0.0,0.0,0.0,0.0,0.0,0.0,0.0,0.0,0.0,0.0,0.0,0.0,6.3945,6.75,0.0,8.1523,8.7187,9.3549,9.8819,10.1796,10.4492,10.5585,10.4281,10.6012,10.7699,10.8605,10.9792,11.0697,11.1182,11.1611,11.1885,11.1885,11.2197,11.2314,11.1807,11.2587,11.2704,11.1807,11.2704,11.3095,11.3095,11.2704,11.2704,11.3095,11.1299,11.0089,10.9191,10.7005,10.5599,10.4584,10.2008,10.0187,9.8887,9.7912,9.752,9.75,9.7323,9.7206,9.6893,0.0,0.0,0.0,0.0,0.0,0.0,0.0,4.1618,4.5132,4.9114,5.4732,5.9607,6.2909,6.6979,6.8898,6.7492,6.7219,6.8703,7.2461,7.7212,8.3841,9.2678,9.7362,10.0915,10.3491,10.599,10.7317,10.7395,10.7395,10.7395,10.7395,10.6614,10.5717,10.4889,10.5404,10.4702,10.3101,10.3101,10.2515,10.1696,10.0915,10.0485,10.029,9.8612,9.7089,9.584,9.5684,9.3412,9.0289,8.9079,8.6925,8.4271,8.1499,7.8611,7.5222,7.0079,6.8093,0.0,0.0,0.0,0.0,0.0,0.0,0.0,0.0,0.0,6.0312,6.375,6.7616,7.1833,7.6755,8.2848,8.8592,9.3123,9.834,10.2314,10.3707,10.6404,10.792,10.681,10.8723,11.0011,11.0011,11.1611,11.2587,11.2587,11.3212,11.3485,11.3407,11.3485,11.3485,11.3407,11.4188,11.4305,11.3602,11.4305,11.4695,11.4617,11.3915,11.3915,11.4305,11.2783,11.1104,10.9386,10.7317,10.5599,10.3882,10.1383,9.99,9.9133,9.8008,9.7594,9.7667,9.7505,9.7444,9.7214,0.0,0.0,0.0,0.0,0.0,0.0,0.0,0.0,4.4703,4.7514,5.2472,5.6727,5.9378,6.2861,6.4935,6.4739,6.9464,7.454,7.9528,8.3224,8.9423,9.8885,10.1305,10.3608,10.6185,10.8098,10.9386,11.0089,11.0089,11.0089,11.0089,10.9191,10.841,10.7512,10.6888,10.5599,10.3991,10.3999,10.3491,10.2593,10.1696,10.1383,10.1188,9.9509,9.8729,9.8455,9.7675,9.5176,9.2319,9.2905,9.1382,8.9196,8.8806,8.5839,8.146,7.6314,7.0543,6.4687,5.9156,5.6202,5.5322,5.7773,5.8441,6.0135,0.0,0.0,7.0117,7.3594,7.6473,7.9528,8.323,8.7642,9.2372,9.7448,10.0808,10.3783,10.6988,10.8387,10.9589,11.0909,11.2002,11.2704,11.2704,11.4188,11.5281,11.5281,11.5398,11.5086,11.4305,11.5008,11.5086,11.4305,11.5086,11.5515,11.5398,11.5515,11.5593,11.5593,11.5515,11.5086,11.4383,11.3407,11.2002,11.0206,10.6888,10.5014,10.3882,10.1383,10.0212,9.9978,9.8313,9.7701,9.7676,9.7369,9.7249,9.7109,0.0,0.0,0.0,0.0,0.0,0.0,0.0,0.0,0.0,4.587,4.927,5.1925,5.2979,5.4853,5.622,5.6766,6.4583,7.1924,7.7609,8.5878,9.4154,10.2203,10.4584,10.6614,10.8215,10.9894,11.0909,11.1299,11.1299,11.1299,11.1182,11.0401,10.9581,10.8684,10.841,10.72,10.5599,10.5092,10.4389,10.3491,10.2593,10.2008,10.1383,10.0212,9.8494,9.6542,9.5176,9.2787,0.0,9.0726,8.9789,8.8572,8.9079,8.6613,8.2475,7.7316,7.2372,6.7425,6.2223,5.9685,5.9065,6.1529,6.3989,6.7117,7.201,7.4591,7.6931,8.0367,8.4335,8.7947,9.0406,9.4739,9.869,0.0,10.3402,10.5594,10.7005,10.802,10.841,10.8089,11.0206,11.2197,11.3719,11.5008,11.5906,11.6413,11.5984,11.5789,11.5906,11.5789,11.5515,11.5203,11.5984,11.6218,11.571,11.6218,11.6218,11.571,11.571,11.5203,11.4383,11.3993,11.2119,10.8918,10.6497,10.4584,10.3218,10.111,10.029,10.0095,9.8377,9.7714,9.7682,9.7537,9.75,9.7421,0.0,0.0,0.0,0.0,0.0,0.0,0.0,0.0,0.0,0.0,4.6651,4.8294,4.8763,4.9579,5.0438,5.1336,6.0206,6.8523,7.502,8.6066,9.5793,10.3413,10.6497,10.8488,10.962,11.1299,11.2197,11.2197,11.2197,11.2197,11.208,11.1299,11.0518,11.0011,10.9503,10.8488,10.7005,10.6107,10.5092,10.3999,10.3413,10.2515,10.1305,9.9822,9.6933,9.3451,9.1734,8.8689,8.5449,8.5228,8.4095,8.3068,8.4661,8.3568,8.0758,7.584,7.1474,6.7503,6.4223,6.3252,6.3794,6.6722,7.0548,7.4486,7.8149,8.1038,8.3887,8.7283,9.1187,9.4583,9.6503,9.9939,10.2711,10.3413,10.5287,10.6888,10.7317,10.7786,10.7395,10.5912,10.7512,10.9699,11.2002,11.4383,11.5984,11.6608,11.6491,11.6608,11.6999,11.6608,11.6296,11.6101,11.6882,11.7116,11.6413,11.6999,11.6882,11.6101,11.6101,11.5515,11.4383,11.3719,11.1611,10.8605,10.6419,10.4702,10.3413,10.1383,10.0485,10.0212,9.8651,9.7909,9.7714,9.7714,9.7714,9.7675,0.0,0.0,0.0,0.0,0.0,0.0,0.0,0.0,0.0,0.0,0.0,0.0,0.0,4.9579,5.0438,5.1336,5.8566,6.6371,7.4038,8.3522,9.3053,10.239,10.6216,10.8801,11.0401,11.2197,11.3095,11.3095,11.3095,11.3095,11.3017,11.2197,11.1689,11.1689,11.0011,10.8801,10.7903,10.7005,10.5717,10.4116,10.4116,10.2984,10.111,9.7792,9.388,8.9938,8.8174,8.3185,7.7335,7.6488,7.3978,7.1774,7.5131,7.6698,7.6432,7.211,6.6644,6.231,6.3837,6.5438,6.8054,7.3984,7.8071,8.1812,8.6066,8.9079,9.1929,9.5332,9.6855,9.8338,10.0798,10.1383,10.2398,10.4897,10.6107,10.7317,10.8996,10.8488,10.7708,10.6786,10.5302,10.499,0.0,11.2314,11.571,11.571,11.7311,11.7897,11.6999,11.7819,11.7819,11.6999,11.7819,11.8209,11.8209,11.8209,11.7819,11.6999,11.6999,11.6101,11.4305,11.1807,11.0518,11.0206,10.6888,10.5404,10.5092,10.2515,10.0993,10.0212,9.9314,9.8455,9.7714,9.7714,9.7714,9.7597,0.0,0.0,0.0,0.0,0.0,0.0,0.0,0.0,0.0,0.0,0.0,0.0,0.0,0.0,0.0,0.0,5.7122,6.3837,6.9874,8.0765,9.0172,9.7394,10.3796,10.7708,10.8801,11.1104,11.2197,11.2197,11.2783,11.3095,11.3095,11.2783,11.2392,11.1807,11.0596,10.962,10.8684,10.6693,10.5521,10.4819,10.2515,10.0915,9.9588,9.7284,9.1624,8.4362,0.0,7.5506,7.0904,6.9503,6.8288,6.7615,6.9294,7.004,6.9182,6.375,6.3164,6.4536,6.5668,6.9723,7.5071,8.1122,8.5254,8.8806,9.2514,9.4512,9.5879,9.7011,9.6106,9.5364,9.6223,9.7355,9.876,10.079,10.3796,10.6419,10.8215,10.8215,10.638,10.2101,10.3116,0.0,0.0,0.0,0.0,11.4617,11.5398,11.6296,11.7819,11.8092,11.8209,11.7897,11.8092,11.8014,11.7389,11.7389,11.6686,11.5281,11.411,11.3485,11.3407,11.0284,10.8488,10.7903,10.5482,10.4194,10.3608,10.2086,10.1305,10.0993,10.0212,9.9314,9.8572,9.8572,9.8182,9.7675,0.0,0.0,0.0,0.0,0.0,0.0,0.0,0.0,0.0,0.0,0.0,0.0,0.0,0.0,0.0,0.0,0.0,6.0636,6.5512,7.4798,8.3107,8.9774,9.5169,9.8838,10.0586,10.1922,10.3483,10.5396,10.6606,10.8089,10.9894,11.0206,11.0011,10.9503,10.8605,10.7903,10.7317,10.5279,10.3796,10.2312,9.8916,9.6262,9.4037,9.0758,8.459,0.0,7.1797,6.7156,6.3369,6.2279,6.1924,6.2115,6.3247,6.3798,6.3638,6.1603,6.3833,6.7698,7.0977,7.6236,8.2092,8.7518,9.1226,9.4154,9.6347,9.7284,9.744,9.6503,9.4232,9.2241,9.1616,9.1663,9.2873,9.6145,9.9267,10.2585,10.6489,10.6302,10.4506,10.1196,10.1117,10.0415,0.0,0.0,0.0,11.2119,11.368,11.5398,11.7701,11.8092,11.8287,11.8287,11.8287,11.7701,11.6491,11.6804,11.6101,11.4383,11.2587,11.1885,11.208,10.9308,10.7512,10.6614,10.4897,10.3804,10.3218,10.2281,10.1813,10.1383,10.0603,9.9783,9.8963,9.8651,9.8182,9.7675,0.0,0.0,0.0,0.0,0.0,0.0,0.0,0.0,0.0,0.0,0.0,0.0,0.0,0.0,0.0,0.0,0.0,0.0,6.1108,6.6214,7.2417,7.9931,8.1492,8.3678,8.6948,8.6402,8.8517,9.3396,9.5113,9.8478,10.3288,10.4186,10.4498,10.4498,10.3717,10.3288,10.321,10.2312,10.0009,9.673,9.3248,8.943,8.5137,7.9314,7.3875,6.8684,6.3633,5.9031,5.5361,5.5205,5.5244,5.5673,5.7426,5.8597,6.0319,6.5555,6.8405,7.1529,7.9248,8.4473,8.872,9.2944,9.5879,9.7714,9.7714,9.7558,9.6699,9.4076,9.1304,8.8767,8.6945,0.0,8.5267,9.1272,9.3365,9.6956,10.4615,10.36,10.2585,0.0,0.0,0.0,0.0,0.0,0.0,10.8801,0.0,11.5008,11.6882,11.7819,11.8287,11.8287,11.8287,11.7389,11.571,11.6296,11.5906,11.4305,11.2509,11.1299,11.0401,10.8684,10.7512,10.6497,10.478,10.4116,10.3999,10.3101,10.2281,10.15,10.0681,9.9822,9.8963,9.8104,9.7753,9.7597,0.0,0.0,0.0,0.0,0.0,0.0,0.0,0.0,0.0,0.0,0.0,0.0,0.0,0.0,0.0,0.0,0.0,0.0,5.6727,6.1768,6.6375,7.0236,7.6795,8.0777,8.1641,8.4575,8.6723,8.8045,8.9164,9.0719,9.2631,9.2866,9.2944,9.2944,9.2748,9.228,9.157,9.0047,8.8877,8.7784,8.4356,8.2293,8.1017,7.8166,7.3476,6.8005,6.4809,6.0475,5.5986,5.4033,5.4654,5.6797,5.9768,6.1291,6.3169,6.8956,7.3242,7.7531,8.4004,8.8884,9.2905,9.5957,9.7206,9.7714,9.7706,9.5676,9.31,9.0523,8.487,7.9483,7.6482,7.8518,8.2428,8.7816,9.5346,0.0,10.9316,11.0214,0.0,10.6419,0.0,10.4311,10.2281,10.2281,0.0,0.0,11.0401,11.2509,11.6804,11.7819,11.8287,11.8287,11.8287,11.7194,11.4813,11.3017,11.2587,11.3407,11.1104,11.0089,11.0401,10.8098,10.6614,10.5717,10.4584,10.3687,10.3101,10.2906,10.2711,10.2398,10.15,10.0681,9.9861,9.9002,9.826,9.7675,0.0,0.0,0.0,0.0,0.0,0.0,0.0,0.0,0.0,0.0,0.0,0.0,0.0,0.0,0.0,0.0,0.0,0.0,0.0,5.6649,5.962,6.2197,6.6609,6.9499,7.0631,7.2314,7.4462,7.7117,7.7966,7.9951,8.3074,8.3816,8.4167,8.4206,8.4597,8.448,8.3972,8.2996,8.1903,0.0,0.0,7.5077,7.3754,7.1295,6.801,6.4492,6.2662,6.0631,5.8718,5.8016,5.8992,6.1369,6.6331,6.8474,7.0309,7.5941,8.0152,8.4083,8.9352,9.3646,9.6894,9.7987,9.826,9.7479,9.4427,9.1655,8.8103,8.2521,7.6672,7.1524,6.8127,7.1685,7.7234,8.3555,9.2606,0.0,10.9589,11.0792,11.0518,0.0,10.8996,0.0,10.6302,10.6302,10.7786,0.0,11.0909,11.2314,11.6804,11.7819,11.8287,11.8287,11.7897,11.6686,11.4383,11.2197,11.1611,11.2509,11.0714,10.9699,10.9308,10.7512,10.6185,10.5404,0.0,10.3804,10.3296,10.2984,10.2789,10.2711,10.1813,10.0993,10.0212,9.9314,9.8455,9.7714,0.0,0.0,0.0,0.0,0.0,0.0,0.0,0.0,0.0,0.0,4.6495,0.0,0.0,0.0,0.0,0.0,0.0,0.0,0.0,0.0,5.3526,5.579,5.54,5.6177,5.8358,5.7343,5.9334,6.4575,6.5394,6.8518,7.3794,7.5433,7.6253,7.637,7.7268,7.7664,7.7664,7.7542,7.6175,7.3833,7.0748,6.8166,6.5785,0.0,0.0,6.0427,5.9451,5.9846,6.1334,6.4458,6.6019,6.7854,7.4413,7.7224,7.917,8.4447,8.7603,9.0328,9.4622,9.7987,10.0095,9.9236,9.8846,9.6894,9.0094,8.6737,8.2443,7.3192,6.8357,6.4809,6.1607,6.5403,7.1768,7.9984,8.8525,9.7854,10.8519,10.93,11.0002,11.3086,11.1407,11.0197,11.0792,11.0089,11.0714,11.329,11.2587,11.3602,11.6804,11.7584,11.8014,11.8014,11.6999,11.5789,11.4383,11.2587,11.1689,11.2002,11.0909,10.962,10.8293,10.7317,10.6302,10.5404,0.0,0.0,10.3882,10.3101,10.2789,10.2711,10.1813,10.0993,10.0212,9.9314,9.8455,9.7714,0.0,0.0,0.0,0.0,0.0,0.0,0.0,0.0,0.0,0.0,4.7631,4.63,0.0,0.0,0.0,0.0,0.0,0.0,0.0,0.0,0.0,5.2273,5.3526,5.442,5.4884,5.6645,5.8089,5.9152,6.0007,6.1334,6.3091,6.4106,6.4965,6.5707,6.6566,6.6956,6.6917,6.6214,6.5629,6.5121,6.3789,6.3008,6.254,6.1915,0.0,0.0,5.9685,5.7929,5.7972,6.8279,7.2294,7.3855,7.8618,8.1656,8.4622,9.0523,9.2553,9.3841,9.8221,9.9861,10.0095,9.9236,9.7909,9.5215,8.904,8.3549,7.7464,6.9382,6.3837,5.9816,5.7859,6.2826,7.0709,8.1343,9.0313,10.0118,11.1915,11.3398,11.3798,0.0,11.4188,11.329,11.2704,11.1885,0.0,0.0,0.0,11.4813,11.6882,11.6491,11.6179,11.6179,11.4617,11.3993,11.4383,11.2002,11.1416,11.2783,11.0596,10.9699,11.0011,10.8488,10.6888,10.5404,10.5209,0.0,10.2984,10.2906,10.2789,10.2711,10.1813,10.0993,10.0212,9.9314,9.8455,9.7714,0.0,0.0,0.0,0.0,0.0,0.0,0.0,4.5054,4.6772,5.1499,5.1453,5.0278,4.849,4.7865,4.7588,0.0,0.0,0.0,0.0,0.0,0.0,0.0,0.0,0.0,5.3327,5.4966,5.602,5.6493,0.0,5.7777,5.9065,5.9929,6.0822,6.1681,6.2579,6.2969,6.293,6.2501,6.2306,6.2306,6.1876,6.172,0.0,0.0,0.0,0.0,0.0,5.8792,6.0319,6.7034,7.3153,7.9079,8.5598,8.9118,9.1577,9.541,9.6816,9.7753,10.0212,10.1305,10.1305,10.0017,9.7362,9.2748,8.4044,7.7732,7.1143,6.2002,5.782,5.54,5.4112,6.0636,6.8674,7.6275,8.4732,9.4879,10.7894,10.93,11.1017,11.6413,11.6686,11.6296,11.5789,11.5398,11.571,11.6999,11.6218,11.6296,11.7584,11.6882,11.5984,11.5086,11.4188,11.3798,11.368,11.2509,11.2002,11.2392,11.1182,11.0284,10.9816,10.8996,10.7981,10.6693,10.6302,0.0,10.4116,10.3687,10.3218,10.2789,10.2281,10.1696,10.0798,9.9978,9.9119,9.8299,0.0,0.0,0.0,0.0,0.0,0.0,0.0,4.6846,4.9032,5.513,5.6059,5.4997,5.2078,4.9934,4.8333,0.0,0.0,0.0,0.0,0.0,0.0,0.0,0.0,0.0,0.0,0.0,0.0,5.5001,5.5391,0.0,0.0,0.0,0.0,0.0,6.133,6.172,6.172,6.172,6.172,0.0,0.0,6.1603,0.0,0.0,0.0,0.0,0.0,5.946,6.2076,6.4891,7.1519,7.9938,8.7986,9.3217,9.6621,9.7831,9.9314,10.0798,10.1813,10.2593,10.2711,10.0993,9.6886,9.0367,7.9314,7.2534,6.5755,5.579,5.3014,5.2312,5.1999,5.8367,6.5512,7.1095,7.8416,8.833,10.2281,10.4498,10.7816,11.6413,11.7819,11.7897,11.778,11.7701,0.0,11.8014,11.7584,0.0,11.7506,11.6999,11.5906,11.4188,11.411,11.3798,11.3095,11.3095,11.2783,11.208,11.1885,11.0987,10.9581,10.9386,10.8684,10.7708,10.681,0.0,0.0,10.4194,10.3413,10.2789,10.2789,10.2281,10.1383,10.0798,10.0017,9.9158,0.0,0.0,0.0,0.0,0.0,0.0,0.0,4.856,5.183,6.0983,6.0198,5.8314,5.7216,5.4186,5.0679,0.0,0.0,0.0,0.0,0.0,0.0,0.0,0.0,0.0,0.0,0.0,0.0,5.4103,5.5708,0.0,0.0,0.0,0.0,0.0,0.0,6.172,6.172,6.172,0.0,0.0,0.0,0.0,0.0,0.0,0.0,0.0,0.0,5.7543,5.8168,6.454,6.8366,7.1568,7.783,8.744,9.6269,9.5645,9.826,10.1813,10.3413,10.3882,10.3608,10.1813,9.6418,8.8806,7.8305,7.0743,6.3451,5.4619,5.2117,5.196,5.3487,5.5751,6.0631,7.0397,7.5936,8.4101,9.8721,10.4085,10.8519,11.411,11.6218,11.6804,11.5984,11.5906,11.6296,11.7116,11.7819,0.0,11.4891,11.5398,11.5008,11.329,11.3212,11.3212,11.3095,11.3095,11.3095,11.3017,11.2197,11.1299,11.0401,10.9581,10.841,10.681,10.5912,0.0,0.0,10.3296,10.2906,10.2789,10.2789,10.2281,10.15,10.1383,10.0915,10.0095,0.0,0.0,0.0,0.0,0.0,0.0,4.8027,4.84,5.1669,6.1681,6.21,6.1509,6.1705,5.8636,5.3764,4.6885,0.0,0.0,0.0,0.0,0.0,0.0,0.0,0.0,0.0,0.0,5.399,5.3986,5.5747,0.0,0.0,0.0,0.0,0.0,0.0,6.172,6.172,6.172,0.0,0.0,0.0,0.0,0.0,0.0,0.0,0.0,0.0,0.0,5.7035,5.9733,6.3169,6.657,6.7922,7.554,8.5071,9.0445,9.4349,9.7706,10.1492,10.2898,10.2906,10.1188,9.5208,8.7166,7.7335,6.9342,6.1733,5.3604,5.1648,5.1609,5.2312,5.3877,5.7235,6.3915,6.6449,7.25,8.6689,9.0615,9.6223,10.759,11.0987,11.368,0.0,0.0,11.7389,11.7819,11.8092,0.0,11.5984,11.5789,11.4891,11.3212,11.3095,11.3095,11.3095,11.3095,11.3095,11.3095,11.2704,11.1885,11.0518,11.0206,10.9113,10.7395,10.6614,0.0,0.0,10.3882,10.3296,10.2789,10.2789,10.2593,10.2203,10.1696,10.1305,10.0915,0.0,0.0,0.0,0.0,0.0,4.2829,4.8027,4.8755,5.2143,6.1759,6.2764,6.3032,6.4163,6.0271,5.5049,4.8724,4.8568,0.0,0.0,0.0,0.0,0.0,0.0,0.0,0.0,0.0,5.3756,5.3986,5.547,5.6762,0.0,0.0,5.9334,6.0427,0.0,0.0,0.0,0.0,0.0,0.0,0.0,0.0,0.0,0.0,0.0,0.0,0.0,0.0,0.0,0.0,0.0,6.2505,6.1017,6.5824,7.395,8.3699,8.9821,9.4427,9.9111,10.1805,10.2781,10.111,9.4427,8.5917,7.6672,6.8366,6.0479,5.2936,5.1414,5.1414,5.1414,5.2624,5.4931,5.8996,6.0705,6.6014,7.883,8.245,8.8533,10.1196,10.5014,10.8918,11.4695,11.7116,11.8287,11.8287,11.8287,0.0,11.6999,11.6218,11.5008,11.3485,11.3212,11.3017,11.2704,11.3017,11.3017,11.2704,11.2704,11.1885,11.0518,11.0284,10.9386,10.7903,10.681,0.0,0.0,10.4194,10.3413,10.2789,10.2789,10.2789,10.2711,10.2086,10.1891,10.1813,0.0,0.0,0.0,0.0,0.0,0.0,4.8027,5.0246,5.4151,6.1967,6.2267,6.2374,6.4091,5.8187,5.3665,5.271,5.0285,0.0,0.0,0.0,0.0,0.0,0.0,0.0,0.0,0.0,5.3132,5.3986,5.4884,5.6177,5.7816,5.7816,5.8753,6.0388,0.0,0.0,0.0,0.0,0.0,0.0,0.0,0.0,0.0,0.0,0.0,0.0,0.0,0.0,0.0,0.0,0.0,0.0,0.0,6.0284,6.516,7.5506,8.5143,9.3295,9.6808,10.0798,10.3687,10.1891,9.4388,8.5137,7.6477,6.7859,5.9738,5.2819,5.1414,5.1414,5.1414,5.2117,5.3838,5.7278,6.1447,6.7888,7.8266,8.4128,8.9633,9.5769,9.8807,10.2398,10.759,11.4305,11.8287,11.8287,0.0,0.0,11.6999,11.6218,11.5281,11.4383,11.3485,11.2704,11.1807,11.2704,11.2704,11.1807,11.1807,11.1416,11.0518,10.9699,10.8801,0.0,0.0,0.0,0.0,10.3491,10.2789,10.2789,10.2789,10.2789,10.2789,10.2789,10.2789,10.2711,0.0,0.0,0.0,0.0,0.0,0.0,0.0,4.6655,4.9384,5.5981,5.6602,5.7538,6.0436,5.6181,5.3014,5.271,5.0324,0.0,0.0,0.0,0.0,0.0,0.0,0.0,0.0,0.0,5.4307,5.579,5.7192,5.848,5.9577,5.9577,5.9534,5.9495,5.949,5.9646,0.0,0.0,0.0,0.0,0.0,0.0,0.0,0.0,0.0,0.0,0.0,0.0,0.0,0.0,0.0,0.0,0.0,0.0,0.0,6.5355,7.4095,8.2755,8.6222,9.0321,9.2741,8.9267,8.4341,7.8409,7.0928,6.4418,5.8293,5.2585,5.1414,5.1414,5.1414,5.1648,5.3912,6.0319,6.2496,6.6193,7.4212,8.1786,8.8735,9.4786,10.5599,11.3212,0.0,0.0,11.8287,11.8287,0.0,0.0,11.7897,11.6491,11.5281,11.4383,11.3602,11.2704,11.1807,11.2704,11.2392,11.0909,11.1494,11.1104,10.9699,10.9386,10.8801,0.0,0.0,0.0,0.0,10.4194,10.3296,10.2789,10.2789,10.2789,10.2789,10.2789,10.2789,10.2789,0.0,0.0,0.0,0.0,0.0,0.0,0.0,4.5054,4.7198,5.1921,5.223,5.36,5.7711,5.3451,5.0953,5.2553,5.0324,0.0,0.0,0.0,0.0,0.0,0.0,0.0,5.1414,5.278,5.4814,5.7547,5.9261,6.0861,6.2384,6.3013,6.2154,6.0085,6.0432,6.0002,0.0,0.0,0.0,0.0,0.0,0.0,5.6567,0.0,0.0,0.0,0.0,0.0,0.0,0.0,0.0,0.0,0.0,0.0,0.0,0.0,6.5473,7.2612,7.8689,8.3731,8.651,8.3497,7.9665,7.4825,6.7922,6.2349,5.7239,5.239,5.1414,5.1414,5.1414,5.1687,5.3678,5.9187,6.1164,6.4437,7.1363,7.9717,8.811,9.6113,10.7317,0.0,0.0,11.6999,11.8287,0.0,0.0,0.0,11.7819,11.6491,11.5281,11.4383,11.3212,11.2197,11.1299,11.1807,11.1416,11.0089,11.0596,11.0284,10.9308,10.8996,10.8293,0.0,0.0,0.0,0.0,10.3999,10.3296,10.2789,10.2789,10.2789,10.2789,10.2789,10.2789,10.2789,0.0,0.0,0.0,0.0,0.0,0.0,0.0,4.5054,4.7002,4.9505,4.9114,5.0481,5.5329,5.0129,4.7943,5.1968,0.0,0.0,0.0,0.0,0.0,0.0,0.0,0.0,5.1414,5.2312,5.4849,5.9104,6.0974,6.3238,6.5819,6.7425,6.5902,6.1842,6.2584,6.1412,0.0,0.0,0.0,0.0,5.5942,5.5786,0.0,0.0,0.0,0.0,0.0,0.0,0.0,0.0,0.0,0.0,0.0,0.0,0.0,0.0,0.0,0.0,0.0,7.9533,8.3174,8.2032,7.8206,7.2974,6.6371,6.1061,0.0,0.0,0.0,0.0,5.1648,5.2195,5.3327,5.5591,5.8548,6.2993,6.9913,7.8741,0.0,0.0,10.5717,0.0,10.9699,11.4891,0.0,0.0,0.0,0.0,11.6999,11.6101,11.5203,11.4383,11.2704,11.1416,11.0518,11.0518,11.0089,10.9191,10.9191,10.9191,10.9191,10.8215,10.7395,0.0,0.0,0.0,0.0,10.3218,10.2906,10.2789,10.2789,10.2789,10.2789,10.2789,10.2789,10.2789,0.0,0.0,0.0,0.0,0.0,0.0,0.0,0.0,0.0,0.0,4.7002,4.7357,4.8607,4.7276,4.6963,0.0,0.0,0.0,0.0,0.0,0.0,0.0,0.0,0.0,5.1414,5.2897,5.5478,5.9104,6.2178,6.4983,6.752,6.8585,6.6829,6.2686,6.2228,6.0202,0.0,0.0,0.0,0.0,5.5747,5.5435,0.0,0.0,0.0,0.0,5.4303,5.4619,0.0,0.0,0.0,0.0,0.0,0.0,0.0,0.0,5.6255,5.8597,6.2306,0.0,6.9255,6.5736,6.4409,6.2891,0.0,5.6255,0.0,0.0,0.0,0.0,0.0,5.2936,5.399,6.1022,6.2306,6.4799,7.1714,8.5182,0.0,10.9816,11.3915,11.5398,11.4305,11.6686,0.0,0.0,0.0,11.7194,11.6999,11.5515,11.4617,11.4383,11.2704,11.1416,11.0518,11.0518,10.9816,10.8293,10.8293,10.8293,10.8293,10.6693,10.6302,0.0,0.0,0.0,10.4116,10.3882,10.3413,10.2789,10.2789,10.2789,10.2789,10.2789,10.2789,10.2789,0.0,0.0,0.0,0.0,0.0,0.0,0.0,0.0,0.0,0.0,0.0,4.63,4.63,4.63,0.0,0.0,0.0,0.0,0.0,0.0,0.0,0.0,0.0,5.1414,5.1414,5.3093,5.6064,6.028,6.3745,6.7175,7.0492,7.1396,6.9054,6.4007,6.0388,5.7738,0.0,0.0,0.0,0.0,5.4611,0.0,0.0,0.0,0.0,0.0,5.3405,5.3448,0.0,5.481,5.5552,5.5903,0.0,0.0,0.0,0.0,5.4654,5.6216,5.7113,6.0822,6.3828,6.1481,6.0627,5.9616,5.6567,0.0,0.0,0.0,0.0,0.0,0.0,0.0,5.4494,6.0358,6.2618,6.781,7.9873,0.0,10.2789,11.3212,11.5984,11.7116,0.0,0.0,0.0,0.0,0.0,11.6804,11.6413,11.5086,11.3993,11.3212,11.1885,11.0987,11.0518,11.0089,10.9308,10.802,10.802,10.7786,10.7395,10.6419,10.5795,0.0,0.0,0.0,10.3491,10.3491,10.3218,10.2789,10.2789,10.2789,10.2789,10.2789,10.2789,10.2789,0.0,0.0,0.0,0.0,0.0,0.0,0.0,0.0,0.0,0.0,0.0,0.0,0.0,0.0,0.0,0.0,0.0,0.0,0.0,0.0,0.0,0.0,5.1414,5.1531,5.1804,5.3253,5.6415,6.1299,6.5277,6.9294,7.3309,7.4876,7.2099,6.5613,5.8866,5.5669,0.0,0.0,0.0,0.0,5.3362,0.0,0.0,0.0,0.0,0.0,0.0,0.0,0.0,5.5005,5.5708,5.5391,5.586,0.0,0.0,0.0,0.0,0.0,5.5903,5.9577,6.2974,6.2037,6.0905,5.9347,5.6766,0.0,0.0,0.0,0.0,0.0,0.0,5.4294,0.0,5.8866,6.3706,7.3036,9.0257,9.7518,10.4389,11.3485,11.5515,0.0,0.0,0.0,0.0,0.0,0.0,11.6413,11.5515,11.45,11.329,11.1807,11.0987,11.0518,11.0518,10.9581,10.8684,10.802,10.7903,10.7395,10.6693,10.638,10.5482,0.0,0.0,0.0,10.2789,10.2789,10.2789,10.2789,10.2789,10.2789,10.2789,10.2789,10.2789,10.2789,0.0,0.0,0.0,0.0,0.0,0.0,0.0,0.0,0.0,0.0,0.0,0.0,0.0,0.0,0.0,0.0,0.0,0.0,0.0,0.0,0.0,5.1414,5.1414,5.2078,5.3565,5.3877,5.5829,5.9499,6.5863,7.047,7.3393,7.7921,7.5623,6.7429,6.126,5.7313,5.5166,5.2815,0.0,5.4112,5.3093,0.0,0.0,0.0,0.0,0.0,0.0,0.0,0.0,5.3132,5.4181,5.507,5.3704,0.0,0.0,0.0,0.0,0.0,5.864,6.1803,6.2857,5.7773,5.7343,5.7538,5.497,0.0,0.0,0.0,0.0,0.0,0.0,5.8231,6.0099,0.0,0.0,8.4089,0.0,0.0,10.7317,11.4617,0.0,11.7389,0.0,0.0,0.0,0.0,0.0,11.5515,11.4617,11.3095,11.2119,11.1807,11.0987,11.0518,11.0518,10.8996,10.8098,10.802,10.7317,10.681,10.6614,10.5209,10.4389,0.0,0.0,10.2906,10.2789,10.2789,10.2789,10.2789,10.2789,10.2789,10.2789,10.2789,10.2789,10.2789,0.0,0.0,0.0,0.0,0.0,0.0,0.0,0.0,0.0,0.0,0.0,0.0,0.0,0.0,0.0,0.0,0.0,0.0,0.0,0.0,5.2234,5.4112,5.2858,5.2936,5.4658,5.6528,5.9851,6.4657,7.0631,7.516,7.811,7.6275,7.206,6.578,5.9729,5.6142,5.4502,5.2819,5.2546,5.3214,0.0,0.0,0.0,0.0,0.0,0.0,0.0,0.0,0.0,0.0,5.4966,5.5782,5.4528,0.0,0.0,0.0,0.0,0.0,5.6294,5.8827,6.0456,5.9084,6.0032,6.051,5.7469,0.0,0.0,0.0,0.0,0.0,0.0,0.0,6.7721,7.7023,0.0,9.3185,10.0603,10.5014,0.0,0.0,0.0,0.0,0.0,0.0,0.0,0.0,0.0,0.0,11.4383,11.2704,11.1611,11.1104,11.0284,10.9581,10.9191,10.841,10.8215,10.8684,10.7317,10.6693,10.6614,10.4897,10.4116,10.4116,0.0,10.2789,10.2789,10.2789,10.2789,10.2789,10.2789,10.2789,10.2789,10.2789,10.2789,10.2789,0.0,0.0,0.0,0.0,0.0,0.0,0.0,0.0,0.0,0.0,0.0,0.0,0.0,0.0,0.0,0.0,0.0,0.0,0.0,5.0906,5.2663,5.5556,5.4342,5.4888,5.7629,6.008,6.4375,7.0631,7.598,8.0152,8.3029,7.5879,6.9907,6.495,5.91,5.5669,5.4264,5.3366,5.2897,5.2624,0.0,0.0,0.0,0.0,0.0,0.0,0.0,0.0,0.0,0.0,0.0,0.0,0.0,0.0,0.0,5.2858,5.2624,5.3639,5.5083,5.706,5.9235,6.1465,0.0,6.2818,0.0,0.0,0.0,0.0,0.0,0.0,0.0,6.8859,0.0,8.7173,0.0,0.0,0.0,0.0,0.0,0.0,0.0,0.0,0.0,0.0,0.0,0.0,0.0,0.0,11.3798,11.2314,11.0987,10.9894,10.9308,10.8684,10.802,10.7786,10.8098,10.8996,10.7395,10.6614,10.6302,10.478,10.3999,10.3804,10.3101,10.2789,10.2789,10.2789,10.2789,10.2789,10.2789,10.2789,10.2789,10.2789,10.2789,10.2789,0.0,0.0,0.0,0.0,0.0,0.0,0.0,0.0,0.0,0.0,0.0,0.0,0.0,0.0,0.0,0.0,0.0,0.0,0.0,5.0906,5.1882,5.2936,5.5114,5.8983,6.4622,6.4262,6.7375,7.4246,8.014,8.4004,8.5722,8.0335,7.4251,6.7585,6.2349,5.8246,5.5162,5.4264,5.3448,5.2702,5.2624,0.0,0.0,0.0,0.0,0.0,0.0,0.0,0.0,0.0,0.0,0.0,0.0,0.0,5.5205,5.4112,5.4424,5.5829,5.9074,6.067,6.1647,6.2662,0.0,0.0,0.0,0.0,0.0,0.0,0.0,0.0,0.0,7.7531,8.5807,9.2287,10.0485,0.0,0.0,0.0,0.0,0.0,0.0,0.0,0.0,0.0,0.0,0.0,0.0,0.0,11.2119,11.1104,10.9894,10.8215,10.8098,10.8098,10.802,10.72,10.72,10.8098,10.7083,10.6302,10.5482,10.4506,10.3687,10.2906,10.2789,10.2789,10.2789,10.2789,10.2789,10.2789,10.2789,10.2789,10.2789,10.2789,10.2789,10.2789,0.0,0.0,0.0,0.0,0.0,0.0,0.0,0.0,0.0,0.0,0.0,0.0,0.0,0.0,0.0,0.0,0.0,0.0,0.0,5.0594,5.2507,5.5009,5.6055,5.9178,6.4648,6.9137,7.5378,8.338,8.7205,8.8064,8.5917,7.8071,7.1597,6.6258,6.0553,5.7309,5.6059,5.5162,5.4615,5.4225,5.3132,5.2819,0.0,0.0,0.0,0.0,0.0,0.0,0.0,0.0,5.2624,5.3366,5.2624,5.3717,5.5005,5.3596,5.3791,5.4888,5.6727,5.9035,6.1377,6.333,0.0,0.0,0.0,0.0,0.0,0.0,0.0,0.0,0.0,0.0,9.1546,9.7597,0.0,0.0,0.0,0.0,0.0,0.0,0.0,0.0,0.0,0.0,0.0,0.0,0.0,0.0,11.1885,11.0011,10.8684,10.802,10.7512,10.6888,10.6419,10.6614,10.6614,10.6419,10.5482,10.5209,10.5404,10.3882,10.3413,10.3608,10.2984,10.2789,10.2789,10.2789,10.2789,10.2789,10.2789,10.2789,10.2789,10.2789,10.2789,10.2789,0.0,0.0,0.0,0.0,0.0,0.0,0.0,0.0,0.0,0.0,0.0,0.0,0.0,0.0,0.0,0.0,0.0,0.0,4.8794,5.0438,5.2585,5.5244,5.6181,5.9261,6.4955,7.2651,8.0029,8.7049,9.0992,9.0016,8.4323,7.6477,7.0626,6.6492,6.1061,5.8753,5.8948,5.7504,5.6445,5.5591,5.4108,5.3717,0.0,0.0,0.0,0.0,0.0,0.0,0.0,0.0,5.2429,5.3127,5.2741,5.3873,5.5123,5.4216,5.4337,5.4884,5.5201,5.7001,5.9421,0.0,0.0,0.0,0.0,0.0,0.0,0.0,0.0,0.0,0.0,0.0,0.0,0.0,0.0,0.0,0.0,0.0,0.0,0.0,0.0,0.0,0.0,0.0,0.0,0.0,0.0,0.0,0.0,10.8918,10.759,10.681,10.6497,10.5912,10.5014,10.5599,10.5599,10.5014,10.4116,10.4116,10.4897,10.3491,10.3101,10.3687,10.3101,10.2789,10.2789,10.2789,10.2789,10.2789,10.2789,10.2789,10.2789,10.2789,10.2789,10.2789,0.0,0.0,0.0,0.0,0.0,0.0,0.0,0.0,0.0,0.0,0.0,0.0,0.0,0.0,0.0,0.0,0.0,0.0,4.8794,5.0438,5.1765,5.2663,5.5205,5.9733,6.6522,7.4306,8.0002,8.3561,9.0367,8.9313,8.0849,7.656,7.27,6.9152,6.493,6.3486,6.4111,6.1486,5.8944,5.6567,5.5669,5.4771,5.3916,0.0,0.0,0.0,0.0,0.0,0.0,0.0,5.2117,5.1843,5.4459,5.5318,5.5478,5.6333,5.6606,5.645,5.5552,5.5313,5.5977,0.0,0.0,0.0,0.0,0.0,0.0,0.0,0.0,0.0,0.0,0.0,0.0,0.0,0.0,0.0,0.0,0.0,0.0,0.0,0.0,0.0,0.0,0.0,0.0,0.0,0.0,0.0,0.0,10.802,10.681,10.4194,10.4897,10.5014,10.4116,10.4116,10.4116,10.4116,10.3218,10.3218,10.4116,10.3218,10.2789,10.2789,10.2789,10.2789,10.2789,10.2789,10.2789,10.2789,10.2789,10.2789,10.2789,10.2789,10.2789,10.2789,0.0,0.0,0.0,0.0,0.0,0.0,0.0,0.0,0.0,0.0,0.0,0.0,0.0,0.0,0.0,0.0,0.0,0.0,4.8755,4.9848,5.0867,5.1765,5.4307,5.6337,5.7781,6.5965,7.5801,8.7159,8.7362,8.338,7.5527,7.2417,6.8791,6.4921,6.5418,6.4481,6.2379,6.0974,5.9612,5.8168,5.6138,5.5513,5.5591,0.0,0.0,0.0,0.0,0.0,0.0,0.0,0.0,0.0,5.3249,5.5123,5.6762,5.524,5.6489,5.7894,5.5864,5.7504,0.0,0.0,0.0,0.0,0.0,0.0,0.0,0.0,0.0,0.0,0.0,0.0,0.0,0.0,0.0,0.0,0.0,0.0,0.0,0.0,0.0,0.0,0.0,0.0,0.0,0.0,0.0,0.0,0.0,10.6302,10.4897,10.4116,10.4389,10.4116,10.3218,10.3218,10.2906,10.2281,10.1383,10.1813,10.3218,10.2906,10.2789,10.2789,10.2789,10.2789,10.2789,10.2789,10.2789,10.2789,10.2789,10.2789,10.2789,10.2789,10.2789,10.2789,0.0,0.0,0.0,0.0,0.0,0.0,0.0,0.0,0.0,0.0,4.63,4.63,0.0,0.0,0.0,0.0,0.0,0.0,0.0,4.9813,5.0633,5.1843,5.3448,5.5322,5.7547,6.4643,7.2015,7.9483,8.0302,7.7453,7.124,7.1719,7.0548,6.8195,7.1123,7.0147,6.6204,6.4648,6.2306,5.946,5.7582,5.7113,5.7348,0.0,0.0,0.0,0.0,0.0,0.0,0.0,0.0,0.0,5.2585,5.4108,5.5626,5.4762,5.5977,5.7391,5.6528,5.8948,0.0,0.0,0.0,0.0,0.0,0.0,0.0,0.0,0.0,0.0,0.0,0.0,0.0,0.0,0.0,0.0,0.0,0.0,0.0,0.0,0.0,0.0,0.0,0.0,0.0,0.0,0.0,0.0,0.0,10.5014,10.3882,10.3608,10.3608,10.3218,10.2281,10.2281,10.1891,10.0993,10.0485,10.0798,10.1813,10.1813,10.2203,10.2789,10.2789,10.2593,10.2281,10.2711,10.2593,10.2281,10.2711,10.2789,10.2789,10.2789,10.2789,10.2789,0.0,0.0,4.2864,4.3564,0.0,0.0,0.0,0.0,0.0,0.0,4.63,4.63,0.0,0.0,0.0,0.0,0.0,0.0,0.0,4.9969,5.0789,5.2624,5.3014,5.6181,6.2623,6.7195,6.798,6.4813,7.0709,7.149,6.7625,7.29,7.5389,7.5606,7.9098,7.7776,7.2768,6.9923,6.5394,6.0085,5.93,5.8948,5.8714,5.7074,0.0,0.0,0.0,0.0,0.0,0.0,0.0,0.0,5.2429,5.2819,5.3244,5.4723,5.5352,5.5907,5.7582,0.0,0.0,7.0792,7.7068,0.0,0.0,0.0,0.0,0.0,0.0,0.0,0.0,0.0,0.0,0.0,0.0,0.0,0.0,0.0,0.0,0.0,0.0,0.0,0.0,0.0,0.0,0.0,0.0,0.0,0.0,10.3882,10.3491,10.2593,10.2593,10.2203,10.1383,10.1305,10.0915,0.0,10.0095,10.0095,10.0212,10.029,10.111,10.2593,10.2593,10.2203,10.15,10.2281,10.2203,10.1618,10.2515,10.2789,10.2789,10.2789,10.2711,10.2711,0.0,0.0,4.427,4.3798,0.0,0.0,0.0,0.0,0.0,0.0,0.0,0.0,0.0,0.0,0.0,0.0,0.0,0.0,0.0,4.9072,5.0165,5.2585,5.5279,5.805,6.0895,6.071,6.0206,5.9464,6.4189,6.5321,6.3208,6.9064,7.2143,7.2977,7.6425,7.5059,6.9933,6.5312,6.1412,5.8324,5.8163,5.769,5.7026,5.5977,5.4927,0.0,0.0,0.0,0.0,0.0,0.0,0.0,5.2429,5.3639,5.4693,5.4381,5.5708,5.7621,5.9382,6.1764,0.0,0.0,8.6002,9.6379,10.2117,0.0,0.0,0.0,0.0,0.0,0.0,0.0,0.0,0.0,0.0,0.0,0.0,0.0,0.0,0.0,0.0,0.0,0.0,0.0,0.0,0.0,0.0,0.0,10.3101,10.2398,10.1696,10.0915,10.0798,10.0681,10.0603,9.9861,9.9431,0.0,9.8572,9.8612,9.9314,9.9978,10.0485,10.0915,10.15,10.1305,10.0603,10.1383,10.1696,10.1618,10.2515,10.2789,10.2789,10.2789,10.2398,10.1813,0.0,0.0,0.0,0.0,0.0,0.0,0.0,0.0,0.0,0.0,0.0,0.0,0.0,0.0,0.0,0.0,0.0,0.0,0.0,0.0,5.0161,5.321,5.6211,5.7656,5.7338,5.7265,5.6411,5.4736,5.743,5.9773,6.1846,6.7893,7.2021,7.4538,7.7199,7.5254,6.9751,6.5394,6.1803,5.9026,5.8592,5.8163,5.7651,5.6406,5.4849,5.321,5.1882,0.0,0.0,0.0,0.0,0.0,0.0,0.0,5.3526,5.3877,5.524,5.7231,6.0202,0.0,0.0,8.3302,0.0,10.2195,10.5279,10.7083,10.7708,10.6302,0.0,0.0,0.0,0.0,0.0,0.0,0.0,0.0,0.0,0.0,0.0,0.0,0.0,0.0,0.0,0.0,0.0,0.0,0.0,10.3101,10.2203,10.1383,10.0681,10.029,10.029,10.0095,9.9666,9.9236,9.8807,9.8377,9.7909,9.7948,9.8416,9.9705,10.0095,9.9705,10.0603,10.0485,9.9744,10.0603,10.0681,10.0407,10.1305,10.1618,10.1618,10.1618,10.1305,10.0915,0.0,0.0,0.0,0.0,0.0,0.0,0.0,0.0,0.0,0.0,0.0,0.0,0.0,0.0,0.0,0.0,0.0,0.0,0.0,0.0,0.0,5.4064,5.6406,5.6753,5.4914,5.5855,5.4962,5.2078,5.2624,5.6025,6.2041,6.7776,7.2768,7.6926,7.7908,7.5417,7.0201,6.6024,6.2505,5.9694,5.9104,5.8792,5.8514,5.6957,5.4927,5.278,5.1765,5.1414,5.1414,5.1414,0.0,0.0,0.0,0.0,5.196,5.3721,5.4732,5.6255,6.0514,0.0,7.7368,9.157,9.9658,0.0,10.6302,10.681,10.7083,10.7708,10.8488,10.8684,0.0,0.0,0.0,0.0,0.0,0.0,0.0,0.0,0.0,0.0,0.0,0.0,0.0,0.0,0.0,0.0,0.0,10.2086,10.111,10.0407,10.0017,9.9861,9.9861,9.9509,9.8768,9.8768,9.8416,9.7714,9.7714,9.7714,9.7753,9.9197,9.947,9.8807,9.9705,9.9588,9.8846,9.9705,9.9666,9.908,9.9978,10.029,10.029,10.029,10.0212,10.0095,0.0,0.0,0.0,0.0,0.0,0.0,0.0,0.0,0.0,0.0,4.63,4.63,0.0,0.0,0.0,0.0,0.0,0.0,4.7865,0.0,0.0,5.5009,5.6177,5.727,5.8402,5.6489,5.5244,5.4775,5.4151,0.0,0.0,0.0,0.0,7.5885,7.3894,7.1753,6.9113,6.1881,5.8168,5.7153,5.7734,5.7577,5.684,5.5868,5.4775,5.3604,5.196,5.1414,5.1414,5.1414,5.1414,0.0,0.0,0.0,5.2858,5.4619,5.5201,5.6255,6.0549,0.0,8.4076,0.0,9.9658,10.4615,0.0,0.0,10.759,0.0,10.759,10.8293,10.8918,10.9699,0.0,0.0,0.0,0.0,0.0,0.0,0.0,0.0,0.0,0.0,0.0,0.0,0.0,0.0,10.1696,10.0993,9.9431,9.9236,9.8846,9.8065,9.8065,9.7987,9.787,9.787,9.7831,9.7714,9.7714,9.7714,9.7714,9.7948,9.7987,9.7909,9.8807,9.869,9.7948,9.8807,9.9119,9.908,9.9978,10.029,10.029,10.029,9.9822,9.9158,0.0,0.0,0.0,0.0,0.0,0.0,0.0,0.0,0.0,0.0,0.0,4.63,0.0,0.0,0.0,4.63,4.63,4.6651,4.7553,4.9072,5.0906,5.3014,5.3483,5.4264,5.5474,5.4424,5.3604,5.3093,0.0,0.0,0.0,6.8552,7.2177,0.0,0.0,6.9137,6.7507,6.071,5.7582,5.727,5.7187,5.6914,5.6489,5.563,5.4771,5.3916,5.3132,5.2858,0.0,0.0,5.2858,5.2936,5.3331,0.0,0.0,0.0,5.5669,5.7933,6.657,7.5384,8.4427,0.0,9.997,10.3999,10.6185,10.7395,10.7786,10.6888,10.7005,10.7083,10.6497,10.7512,10.7903,10.6614,0.0,0.0,0.0,0.0,0.0,0.0,0.0,0.0,0.0,0.0,0.0,0.0,10.0407,9.9783,9.9041,9.8533,9.8104,9.7714,9.7714,9.7714,9.7714,9.7714,9.7714,9.7714,9.7714,9.7714,9.7714,9.7714,9.7714,9.7714,9.8104,9.8065,9.7714,9.8104,9.826,9.8299,9.869,9.8846,9.8846,9.8846,9.8612,9.826,0.0,0.0,0.0,0.0,0.0,0.0,0.0,0.0,0.0,0.0,0.0,0.0,0.0,0.0,0.0,0.0,4.63,4.6651,4.7553,4.8174,4.9189,5.0672,5.0945,5.1375,5.2038,5.2273,5.2038,5.1414,0.0,0.0,6.7195,6.9796,7.3654,0.0,7.2801,0.0,0.0,0.0,0.0,0.0,5.7465,5.6606,5.6567,5.6098,5.5279,5.4342,5.4576,0.0,0.0,0.0,0.0,0.0,0.0,5.4654,0.0,0.0,0.0,5.8792,0.0,0.0,8.146,9.1577,9.7479,10.1618,0.0,0.0,10.6614,0.0,10.638,10.5912,10.4389,10.5287,10.5912,10.4311,10.4819,10.5287,10.5092,0.0,0.0,0.0,0.0,0.0,0.0,0.0,0.0,0.0,9.9353,9.8885,9.869,9.8065,9.7714,9.7714,9.7714,9.7714,9.7714,9.7479,9.7362,9.7362,9.7167,9.7167,9.7362,9.7362,9.7479,9.7714,9.7714,9.7714,9.7714,9.7714,9.7714,9.7714,9.7714,9.7714,9.7714,9.7714,9.7714,9.7714,0.0,0.0,0.0,0.0,0.0,0.0,0.0,0.0,0.0,0.0,0.0,0.0,4.63,4.63,4.63,4.63,4.63,4.6651,4.7553,4.7631,4.806,4.8919,4.9735,0.0,5.0243,5.1023,5.1453,0.0,0.0,0.0,6.8093,7.0727,7.6809,8.5293,7.9287,7.4804,7.1334,0.0,0.0,0.0,5.8909,5.6606,5.6684,5.7387,0.0,0.0,0.0,0.0,0.0,0.0,0.0,0.0,0.0,0.0,0.0,0.0,0.0,0.0,0.0,6.8552,7.5417,8.2482,8.9906,9.6582,0.0,0.0,10.3491,10.5092,10.5482,10.5209,10.4311,10.4819,10.5209,10.4194,10.4819,10.5092,10.4311,10.4194,10.3882,0.0,0.0,0.0,0.0,0.0,0.0,0.0,9.9041,9.8651,9.7792,9.7714,9.7714,9.7714,9.7714,9.7714,9.7714,9.6894,9.6464,9.6464,9.5645,9.5684,9.6464,9.6464,9.6933,9.7714,9.7714,9.7714,9.7714,9.7714,9.7714,9.7714,9.7714,9.7714,9.7714,9.7714,9.7714,9.7714,0.0,0.0,0.0,0.0,0.0,0.0,0.0,0.0,0.0,0.0,0.0,0.0,0.0,4.63,4.63,4.63,4.63,4.6417,4.6768,4.6768,4.7357,4.8724,4.9114,4.9774,5.0906,5.1258,5.1414,0.0,0.0,5.8601,6.6566,7.0252,7.5287,8.0953,7.6594,7.4569,7.3822,6.4476,0.0,0.0,5.8675,5.7387,5.7465,0.0,0.0,0.0,0.0,0.0,0.0,0.0,0.0,0.0,0.0,0.0,0.0,0.0,0.0,5.766,0.0,6.6058,7.0275,7.8233,8.5221,9.1155,9.4864,9.8963,10.2086,10.2789,10.2906,10.2789,10.2515,10.3101,10.3608,10.3296,10.2593,10.2203,10.2398,10.2008,10.15,10.1188,0.0,0.0,0.0,0.0,0.0,0.0,0.0,9.8026,9.7714,9.7167,9.6855,9.6855,9.6855,9.6855,9.6855,9.5996,9.5567,9.5567,9.5801,9.6113,9.6425,9.6972,9.7401,9.7714,9.7714,9.7714,9.7714,9.7714,9.7714,9.7714,9.7714,9.7714,9.7714,9.7714,9.7714,9.7714,0.0,0.0,0.0,0.0,0.0,0.0,0.0,0.0,0.0,4.63,0.0,0.0,0.0,0.0,4.7159,4.7159,4.6885,4.6846,4.712,4.712,4.7631,4.8763,4.9075,4.9774,5.0945,5.1258,5.1414,0.0,0.0,0.0,0.0,6.8502,7.3335,7.8611,7.3738,7.3627,0.0,0.0,0.0,6.3564,6.0397,5.9104,5.9339,0.0,0.0,0.0,0.0,0.0,0.0,0.0,0.0,0.0,0.0,0.0,0.0,0.0,0.0,0.0,6.0866,0.0,6.6336,7.496,7.9678,8.4011,9.0921,9.4708,9.7323,9.9353,10.029,10.0681,10.0681,10.0915,10.1305,10.1891,10.0993,10.0407,10.0603,10.0485,9.9978,9.9119,9.9509,0.0,0.0,0.0,0.0,0.0,0.0,0.0,9.7245,9.6425,9.5957,9.5957,9.5957,9.5957,9.5957,9.5098,9.4669,9.4669,9.4942,9.5254,9.5567,9.6113,9.6699,9.7245,9.7245,9.744,9.7714,9.7714,9.7714,9.7714,9.7714,9.7714,9.7714,9.7714,9.7909,9.8143,0.0,0.0,0.0,0.0,0.0,0.0,0.0,0.0,4.63,4.6339,0.0,0.0,0.0,0.0,0.0,4.8876,4.8174,4.8021,4.8763,4.8802,4.8802,4.8841,4.9657,5.0126,5.0126,5.0984,5.1414,5.1414,0.0,0.0,0.0,0.0,7.1167,7.8969,7.154,7.2372,7.9187,0.0,7.352,7.0128,0.0,6.1803,6.2423,0.0,0.0,0.0,6.8245,6.6214,0.0,0.0,0.0,0.0,0.0,0.0,0.0,0.0,0.0,0.0,0.0,0.0,0.0,7.1948,7.2924,7.5345,8.8774,8.9398,8.8852,9.4903,9.7518,9.8768,9.8924,9.826,9.826,9.9939,10.0212,9.9861,9.908,9.9666,9.9236,9.6699,9.7909,9.826,0.0,0.0,0.0,0.0,9.6855,9.6347,9.6347,9.5527,9.5059,9.5059,9.502,9.502,9.5059,9.42,9.3771,9.3732,9.2912,9.299,9.381,9.3849,9.4747,9.6347,9.6386,9.6894,9.7675,9.7675,9.7714,9.7714,9.7714,9.7714,9.7714,9.7714,9.8221,9.8963,0.0,0.0,0.0,0.0,0.0,0.0,4.63,4.63,4.6534,0.0,0.0,0.0,4.8408,4.9774,5.0676,5.0676,5.0481,4.9895,4.8876,4.8798,4.9072,4.9696,4.9969,5.0399,5.1023,5.1297,5.1414,5.1414,5.2507,5.4892,5.8445,6.1607,6.5707,7.0387,7.0771,7.105,7.0987,6.5892,0.0,0.0,6.3867,6.4692,0.0,0.0,0.0,0.0,0.0,6.8903,6.8205,0.0,6.6253,6.3282,0.0,0.0,0.0,0.0,0.0,0.0,5.6645,0.0,0.0,0.0,0.0,0.0,7.4642,7.8429,8.2606,8.8657,9.0765,9.2873,9.7245,9.787,9.787,9.8338,9.7362,9.6894,9.7909,9.7714,9.7206,9.6503,9.6816,9.6699,9.5567,0.0,0.0,0.0,9.5606,9.5449,9.5449,9.463,9.4161,9.4161,9.3537,9.3537,9.4161,9.3302,9.2873,9.2873,9.3263,9.3576,9.381,9.4434,9.4981,9.5488,9.6113,9.6542,9.6816,9.744,9.7714,9.7714,9.7714,9.7714,9.7714,9.7714,9.7831,9.8143,0.0,0.0,4.6417,4.6768,4.712,4.7354,4.7354,4.7666,4.7939,0.0,0.0,0.0,5.0789,5.2819,5.3799,5.3096,5.2358,5.1496,5.0477,5.0087,5.0126,5.0633,5.0633,5.1063,5.1921,5.1609,5.1765,5.2468,5.2624,5.3838,5.6103,5.8484,6.1217,6.4184,6.5507,6.5824,0.0,0.0,0.0,0.0,6.7141,0.0,0.0,7.2573,7.4128,0.0,0.0,0.0,7.433,7.3627,7.0119,0.0,0.0,0.0,0.0,0.0,0.0,0.0,0.0,0.0,0.0,0.0,0.0,0.0,6.9879,7.2612,7.6008,8.2801,8.5456,8.7954,9.2561,9.4005,9.4591,9.4981,9.4161,9.4356,9.6816,9.7011,9.6542,9.5449,9.5957,9.5918,9.4669,9.4903,9.5098,9.5098,9.4747,9.4395,9.4044,9.3537,9.3263,9.3263,9.2756,9.2756,9.3263,9.2756,9.2482,9.2522,9.3029,9.3263,9.3263,9.3771,9.42,9.4591,9.5098,9.5723,9.6425,9.6933,9.7362,9.7714,9.7714,9.7714,9.7714,9.7714,9.7948,9.8299,0.0,0.0,4.6612,4.7588,4.8408,4.8993,4.9189,4.9813,5.0087,0.0,5.0438,5.2117,5.4849,5.7074,5.7699,5.602,5.4346,5.3214,5.2741,5.196,5.1492,5.1414,5.1492,5.1921,5.2663,5.2038,5.2468,5.3994,5.321,5.3678,5.5322,5.6098,5.7738,5.9929,5.8363,5.9026,6.1217,0.0,0.0,6.5155,7.1585,7.4285,0.0,0.0,8.2495,0.0,8.4486,8.3113,8.0374,7.8266,7.3197,0.0,0.0,0.0,0.0,0.0,5.9729,0.0,0.0,0.0,0.0,0.0,0.0,0.0,7.0074,6.9762,6.9879,7.7062,8.042,8.3035,8.6119,8.8266,8.9711,9.0218,9.0921,9.2561,9.5801,9.6855,9.6386,9.4083,9.5176,9.5449,9.381,9.4356,9.4825,9.4825,9.4083,9.3302,9.2522,9.2482,9.2482,9.2482,9.2482,9.2482,9.2482,9.2482,9.2482,9.2482,9.2482,9.2482,9.2482,9.2482,9.2912,9.3654,9.3849,9.4825,9.6269,9.6464,9.7011,9.7714,9.7714,9.7714,9.7714,9.7714,9.8182,9.8885,4.63,4.63,4.6768,4.8291,4.9267,5.0321,5.1726,5.1492,5.1843,5.3795,5.5981,5.8597,6.1915,6.2115,6.1295,5.9573,5.8441,5.6376,5.2936,5.2546,5.2117,5.1414,5.2078,5.2546,5.2702,5.321,5.3678,5.3994,5.3834,5.4259,5.5318,5.5474,5.6177,5.7348,5.6996,5.7465,5.8753,0.0,0.0,6.6605,7.0074,0.0,8.1506,8.1304,8.3809,8.729,8.6236,8.6308,8.6269,0.0,7.7497,7.2935,0.0,0.0,0.0,0.0,0.0,0.0,0.0,0.0,0.0,0.0,0.0,0.0,6.3438,6.457,6.7107,7.066,7.2378,7.5032,8.1122,8.4792,8.6236,8.4362,8.8657,9.299,9.5059,9.4903,9.4356,9.3849,9.4083,9.3888,9.2834,9.2912,9.299,9.299,9.2834,9.2678,9.2522,9.2482,9.2482,9.2482,9.2482,9.2482,9.2482,9.2482,9.2482,9.2482,9.2482,9.2482,9.2482,9.2482,9.26,9.2834,9.4239,9.502,9.5449,9.6855,9.7558,9.7714,9.7714,9.7714,9.7714,9.7714,9.7792,9.8143,4.6378,4.6651,4.7627,4.9735,5.0828,5.2117,5.4303,5.4966,5.5864,5.7621,6.1213,6.3594,6.3633,6.4023,6.3086,6.0037,5.8597,5.6762,5.4186,5.36,5.3132,5.2702,5.3132,5.3756,5.4615,5.422,5.4615,5.5903,5.5044,5.5079,5.5942,5.5942,5.6177,0.0,5.7035,5.7426,5.8011,0.0,6.3086,6.4955,7.3169,0.0,8.3685,8.5442,8.8259,9.1116,9.0257,9.0484,9.0016,8.1812,7.8461,0.0,0.0,6.6478,6.6321,0.0,6.2657,6.2067,0.0,0.0,0.0,6.2149,0.0,0.0,0.0,6.2657,6.3555,6.7888,6.8396,6.984,7.5462,7.8272,7.999,8.0849,8.4245,8.7837,9.0843,9.3107,9.4122,9.3263,9.3146,9.2834,9.1975,9.1507,9.1428,9.1858,9.1897,9.2092,9.2482,9.2482,9.2326,9.1897,9.2287,9.2326,9.1897,9.2287,9.2482,9.2482,9.2482,9.2482,9.2482,9.2482,9.2482,9.2561,9.3419,9.4317,9.5176,9.6035,9.6933,9.7714,9.7714,9.7714,9.7714,9.7714,9.7714,9.7831,4.6456,4.6885,4.8135,5.0711,5.1999,5.3639,5.6411,5.7972,5.9456,6.1174,6.5155,6.7107,6.5194,6.5658,6.4916,6.2067,5.9222,5.7426,5.7074,5.5435,5.4342,5.399,5.4147,5.4927,5.6333,5.5157,5.5509,5.7582,5.6216,5.5903,5.6606,5.6606,5.6606,0.0,0.0,0.0,0.0,0.0,0.0,6.5228,0.0,8.1753,8.1929,8.7986,9.1226,9.2717,9.3888,9.42,9.2553,8.2866,0.0,7.9053,7.124,6.9907,0.0,0.0,0.0,0.0,0.0,0.0,0.0,0.0,0.0,6.3828,0.0,0.0,0.0,6.5975,6.5741,6.5936,6.9801,7.148,7.3275,7.6242,0.0,0.0,0.0,8.8891,0.0,9.135,9.1116,9.0882,9.057,8.932,8.9164,9.0687,9.0179,9.0374,9.1702,9.1936,9.178,9.1311,9.1936,9.2014,9.1546,9.217,9.2482,9.2482,9.2482,9.2482,9.2482,9.2326,9.2365,9.2482,9.2482,9.3497,9.5098,9.5293,9.6269,9.7714,9.7714,9.7714,9.7714,9.7714,9.7714,9.7753,4.6456,4.6378,4.7237,4.9813,5.1609,5.3834,5.7153,5.7816,5.9651,6.4379,6.6131,6.8279,0.0,0.0,0.0,0.0,0.0,0.0,6.3169,0.0,5.563,5.4064,5.4728,5.524,5.543,5.6016,5.6445,5.6723,5.6567,5.6489,5.6606,5.6606,5.6606,0.0,5.7426,0.0,0.0,0.0,6.6722,0.0,7.8952,7.8005,0.0,8.3256,8.7283,8.8845,9.42,9.5606,9.4278,0.0,8.6086,8.2232,0.0,7.4591,7.2795,0.0,0.0,0.0,0.0,0.0,0.0,0.0,7.0972,0.0,0.0,0.0,6.4414,6.2774,0.0,6.2774,6.4804,0.0,0.0,0.0,0.0,0.0,7.4095,7.8194,8.2801,8.6392,8.6158,8.6236,8.772,8.5026,8.4792,8.8696,8.6119,8.5768,8.8969,8.9867,9.0609,9.1272,9.1389,9.1741,9.2365,9.2443,9.2482,9.2482,9.2482,9.2482,9.2482,9.1741,9.1819,9.2482,9.2482,9.3497,9.5176,9.5918,9.6816,9.7714,9.7714,9.7714,9.7714,9.7714,9.7714,9.7909,4.6378,4.6729,4.7861,5.0399,5.1453,5.3288,5.7192,6.1213,6.4926,6.8127,7.0582,0.0,0.0,0.0,0.0,0.0,0.0,6.5106,0.0,0.0,5.8246,5.6996,5.6372,5.6528,5.7465,5.6914,5.6836,5.7309,5.684,5.6606,5.6606,5.6606,5.684,0.0,5.8168,0.0,6.2735,0.0,6.6371,0.0,0.0,0.0,0.0,8.6008,9.1552,9.2202,9.4747,9.5723,9.4942,0.0,8.6783,0.0,0.0,0.0,0.0,0.0,0.0,0.0,0.0,0.0,0.0,0.0,0.0,0.0,6.7264,0.0,6.3477,0.0,0.0,0.0,0.0,0.0,0.0,0.0,6.8474,0.0,7.1245,7.3119,7.6242,8.1044,0.0,0.0,8.202,8.1356,8.1747,0.0,8.2879,8.3347,8.6275,8.8227,8.9398,8.9789,9.0765,9.1233,9.1038,9.2014,9.2482,9.2482,9.2482,9.2482,9.2482,9.2131,9.217,9.2482,9.2014,9.3068,9.5098,9.4942,9.5996,9.7714,9.7714,9.7714,9.7714,9.7714,9.7714,9.7792,4.6612,0.0,0.0,5.0321,5.1063,5.2858,5.7153,6.2462,0.0,0.0,0.0,0.0,7.7179,7.5813,0.0,0.0,0.0,7.0408,0.0,0.0,6.1607,0.0,0.0,0.0,0.0,5.7543,5.7113,5.7465,5.6879,5.6723,5.6918,5.6684,5.7153,0.0,0.0,6.2306,6.5468,0.0,6.8981,7.0894,7.5104,7.6659,7.7628,8.8513,9.3667,9.5098,9.5098,9.5332,9.4747,8.865,8.7525,0.0,8.2996,0.0,0.0,0.0,0.0,0.0,7.4798,0.0,0.0,0.0,0.0,0.0,0.0,0.0,0.0,0.0,0.0,0.0,0.0,0.0,0.0,0.0,0.0,6.7576,6.8786,6.8942,7.0777,0.0,0.0,0.0,0.0,7.7531,7.7882,0.0,0.0,7.9209,8.3191,8.5182,8.6861,8.8305,8.9555,9.0257,9.0374,9.1546,9.2287,9.2482,9.2482,9.2482,9.2482,9.2287,9.2287,9.2443,9.1663,9.2756,9.5059,9.4434,9.5567,9.7714,9.7714,9.7714,9.7714,9.7714,9.7714,9.7714,4.7393,4.7588,0.0,0.0,0.0,5.2858,5.7153,0.0,0.0,0.0,0.0,0.0,0.0,0.0,0.0,0.0,0.0,7.893,7.801,0.0,6.5629,0.0,0.0,5.8631,0.0,0.0,5.7387,5.6645,5.6606,5.6996,5.7734,5.6957,5.7465,0.0,6.2613,6.5574,6.8234,7.245,7.7603,8.3074,8.4927,8.9144,9.3693,0.0,9.0016,9.5098,9.5098,0.0,0.0,9.1734,9.0016,0.0,0.0,0.0,0.0,0.0,0.0,0.0,0.0,0.0,0.0,7.5384,0.0,0.0,0.0,0.0,6.9723,0.0,0.0,0.0,0.0,0.0,0.0,0.0,0.0,0.0,0.0,6.4492,6.6092,7.0426,0.0,0.0,0.0,7.3393,7.2378,0.0,7.1324,0.0,7.9444,7.9951,8.2293,8.729,8.7486,8.8735,9.1233,9.1311,9.1741,9.2482,9.2482,9.2482,9.2482,9.1702,9.1741,9.2443,9.1663,9.2756,9.5098,9.5059,9.6113,9.7714,9.7714,9.7714,9.7714,9.7714,9.7714,9.7831,4.7666,0.0,0.0,0.0,0.0,0.0,0.0,6.028,0.0,0.0,0.0,0.0,0.0,0.0,9.0008,0.0,0.0,8.662,8.2879,7.7263,0.0,0.0,0.0,6.3277,0.0,0.0,0.0,0.0,0.0,0.0,0.0,0.0,0.0,0.0,0.0,6.6907,0.0,0.0,0.0,0.0,0.0,8.9203,9.4825,0.0,0.0,9.4239,9.4239,9.4044,0.0,9.3146,9.1819,9.0335,8.975,8.7564,8.4987,8.3855,8.4323,0.0,0.0,0.0,8.7759,8.0263,0.0,0.0,0.0,0.0,0.0,0.0,0.0,0.0,0.0,0.0,0.0,0.0,0.0,0.0,0.0,6.293,6.375,6.6873,0.0,0.0,0.0,0.0,0.0,0.0,6.9098,0.0,0.0,7.7843,8.1044,8.3933,8.6236,8.8383,9.0413,9.0999,9.1702,9.2482,9.2482,9.2482,9.2482,9.2209,9.2248,9.2443,9.1663,9.2756,9.5059,9.4473,9.5606,9.7714,9.7714,9.7714,9.7714,9.7714,9.7714,9.7909,4.8642,0.0,0.0,0.0,0.0,0.0,0.0,0.0,0.0,0.0,8.023,0.0,9.4168,0.0,9.6332,0.0,9.6964,9.3178,8.619,8.3191,0.0,7.472,7.1128,0.0,0.0,0.0,0.0,0.0,0.0,6.0159,0.0,0.0,0.0,0.0,0.0,6.839,7.2015,7.8104,8.1187,0.0,0.0,9.0211,0.0,0.0,9.3927,9.4591,0.0,9.3732,9.4161,9.3537,9.2834,9.2092,9.1507,8.9555,8.7212,8.5768,8.6158,8.6705,8.5299,8.7564,0.0,8.3699,8.2332,0.0,7.4408,0.0,0.0,0.0,0.0,0.0,0.0,0.0,0.0,6.8474,6.6951,6.5194,0.0,6.2032,0.0,0.0,6.5975,6.6795,0.0,0.0,0.0,0.0,0.0,0.0,0.0,0.0,7.8468,8.1747,8.487,8.7603,8.9984,9.057,9.1389,9.2482,9.2482,9.2482,9.2482,9.2482,9.2482,9.2482,9.2287,9.3302,9.5098,9.4825,9.5918,9.7714,9.7714,9.7714,9.7714,9.7714,9.7714,9.7948,5.036,0.0,0.0,0.0,5.3795,0.0,0.0,0.0,7.3252,0.0,8.3536,8.9813,9.5091,9.7979,10.0087,10.161,10.2593,0.0,8.8735,8.9516,0.0,0.0,7.6008,7.4759,7.1402,0.0,0.0,0.0,0.0,0.0,0.0,0.0,0.0,0.0,6.6327,0.0,7.3744,8.1552,8.6392,8.9047,9.1507,9.2561,9.2639,9.2514,9.4161,9.6113,9.3497,9.3615,9.4747,9.3146,9.3107,9.3458,9.1897,9.0804,8.9906,8.9008,8.8774,8.8657,8.7759,8.8266,8.8383,8.5768,0.0,0.0,0.0,0.0,8.2723,0.0,0.0,0.0,0.0,0.0,0.0,7.0894,6.8357,6.5468,6.2149,0.0,6.172,0.0,6.3906,6.5429,6.5429,6.4726,0.0,0.0,0.0,6.3047,0.0,0.0,7.472,8.0576,8.3386,8.6471,8.9984,8.9984,9.0843,9.2482,9.2482,9.2482,9.2482,9.2482,9.2482,9.2561,9.3419,9.4278,9.5176,9.6035,9.6894,9.7714,9.7714,9.7714,9.7714,9.7753,9.7753,9.8026,5.1375,5.2624,5.4186,0.0,5.5322,5.6844,0.0,0.0,0.0,0.0,8.9228,9.5824,10.2898,10.5513,10.6294,10.5404,10.6185,0.0,0.0,0.0,0.0,8.9047,8.5377,8.245,8.0341,7.5032,0.0,7.0309,0.0,0.0,6.4219,6.2032,6.1291,0.0,0.0,7.1519,7.2924,8.1942,8.7642,9.0726,9.2014,9.3263,0.0,0.0,9.4512,9.7011,9.4395,9.3341,9.3302,9.4161,9.3732,9.2873,9.3107,9.2131,9.0804,8.9906,9.014,9.0452,8.9555,9.135,9.2834,9.0257,8.9125,8.7642,0.0,0.0,0.0,0.0,0.0,0.0,0.0,0.0,0.0,0.0,6.6053,0.0,0.0,0.0,0.0,6.2579,0.0,0.0,6.2696,6.3672,0.0,0.0,0.0,0.0,0.0,0.0,0.0,7.7062,8.2137,8.6471,8.9984,8.9984,9.0843,9.2482,9.2482,9.2482,9.2482,9.2482,9.2482,9.2561,9.3419,9.4278,9.5176,9.6035,9.6894,9.7714,9.7714,9.7714,9.7792,9.8416,9.869,9.8924,5.3288,0.0,0.0,5.7668,0.0,0.0,6.5833,0.0,0.0,8.481,9.1913,0.0,10.282,10.7114,10.9308,10.841,10.8488,0.0,0.0,0.0,0.0,9.4005,9.1389,8.8696,8.5885,8.0185,0.0,7.3315,0.0,0.0,6.4414,6.2579,6.172,6.1954,6.8122,7.1285,7.2651,8.2489,8.8461,9.1389,9.217,0.0,0.0,9.3458,9.4512,9.6386,9.4903,9.4552,9.4747,9.4591,9.4122,9.3576,9.3302,9.2561,9.1741,9.1233,9.1428,9.1702,9.1233,9.2795,9.42,9.2756,9.2326,9.1311,8.7876,8.7837,8.7759,0.0,0.0,0.0,0.0,0.0,0.0,0.0,0.0,0.0,0.0,0.0,0.0,0.0,6.2345,0.0,0.0,0.0,0.0,0.0,0.0,0.0,0.0,0.0,0.0,7.5735,8.1278,8.608,8.9945,9.0374,9.1233,9.2482,9.2482,9.2482,9.2482,9.2482,9.2482,9.2561,9.381,9.4669,9.5215,9.6464,9.7245,9.7714,9.7714,9.7714,9.7831,9.9119,9.9314,9.9197,0.0,0.0,0.0,0.0,0.0,0.0,0.0,7.556,0.0,8.6808,0.0,9.9367,10.0392,10.651,11.0518,11.0518,0.0,10.759,10.2711,10.3687,10.1618,9.5254,9.5371,9.381,8.9945,8.4987,0.0,0.0,0.0,0.0,6.3321,6.2228,6.172,6.1915,6.699,7.0582,7.3471,8.2996,8.8501,9.0882,9.217,9.3068,9.3654,9.3888,9.4356,9.4942,9.5176,9.6113,9.6855,9.4552,9.4239,9.4473,9.299,9.2482,9.2482,9.2482,9.2482,9.2522,9.2639,9.3302,9.3966,9.3966,9.463,9.4434,9.1233,9.0492,9.0257,8.9398,8.5963,8.3699,0.0,0.0,0.0,0.0,0.0,0.0,0.0,0.0,0.0,0.0,0.0,0.0,0.0,0.0,0.0,0.0,0.0,0.0,0.0,0.0,0.0,7.5345,8.0576,8.5495,8.9945,0.0,9.1741,9.2678,9.2561,9.2482,9.2482,9.26,9.26,9.26,9.4473,9.5215,9.5254,9.6972,9.7714,9.7714,9.7714,9.7714,9.787,9.9392,9.9627,9.9314,0.0,0.0,0.0,0.0,0.0,7.401,8.1146,8.6495,9.135,9.5826,10.3109,10.7977,10.841,11.0901,11.2002,11.0596,11.0987,0.0,0.0,0.0,0.0,10.1383,9.9353,9.7636,9.6152,8.7681,8.245,0.0,0.0,0.0,6.5077,6.2774,6.172,6.1876,6.6327,7.1675,7.7648,8.2996,0.0,8.8383,9.2092,9.3224,9.2873,9.4317,9.4512,9.4239,9.5645,9.5449,9.4395,9.3966,9.3419,9.2912,9.26,9.2482,9.2482,9.2482,9.2482,9.2678,9.338,9.42,9.4864,9.4864,9.5527,9.5645,9.3615,9.3146,9.2873,9.2014,8.9555,8.6822,8.4401,0.0,0.0,0.0,0.0,0.0,0.0,0.0,0.0,0.0,0.0,6.3711,0.0,0.0,0.0,0.0,0.0,0.0,0.0,0.0,0.0,0.0,7.9444,0.0,0.0,0.0,9.2053,9.3576,9.2834,9.2482,9.2522,9.3224,9.3185,9.2639,9.5098,9.5762,9.5254,9.6972,9.7714,9.7714,9.7714,9.7714,9.7753,9.8026,9.8963,10.029,0.0,0.0,0.0,0.0,0.0,0.0,0.0,9.5386,0.0,9.7896,10.2009,10.5101,10.5399,10.9594,11.2211,11.1507,11.139,11.0689,10.9013,10.7299,10.5399,10.34,10.0787,0.0,9.7714,8.9711,8.4011,8.0966,0.0,0.0,0.0,6.2501,6.172,6.1876,6.5702,7.1011,0.0,0.0,0.0,8.7134,9.1897,9.381,9.4005,9.5293,9.5801,9.5879,9.6269,9.5879,9.5098,9.463,9.3888,9.3107,9.2639,9.2482,9.2482,9.2482,9.2482,9.26,9.299,9.4083,9.4864,9.3966,9.5098,9.584,9.3615,9.3497,9.3537,9.2678,9.0843,8.7915,8.3074,7.6633,0.0,0.0,0.0,0.0,0.0,0.0,0.0,0.0,0.0,0.0,0.0,0.0,0.0,0.0,0.0,0.0,0.0,0.0,0.0,0.0,0.0,0.0,0.0,0.0,0.0,9.3107,9.2717,9.2287,9.1936,9.3224,9.3302,9.2639,9.5254,9.6152,9.5879,9.7167,9.7714,9.7714,9.7714,9.7714,9.7792,9.8729,9.9275,9.9822,0.0,6.7971,0.0,0.0,8.1293,0.0,9.3559,10.1402,10.5015,10.019,10.1383,10.2904,10.3073,10.8384,11.2108,11.2311,11.1689,11.0796,10.9786,10.7494,10.5505,10.4014,10.1288,9.9303,9.8187,9.1397,8.5278,0.0,0.0,0.0,0.0,6.211,0.0,0.0,0.0,0.0,0.0,0.0,8.3777,8.6588,9.1936,9.4395,9.4942,9.6191,9.6855,9.7128,9.6777,9.6425,9.6035,9.5567,9.4669,9.3693,9.299,9.2639,9.2482,9.2482,9.2482,9.2522,9.2717,9.3771,9.4473,9.3107,9.4317,9.5254,9.299,9.3029,9.3341,9.2639,9.1155,8.8266,8.2567,7.8429,0.0,0.0,0.0,0.0,0.0,0.0,0.0,0.0,0.0,0.0,6.1954,0.0,0.0,0.0,0.0,0.0,6.1759,0.0,0.0,0.0,0.0,8.1278,8.7798,0.0,9.1507,9.2482,9.2482,9.217,9.1624,9.3302,9.3693,9.3185,9.5606,9.6699,9.6738,9.7401,9.7714,9.7714,9.7714,9.7714,9.7909,9.9431,9.9705,9.9392,0.0,0.0,0.0,0.0,0.0,0.0,0.0,10.2711,10.7713,10.8129,10.9709,11.0906,11.1183,11.1808,11.2285,11.2311,11.2194,11.1495,10.9786,10.8115,10.6289,10.4604,10.1301,9.958,9.9693,9.2951,8.6607,0.0,0.0,0.0,0.0,0.0,0.0,0.0,0.0,0.0,0.0,7.9795,8.3777,8.6627,9.2561,9.4552,9.42,9.6621,9.666,9.5527,9.705,9.6542,9.5332,9.6035,9.5176,9.381,9.3693,9.3146,9.2482,9.2482,9.2482,9.2678,9.3458,9.381,9.3888,9.3732,9.3849,9.3771,9.2756,9.2561,9.26,9.2522,9.1155,8.8618,8.4089,8.1708,7.8585,0.0,0.0,0.0,0.0,0.0,0.0,6.7185,0.0,0.0,0.0,6.3204,0.0,0.0,6.1798,0.0,0.0,0.0,0.0,6.8513,0.0,7.9795,8.5104,8.8461,9.0921,9.2482,9.2482,9.2443,9.2443,9.42,9.4942,9.4942,9.6777,9.7597,9.7597,9.7675,9.7714,9.7714,9.7714,9.7714,9.7831,9.8768,9.9588,10.029,0.0,0.0,0.0,0.0,0.0,0.0,0.0,10.4785,10.7975,10.8898,11.0594,11.1714,11.1791,11.1809,11.1802,11.1802,11.1802,11.1107,10.929,10.7706,10.5995,10.4393,10.1603,9.9914,9.9658,9.4932,8.9329,0.0,0.0,0.0,0.0,0.0,0.0,0.0,0.0,7.027,7.511,8.0185,8.4362,8.811,9.3107,9.5215,9.5527,9.7089,9.7284,9.6738,9.744,9.7245,9.6699,9.705,9.6035,9.4473,9.3966,9.3576,9.3185,9.2639,9.2482,9.2561,9.2912,9.3419,9.3654,9.3146,9.381,9.42,9.2834,9.2912,9.3146,9.26,9.1585,8.9789,8.6431,8.3621,8.1161,0.0,0.0,0.0,0.0,0.0,0.0,0.0,0.0,6.5116,0.0,0.0,0.0,0.0,0.0,0.0,0.0,0.0,0.0,6.8005,0.0,7.7804,8.4011,8.7486,9.0335,9.2482,9.2482,9.2482,9.2561,9.4317,9.5684,9.6699,9.7401,9.7714,9.7714,9.7714,9.7714,9.7714,9.7714,9.7714,9.7792,9.869,9.9548,10.0407,8.4704,0.0,8.7427,0.0,9.5252,9.7749,10.3401,10.6207,10.809,10.909,11.0402,11.1214,11.1522,11.1522,11.1522,11.1522,11.1291,11.0483,10.8983,10.729,10.5678,10.4199,10.192,0.0,9.941,9.6281,9.1611,8.531,8.1109,0.0,0.0,0.0,0.0,0.0,6.9879,7.3197,7.7648,8.2215,8.6236,8.9828,9.3849,9.584,9.6503,9.7362,9.7714,9.7714,9.7714,9.7714,9.7714,9.7714,9.6894,9.5684,9.4552,9.4005,9.3615,9.2756,9.2482,9.2561,9.2795,9.3341,9.3654,9.3029,9.381,9.4317,9.2834,9.299,9.3224,9.2639,9.2053,9.0921,8.8618,8.5963,8.3855,8.2918,0.0,0.0,0.0,0.0,0.0,0.0,6.6678,6.414,6.1915,6.172,0.0,0.0,0.0,0.0,0.0,0.0,0.0,0.0,0.0,0.0,0.0,8.6978,8.9984,9.2482,9.2756,9.3029,9.3302,9.5059,9.6542,9.7714,9.7714,9.7714,9.7714,9.7714,9.7714,9.7714,9.7714,9.7714,9.7792,9.869,9.9392,10.0017,8.8996,9.122,9.3716,9.7981,10.1481,10.4098,10.4903,10.6597,10.829,10.9979,11.0209,11.0479,11.1406,11.1522,11.1522,11.1522,11.0714,10.979,10.8983,10.729,10.5713,0.0,0.0,10.0591,9.9143,9.6598,9.2882,8.795,0.0,0.0,7.2577,0.0,7.055,7.3315,7.5852,7.8468,8.1278,8.6431,8.9633,9.1585,9.502,9.6386,9.6503,9.7362,9.7714,9.7714,9.7714,9.7714,9.7714,9.7714,9.7675,9.7362,9.5645,9.4473,9.3615,9.2756,9.2482,9.2678,9.3537,9.381,9.381,9.381,9.381,9.3576,9.2717,9.2522,9.2522,9.2482,9.2482,9.1975,9.0296,8.9242,8.6978,8.1864,0.0,0.0,0.0,0.0,0.0,0.0,6.7303,6.5429,6.2032,6.172,0.0,0.0,0.0,0.0,0.0,0.0,0.0,6.8005,7.308,0.0,8.3465,8.6978,8.9984,9.2522,9.338,9.4239,9.5137,9.6855,9.7675,9.7714,9.7714,9.7714,9.7714,9.7714,9.7714,9.7714,9.7714,9.7714,9.7792,9.869,9.9002,9.9158,9.3868,9.5635,9.7596,10.0096,10.2405,10.4175,10.498,10.6597,10.8098,10.921,10.9825,11.0479,11.1406,11.1522,11.1522,0.0,11.0714,10.979,0.0,10.729,10.5713,10.3982,10.2789,10.1212,9.8934,9.8125,9.5499,9.1084,0.0,0.0,0.0,7.4379,7.4636,7.6867,7.8858,8.1864,8.5573,8.9008,9.1819,9.4044,9.5723,9.6777,9.7323,9.7597,9.7714,9.7714,9.7714,9.7714,9.7714,9.7714,9.7714,9.7518,9.6347,9.5801,9.541,9.4512,9.3849,9.3576,9.4434,9.4239,9.381,9.381,9.381,9.3732,9.3458,9.338,9.3224,9.26,9.2482,9.1975,9.0296,8.9281,8.7564,8.4167,8.3074,0.0,0.0,0.0,0.0,0.0,6.5429,6.3555,0.0,6.172,0.0,0.0,0.0,0.0,0.0,0.0,0.0,0.0,7.4251,0.0,8.3465,8.7564,9.0882,9.338,9.3654,9.4552,9.6035,9.7167,9.7714,9.7714,9.7714,9.7714,9.7714,9.7714,9.7714,9.7714,9.7714,9.7714,9.7714,9.8026,9.8494,9.9041,9.6557,9.7865,9.9211,10.0596,10.252,10.4097,10.4595,10.6097,10.7482,10.8287,10.8902,10.9671,11.0906,11.0714,0.0,11.0983,10.9906,10.8983,10.8482,10.7213,10.5713,10.3982,10.3405,10.1712,9.8865,0.0,0.0,9.3441,9.008,8.6165,8.1797,7.9845,7.9939,8.1864,8.3582,8.5885,8.8579,9.1507,9.3654,9.5215,9.6425,9.7206,9.7714,9.7714,9.7714,9.7714,9.7714,9.7714,9.7714,9.7714,9.7714,9.7597,9.705,9.6894,9.666,9.5449,9.4708,9.4473,9.5332,9.5176,9.4786,9.4786,9.4786,9.463,9.3966,9.381,9.3537,9.2678,9.2482,9.1975,9.0296,8.9281,8.7837,8.5221,8.3113,8.0576,7.7101,0.0,0.0,0.0,0.0,0.0,0.0,6.3243,6.3438,0.0,0.0,0.0,0.0,0.0,0.0,7.0426,7.6594,0.0,8.5416,8.9086,9.2053,9.4317,9.4942,9.584,9.6894,9.744,9.7714,9.7714,9.7714,9.7714,9.7714,9.7714,9.7714,9.7714,9.7714,9.7714,9.7714,9.7714,9.8026,9.8494,9.7479,9.8289,0.0,0.0,10.2326,0.0,10.4016,10.5403,10.6713,10.76,10.7713,10.8287,10.9906,10.929,10.9098,10.9983,0.0,0.0,0.0,10.6905,10.5713,10.3982,10.3905,10.2289,9.8942,9.8827,9.7557,9.498,9.0381,8.8209,8.8282,8.5992,8.5866,8.7698,8.9352,9.0094,9.0367,9.3771,9.5176,9.5332,9.7011,9.7714,9.7714,9.7714,9.7714,9.7714,9.7714,9.7714,9.7714,9.7714,9.7714,9.7714,9.7714,9.7714,9.7362,9.5762,9.5254,9.5371,9.6269,9.6464,9.6386,9.6386,9.6386,9.5957,9.4278,9.3849,9.3576,9.2756,9.2443,9.1858,9.0296,8.9242,8.7759,8.5143,8.2528,7.96,7.6125,0.0,0.0,0.0,0.0,0.0,0.0,6.5936,6.5897,0.0,0.0,0.0,0.0,0.0,7.0426,7.4564,7.9795,8.4558,8.8735,9.1311,9.3458,9.5215,9.6894,9.7714,9.7714,9.7714,9.7714,9.7714,9.7714,9.7714,9.7714,9.7714,9.7714,9.7714,9.7714,9.7714,9.7714,9.7714,9.7714,9.7714,0.0,0.0,10.0211,10.2328,10.329,10.4174,10.548,10.6097,10.6713,10.76,10.7716,10.8098,10.9098,10.8482,10.8098,10.829,10.7905,10.7713,10.7713,10.6905,10.5713,10.3982,10.3905,10.2597,9.9827,9.9135,9.7557,9.498,9.32,9.2087,9.1604,8.91,8.8606,8.9873,9.0443,9.108,9.1859,9.484,9.6074,9.6191,9.7284,9.7714,9.7714,9.7714,9.7714,9.7714,9.7714,9.7714,9.7714,9.7714,9.7714,9.7714,9.7714,9.7714,9.7636,9.7206,9.6621,9.6269,9.7167,9.6894,9.6386,9.6386,9.6386,9.6113,9.5059,9.4278,9.3732,9.3537,9.1936,9.0452,9.0062,8.8735,8.6861,8.4245,8.1122,7.7804,7.4369,7.0738,0.0,0.0,6.6288,6.6249,6.7107,6.6951,6.7381,0.0,0.0,0.0,0.0,7.2026,7.4095,7.6399,8.2137,8.6666,8.9672,9.2209,9.4356,9.6113,9.7167,9.7714,9.7714,9.7714,9.7714,9.7714,9.7714,9.7714,9.7714,9.7714,9.7714,9.7714,9.7714,9.7714,9.7714,9.7714,9.7714,9.7792,9.9355,9.9696,10.031,10.2078,10.3076,10.4001,10.4977,10.5864,10.6479,10.701,10.7014,10.7283,10.8206,10.751,10.7087,10.7713,10.729,10.7098,10.7098,10.629,10.5213,10.3982,10.3482,10.2097,9.9558,9.9019,9.775,9.5595,9.481,9.428,9.3891,9.2251,9.1757,9.2321,9.2443,9.277,9.3333,9.5368,9.6196,9.6285,9.7308,9.7714,9.7714,9.7714,9.7714,9.7714,9.7714,9.7714,9.7714,9.7714,9.7714,9.7714,9.7714,9.7714,9.7714,9.7714,9.7362,9.7089,9.7558,9.7362,9.6972,9.6972,9.6972,9.666,9.5371,9.4434,9.3576,9.2834,9.1546,9.0335,8.9555,8.7993,8.5846,8.284,7.9131,7.5579,7.2534,6.945,0.0,6.8513,6.8239,6.8786,7.0816,7.1324,7.1285,7.0738,7.1167,0.0,7.1987,7.5501,7.7921,7.8858,8.3972,8.7954,9.057,9.3107,9.5254,9.7011,9.7479,9.7714,9.7714,9.7714,9.7714,9.7714,9.7714,9.7714,9.7714,9.7714,9.7714,9.7714,9.7714,9.7714,9.7714,9.7714,9.7714,9.7753,9.9526,9.9831,10.0222,10.1338,10.2714,10.3696,10.4013,10.5323,10.6276,10.5985,10.6106,10.6496,10.7192,10.6567,10.6496,10.7399,10.6902,10.6518,10.6405,10.5597,10.4713,10.3905,10.3097,10.1481,9.9058,9.875,9.7865,9.6288,9.5754,9.5455,9.5417,9.4783,9.4496,9.4496,9.4506,9.4529,9.4629,9.5707,9.6164,9.6219,9.7221,9.7659,9.7659,9.7667,9.7714,9.7714,9.7714,9.7714,9.7714,9.7714,9.7714,9.7714,9.7714,9.7714,9.7714,9.7714,9.7714,9.7714,9.7714,9.7714,9.7714,9.7714,9.7714,9.7323,9.584,9.4708,9.3576,9.217,9.1467,9.0648,8.9164,8.7134,8.4636,8.1356,7.714,7.3432,7.0855,0.0,6.8122,7.0582,7.0582,7.1597,7.4798,7.632,7.5735,7.2495,7.5813,7.6711,7.3705,7.8429,8.1435,8.1942,8.5612,8.8969,9.1858,9.4161,9.6113,9.7714,9.7714,9.7714,9.7714,9.7714,9.7714,9.7714,9.7714,9.7714,9.7714,9.7714,9.7714,9.7714,9.7714,9.7714,9.7714,9.7714,9.7714,9.7714,10.006,10.0489,10.0986,10.2608,10.3191,10.3593,10.44,10.541,10.5801,10.5096,10.5633,10.6093,10.6177,10.679,10.6905,10.6298,10.6797,10.6885,10.6405,10.5597,10.4713,10.3905,10.3097,10.1789,9.9942,9.8442,9.725,9.6288,9.6171,9.613,9.613,9.5277,9.4926,9.4887,9.506,9.5138,9.5244,9.6377,9.6815,9.6875,9.7232,9.7383,9.7396,9.7611,9.7714,9.7714,9.7714,9.7714,9.7714,9.7714,9.7714,9.7714,9.7714,9.7714,9.7714,9.7714,9.7714,9.7714,9.7714,9.7714,9.7714,9.7714,9.7714,9.7636,9.7362,9.6035,9.4825,9.4552,9.2209,9.0101,8.9867,8.6588,8.3035,8.0341,7.6281,7.2573,6.9957,0.0,6.9684,7.1558,7.3588,7.5579,7.7609,7.7375,7.7726,7.9287,7.7414,7.7531,8.0537,8.1591,8.3426,8.6314,8.7759,9.0413,9.4473,9.5645,9.6699,9.7714,9.7714,9.7714,9.7714,9.7714,9.7714,9.7714,9.7714,9.7714,9.7714,9.7714,9.7714,9.7714,9.7714,9.7714,9.7714,9.7714,9.7714,9.7792,9.9717,10.0298,10.0871,10.1797,10.2318,10.2982,10.3902,10.4797,10.5438,10.5409,10.5686,10.5886,10.5894,10.6184,10.6307,10.6023,10.6323,10.6361,10.6194,10.5012,10.4208,10.3785,10.2595,10.1096,9.9442,9.7711,9.6673,9.6288,9.6288,9.6288,9.6288,9.5903,9.5711,9.5672,9.5812,9.5842,9.5875,9.6522,9.6786,9.6812,9.703,9.7221,9.7316,9.746,9.7554,9.7714,9.7714,9.7714,9.7714,9.7714,9.7714,9.7714,9.7714,9.7714,9.7714,9.7714,9.7714,9.7714,9.7714,9.7714,9.7714,9.7714,9.7714,9.7597,9.7128,9.5996,9.4825,9.3888,9.2092,9.0413,8.9477,8.6119,8.2801,8.0732,7.6008,0.0,0.0,7.0387,7.1089,7.3744,7.5891,7.8233,8.0888,8.0771,8.0888,8.163,8.0615,8.0654,8.2215,8.3582,8.5495,8.8032,9.0296,9.2639,9.5098,9.5957,9.6855,9.7714,9.7714,9.7714,9.7714,9.7714,9.7714,9.7714,9.7714,9.7714,9.7714,9.7714,9.7714,9.7714,9.7714,9.7714,9.7714,9.7714,9.7714,9.7753,9.9526,10.0298,10.0871,10.0986,10.1894,10.28,10.3296,10.431,10.5123,10.5495,10.5706,10.5907,10.5907,10.5887,10.6012,10.6016,10.6077,10.6077,10.6023,10.462,10.3702,10.3702,10.1826,10.0096,9.8827,9.7173,9.6288,9.6288,9.6288,9.6288,9.6288,9.6288,9.6288,9.6288,9.6288,9.6288,9.6288,9.6487,9.6506,9.6537,9.6812,9.6988,9.7147,9.7221,9.7383,9.7602,9.7602,9.7659,9.7714,9.7714,9.7714,9.7714,9.7714,9.7714,9.7714,9.7714,9.7714,9.7714,9.7714,9.7714,9.7714,9.7714,9.7714,9.7518,9.6855,9.6191,9.5254,9.3732,9.26,9.135,8.9633,8.6275,8.3035,8.0771,0.0,0.0,0.0,7.1948,7.3002,7.6047,7.7921,8.0185,8.3191,8.3504,8.3426,8.3191,8.3777,8.3933,8.3504,8.5729,8.7876,8.9828,9.2639,9.4512,9.5371,9.6269,9.705,9.7714,9.7714,9.7714,9.7714,9.7714,9.7714,9.7714,9.7714,9.7714,9.7714,9.7714,9.7714,9.7714,9.7714,9.7714,9.7714,9.7714,9.7714,9.7714,10.0375,10.1177,10.1797,10.1797,10.3182,10.4023,10.3296,10.4605,10.5418,10.4605,10.5227,10.5686,10.5686,10.6412,10.6575,10.5992,10.6605,10.669,10.6023,10.462,10.3702,10.3702,10.0711,9.8942,9.8788,9.7173,9.6288,9.6288,9.6288,9.6288,9.6288,9.6288,9.6288,9.6288,9.6288,9.6288,9.6288,9.6325,9.6325,9.6322,9.6576,9.6648,9.6676,9.6936,9.7168,9.7316,9.7316,9.7483,9.7714,9.7714,9.7714,9.7714,9.7714,9.7714,9.7714,9.7714,9.7714,9.7714,9.7714,9.7714,9.7714,9.7714,9.7714,9.7675,9.7636,9.7558,9.7245,9.6308,9.4786,9.3107,9.1428,8.7603,8.3347,7.9248,0.0,0.0,7.2339,7.3978,7.6125,7.7999,7.9756,8.1513,8.3308,8.3504,8.4167,8.569,8.5885,8.6236,8.6978,8.8735,9.0843,9.3341,9.4434,9.541,9.6308,9.7167,9.7636,9.7714,9.7714,9.7714,9.7714,9.7714,9.7714,9.7714,9.7714,9.7714,9.7714,9.7714,9.7714,9.7714,9.7714,9.7714,9.7714,9.7714,9.7714,9.7714,9.9793,10.0489,10.11,10.11,10.2132,10.2925,10.322,10.4223,10.4987,10.5178,10.5533,10.5724,10.5724,10.6412,10.6564,10.5773,10.6509,10.6394,10.5103,10.41,10.2892,10.1479,9.975,9.8557,9.8019,9.6865,9.6288,9.6288,9.6288,9.6288,9.6288,9.6288,9.6288,9.6288,9.6288,9.6288,9.6288,9.6288,9.6288,9.6288,9.6355,9.6481,9.659,9.6704,9.6897,9.7091,9.7091,9.7255,9.746,9.746,9.7554,9.7714,9.7714,9.7714,9.7714,9.7714,9.7714,9.7714,9.7714,9.7714,9.7714,9.7714,9.7714,9.7714,9.7714,9.7714,9.744,9.6582,9.5449,9.4083,9.2365,8.8969,8.569,8.3543,0.0,7.7453,7.757,7.796,7.8858,8.0615,8.2332,8.3816,8.4987,8.5104,8.5612,8.6822,8.7407,8.7876,8.8188,9.0335,9.2482,9.4552,9.5449,9.6074,9.6386,9.7245,9.7714,9.7714,9.7714,9.7714,9.7714,9.7714,9.7714,9.7714,9.7714,9.7714,9.7714,9.7714,9.7714,9.7714,9.7714,9.7714,9.7714,9.7714,9.7714,9.7714,9.9755,10.068,10.1338,10.11,10.2199,10.322,10.3487,10.4338,10.4987,10.5609,10.5724,10.5724,10.5724,10.6412,10.6564,10.5811,10.6499,10.6318,10.4559,10.3595,10.2274,10.0596,9.9673,9.8788,9.7942,9.7096,9.6557,9.6288,9.6288,9.6288,9.6288,9.6288,9.6288,9.6288,9.6288,9.6288,9.6288,9.6288,9.6288,9.6288,9.6288,9.6355,9.6513,9.6513,9.6687,9.6926,9.7198,9.7242,9.726,9.7598,9.7838,9.7992,9.8096,9.8104,9.8065,9.7792,9.7909,9.8065,9.7753,9.7909,9.8026,9.7753,9.7714,9.7714,9.7714,9.7714,9.7518,9.6933,9.6113,9.4981,9.3224,9.057,8.7993,8.6002,8.2957,8.1044,8.1708,8.1747,8.2254,8.3738,8.4675,8.5534,8.6431,8.6275,8.6705,8.811,8.8774,8.9477,9.0257,9.1702,9.3419,9.5449,9.6074,9.6542,9.6816,9.7401,9.7714,9.7714,9.7714,9.7714,9.7714,9.7714,9.7714,9.7714,9.7714,9.7714,9.7714,9.7714,9.7714,9.7714,9.7714,9.7714,9.7714,9.7714,9.7714,9.7714,10.0604,10.1988,10.2914,10.1988,10.3966,10.5418,10.4529,10.5102,10.5724,10.5724,10.5724,10.5724,10.5724,10.6412,10.6575,10.5992,10.6605,10.6384,10.4911,10.3186,10.1891,10.1327,10.0481,9.9673,9.8827,9.7942,9.7134,9.6326,9.6326,9.6326,9.6288,9.6288,9.6288,9.6288,9.6288,9.6288,9.6288,9.6288,9.6288,9.6288,9.6288,9.6288,9.6288,9.6326,9.6425,9.6744,9.7595,9.7522,9.7182,9.8251,9.8626,9.8655,9.889,9.9002,9.8846,9.7948,9.8338,9.8807,9.7948,9.8338,9.8807,9.7909,9.7714,9.7714,9.7714,9.7714,9.7714,9.7714,9.7011,9.5879,9.4122,9.2443,8.9906,8.5573,8.5573,8.5534,8.3777,8.5026,8.6431,8.7329,8.6666,8.6471,8.7329,8.6627,8.7212,8.9789,9.0023,9.1116,9.3654,9.299,9.3693,9.6308,9.6425,9.6816,9.7675,9.7714,9.7714,9.7714,9.7714,9.7714,9.7714,9.7714,9.7714,9.7714,9.7714,9.7714,9.7714,9.7714,9.7714,9.7714,9.7714,9.7714,9.7714,9.7714,9.7714,9.7714,10.0604,10.0986,10.1292,10.0996,10.2609,10.3918,10.3612,10.4807,10.5724,10.5724,10.5724,10.5724,10.5724,10.6412,10.6564,10.5811,10.6002,10.5171,10.3014,10.1788,10.123,10.1208,10.0401,9.9595,9.8827,9.8557,9.798,9.7134,9.7134,9.6865,9.6288,9.6288,9.6288,9.6288,9.6288,9.6288,9.6288,9.6288,9.6288,9.6288,9.6288,9.6288,9.6365,9.6942,9.7169,9.7354,9.824,9.8483,9.8514,9.8828,9.9095,9.9152,9.8836,9.926,9.9627,9.8143,9.8768,9.9705,9.8846,9.8807,9.8807,9.7909,9.7714,9.7714,9.7714,9.7714,9.7714,9.7714,9.7479,9.6972,9.584,9.4239,9.2248,8.975,8.854,8.7954,8.8032,8.7993,8.8461,8.9945,8.9359,8.893,8.9203,8.9008,8.9164,8.9945,9.057,9.1741,9.3693,9.4122,9.4942,9.6347,9.6972,9.744,9.7714,9.7714,9.7714,9.7714,9.7714,9.7714,9.7714,9.7714,9.7714,9.7714,9.7714,9.7714,9.7714,9.7714,9.7714,9.7714,9.7714,9.7714,9.7714,9.7714,9.7714,9.7714,10.0604,10.0871,10.11,10.112,10.2314,10.3268,10.3612,10.4491,10.5342,10.5724,10.5724,10.5724,10.5724,10.6412,10.6412,10.5303,10.4616,10.3632,10.2111,10.1193,10.0787,10.1004,10.0506,9.9936,9.9327,9.9288,9.8904,9.8019,9.7673,9.725,9.6788,9.6442,9.6288,9.6288,9.6288,9.6288,9.6288,9.6288,9.6288,9.6288,9.6288,9.648,9.6826,9.7326,9.7711,9.8134,9.8981,9.9168,9.9029,9.9467,9.9809,9.9941,9.96,10.0005,10.0314,9.8547,9.9367,10.0407,9.8885,9.9002,9.9236,9.7987,9.7714,9.7714,9.7714,9.7714,9.7714,9.7714,9.7714,9.744,9.6542,9.5527,9.4278,9.2561,9.1702,9.1311,9.1467,9.135,9.1624,9.2678,9.1741,9.0999,9.0999,9.0374,9.014,9.0492,9.1624,9.2873,9.4239,9.5137,9.5996,9.6894,9.744,9.7714,9.7714,9.7714,9.7714,9.7714,9.7714,9.7714,9.7714,9.7714,9.7714,9.7714,9.7714,9.7714,9.7714,9.7714,9.7714,9.7714,9.7714,9.7714,9.7714,9.7714,9.7714,9.7714,10.0604,10.1177,10.1797,10.1797,10.2532,10.3288,10.407,10.4223,10.4605,10.5418,10.5533,10.5609,10.5609,10.6297,10.6106,10.4501,10.2896,10.1903,10.1788,10.1024,10.0688,10.0787,10.0787,10.0617,10.0212,10.0212,9.9788,9.8904,9.8134,9.7673,9.7596,9.6865,9.6519,9.6519,9.6442,9.6403,9.6403,9.6326,9.6288,9.6326,9.6365,9.6865,9.7519,9.7673,9.8211,9.9019,9.9904,9.9712,9.9134,10.0221,10.0683,10.0881,10.0803,10.102,10.091,9.9117,9.9968,10.0907,9.8494,9.9041,9.99,9.8221,9.7831,9.7792,9.7714,9.7714,9.7714,9.7714,9.7714,9.744,9.666,9.6464,9.5879,9.4278,9.463,9.4864,9.4122,9.4669,9.5137,9.5215,9.3732,9.2717,9.26,9.1155,9.057,9.1467,9.2951,9.42,9.5176,9.5957,9.6816,9.7675,9.7714,9.7714,9.7714,9.7714,9.7714,9.7714,9.7714,9.7714,9.7714,9.7714,9.7714,9.7714,9.7714,9.7714,9.7714,9.7714,9.7714,9.7714,9.7714,9.7714,9.7714,9.7714,9.7714,9.7714,10.0604,10.0795,10.0871,10.0871,10.1606,10.2179,10.2409,10.3001,10.3487,10.3678,10.4338,10.472,10.472,10.5369,10.5495,10.4501,10.2896,10.1597,10.0909,10.0718,10.0688,10.0787,10.0787,10.0919,10.1016,10.0978,10.0595,9.9827,9.9635,9.9173,9.8519,9.8327,9.825,9.8211,9.7557,9.725,9.7211,9.6557,9.6288,9.6365,9.698,9.7326,9.7634,9.9019,9.9635,9.9904,10.0712,10.0904,10.0789,10.0981,10.1307,10.14,10.0703,10.1091,10.1505,9.9241,9.9849,10.0879,9.9181,9.9509,10.0017,9.8963,9.8729,9.8533,9.787,9.7714,9.7714,9.7714,9.7714,9.7636,9.744,9.6855,9.6269,9.5918,9.541,9.5254,9.5762,9.541,9.5332,9.6035,9.5176,9.4278,9.3576,9.2561,9.2326,9.3185,9.3576,9.4473,9.6035,9.6308,9.6816,9.7675,9.7714,9.7714,9.7714,9.7714,9.7714,9.7714,9.7714,9.7714,9.7714,9.7714,9.7714,9.7714,9.7714,9.7714,9.7714,9.7714,9.7714,9.7714,9.7714,9.7714,9.7714,9.7714,9.7714,9.7714,10.006,10.0298,10.0604,10.0604,10.0986,10.1415,10.1797,10.2591,10.3317,10.3699,10.4081,10.4616,10.4987,10.5112,10.4692,10.389,10.2591,10.1521,10.0718,10.0604,10.0612,10.0696,10.078,10.0913,10.1085,10.1206,10.0978,10.0712,10.0289,9.9865,9.9404,9.8981,9.8788,9.8788,9.8327,9.8134,9.8057,9.725,9.6865,9.6903,9.7326,9.7519,9.7673,9.9442,10.0096,10.0212,10.1019,10.1289,10.1212,10.0904,10.1094,10.1392,10.0505,10.0999,10.1608,9.9949,10.0592,10.1408,9.9383,9.9553,10.0095,9.9236,9.869,9.826,9.7792,9.7714,9.7714,9.7714,9.7714,9.7714,9.7714,9.7323,9.7011,9.7011,9.6621,9.6347,9.6386,9.6386,9.6347,9.6386,9.5996,9.5371,9.4512,9.4005,9.3927,9.4395,9.4825,9.5449,9.6347,9.6777,9.7245,9.7675,9.7714,9.7714,9.7714,9.7714,9.7714,9.7714,9.7714,9.7714,9.7714,9.7714,9.7714,9.7714,9.7714,9.7714,9.7714,9.7714,9.7714,9.7714,9.7714,9.7714,9.7714,9.7714,9.7714,9.7714,9.9717,10.006,10.0604,10.0604,10.0604,10.0795,10.1606,10.2417,10.3182,10.3909,10.4215,10.4702,10.538,10.4692,10.389,10.3278,10.2285,10.1406,10.0909,10.0718,10.068,10.0803,10.1009,10.1105,10.1196,10.151,10.1477,10.1289,10.0596,10.0289,10.0289,9.9558,9.9211,9.9211,9.9058,9.9019,9.8942,9.7942,9.7519,9.7519,9.7519,9.7596,9.7904,9.9481,10.0173,10.0404,10.1096,10.1289,10.1212,10.0481,10.0712,10.1212,10.0481,10.0897,10.1484,10.062,10.1181,10.1699,9.9429,9.9605,10.0196,9.9228,9.8572,9.8065,9.7753,9.7714,9.7714,9.7714,9.7714,9.7714,9.7714,9.7714,9.7714,9.7714,9.7714,9.744,9.6738,9.7245,9.744,9.6699,9.6347,9.5957,9.5371,9.4903,9.4825,9.5293,9.584,9.6308,9.6621,9.7323,9.7714,9.7714,9.7714,9.7714,9.7714,9.7714,9.7714,9.7714,9.7714,9.7714,9.7714,9.7714,9.7714,9.7714,9.7714,9.7714,9.7714,9.7714,9.7714,9.7714,9.7714,9.7714,9.7714,9.7714,9.7714,9.7714,10.0489,10.0489,10.0604,10.0604,10.0604,10.0604,10.0795,10.1529,10.2094,10.2227,10.3487,10.4425,10.4588,10.3775,10.3278,10.3202,10.1712,10.1024,10.1712,10.1024,10.0994,10.1897,10.1897,10.203,10.2201,10.3011,10.2668,10.1289,10.1212,10.1096,10.1096,10.1019,10.1019,10.0904,10.0212,9.9904,9.9827,9.8173,9.7519,9.7519,9.7519,9.7942,9.8711,9.9712,10.0481,10.1212,10.1289,10.1289,10.1289,10.1212,10.1212,10.1289,10.1212,10.1212,10.121,10.0595,10.0488,10.0495,9.989,10.0395,10.071,9.9328,9.947,9.9548,9.8026,9.7714,9.7714,9.7714,9.7714,9.7714,9.7714,9.7714,9.7714,9.7714,9.7714,9.7675,9.7558,9.7636,9.7675,9.7558,9.6191,9.5527,9.6152,9.4161,9.3771,9.6035,9.5645,9.5918,9.744,9.7636,9.7714,9.7714,9.7714,9.7714,9.7714,9.7714,9.7714,9.7714,9.7714,9.7714,9.7714,9.7714,9.7714,9.7714,9.7714,9.7714,9.7714,9.7714,9.7714,9.7714,9.7714,9.7714,9.7714,9.7714,9.7714,9.7714,10.0031,10.0298,10.0604,10.0604,10.0604,10.0604,10.0604,10.1797,10.2523,10.1988,10.3411,10.4185,10.3823,10.3775,10.389,10.389,10.3202,10.2514,10.1903,10.1521,10.1606,10.2088,10.2101,10.2495,10.3088,10.3632,10.3211,10.202,10.202,10.1789,10.1289,10.1289,10.1289,10.1289,10.0904,10.0789,10.0712,9.8942,9.8519,9.8904,9.8404,9.8442,9.8942,10.0289,10.0712,10.0712,10.1096,10.1289,10.1212,10.0789,10.0904,10.1212,10.0789,10.0904,10.1212,10.0977,10.0993,10.1022,10.0418,10.0708,10.1018,10.0385,9.9895,9.9509,9.9236,9.8416,9.7714,9.7714,9.7714,9.7714,9.7714,9.7714,9.7714,9.7714,9.7714,9.7362,9.6386,9.7089,9.7714,9.7714,9.7011,9.6699,9.7089,9.6074,9.5879,9.705,9.6308,9.6386,9.7636,9.7245,9.7206,9.7675,9.7714,9.7714,9.7714,9.7714,9.7714,9.7714,9.7714,9.7714,9.7714,9.7714,9.7714,9.7714,9.7714,9.7714,9.7714,9.7714,9.7714,9.7714,9.7714,9.7714,9.7714,9.7714,9.7714,9.7714]},{"header":{"parameterUnit":"m.s-1","parameterCategory":1,"la1":30.6,"la2":28.766,"lo1":-90.7593,"lo2":-88.6598,"dy":0.0162,"dx":0.0183,"nx":116,"ny":114,"refTime":"2024-03-08T06:00:00:Z","depth":0,"parameterNumber":3,"parameterNumberName":"V-component_of_WINDS"},"data":[0.0,0.0,0.0,0.0,0.0,0.0,0.0,0.0,0.0,0.0,0.0,0.0,0.0,0.0,0.0,0.0,0.0,0.0,0.0,0.0,0.0,0.0,0.0,0.0,0.0,0.0,0.0,0.0,0.0,0.0,0.0,0.0,0.0,0.0,0.0,0.0,0.0,0.0,0.0,0.0,0.0,0.0,0.0,0.0,0.0,0.0,0.0,0.0,0.0,0.0,0.0,0.0,0.0,0.0,0.0,0.0,0.0,0.0,0.0,0.0,0.0,0.0,0.0,0.0,0.0,0.0,0.0,0.0,0.0,0.0,0.0,0.0,0.0,0.0,0.0,0.0,0.0,0.0,0.0,0.0,0.0,0.0,0.0,0.0,0.0,0.0,0.0,0.0,0.0,0.0,0.0,0.0,0.0,0.0,0.0,0.0,0.0,0.0,0.0,0.0,0.0,0.0,0.0,0.0,0.0,0.0,0.0,0.0,0.0,0.0,0.0,0.0,0.0,0.0,0.0,0.0,0.0,0.0,0.0,0.0,0.0,0.0,0.0,0.0,0.0,0.0,0.0,0.0,0.0,0.0,0.0,0.0,0.0,0.0,0.0,0.0,0.0,0.0,0.0,0.0,0.0,0.0,0.0,0.0,0.0,0.0,0.0,0.0,0.0,0.0,0.0,0.0,0.0,0.0,0.0,0.0,0.0,0.0,0.0,0.0,0.0,0.0,0.0,0.0,0.0,0.0,0.0,0.0,0.0,0.0,0.0,0.0,0.0,0.0,0.0,0.0,0.0,0.0,0.0,0.0,0.0,0.0,0.0,0.0,0.0,0.0,0.0,0.0,0.0,0.0,0.0,0.0,0.0,0.0,0.0,0.0,0.0,0.0,0.0,0.0,0.0,0.0,0.0,0.0,0.0,0.0,0.0,0.0,0.0,0.0,0.0,0.0,0.0,0.0,0.0,0.0,0.0,0.0,0.0,0.0,0.0,0.0,0.0,0.0,0.0,0.0,0.0,0.0,0.0,0.0,0.0,0.0,0.0,0.0,0.0,0.0,0.0,0.0,0.0,0.0,0.0,0.0,0.0,0.0,0.0,0.0,0.0,0.0,0.0,0.0,0.0,0.0,0.0,0.0,0.0,0.0,0.0,0.0,0.0,0.0,0.0,0.0,0.0,0.0,0.0,0.0,0.0,0.0,0.0,0.0,0.0,0.0,0.0,0.0,0.0,0.0,0.0,0.0,0.0,0.0,0.0,0.0,0.0,0.0,0.0,0.0,0.0,0.0,0.0,0.0,0.0,0.0,0.0,0.0,0.0,0.0,0.0,0.0,0.0,0.0,0.0,0.0,0.0,0.0,0.0,0.0,0.0,0.0,0.0,0.0,0.0,0.0,0.0,0.0,0.0,0.0,0.0,0.0,0.0,0.0,0.0,0.0,0.0,0.0,0.0,0.0,0.0,0.0,0.0,0.0,0.0,0.0,0.0,0.0,0.0,0.0,0.0,0.0,0.0,0.0,0.0,0.0,0.0,0.0,0.0,0.0,0.0,0.0,0.0,0.0,0.0,0.0,0.0,0.0,0.0,0.0,0.0,0.0,0.0,0.0,0.0,0.0,0.0,0.0,0.0,0.0,0.0,0.0,0.0,0.0,0.0,0.0,0.0,0.0,0.0,0.0,0.0,0.0,0.0,0.0,0.0,0.0,0.0,0.0,0.0,0.0,0.0,0.0,0.0,0.0,0.0,0.0,0.0,0.0,0.0,0.0,0.0,0.0,0.0,0.0,0.0,0.0,0.0,0.0,0.0,0.0,0.0,0.0,0.0,0.0,0.0,0.0,0.0,0.0,0.0,0.0,0.0,0.0,0.0,0.0,0.0,0.0,0.0,0.0,0.0,0.0,0.0,0.0,0.0,0.0,0.0,0.0,0.0,0.0,0.0,0.0,0.0,0.0,0.0,0.0,0.0,0.0,0.0,0.0,0.0,0.0,0.0,0.0,0.0,0.0,0.0,0.0,0.0,0.0,0.0,0.0,0.0,0.0,0.0,0.0,0.0,0.0,0.0,0.0,0.0,0.0,0.0,0.0,0.0,0.0,0.0,0.0,0.0,0.0,0.0,0.0,0.0,0.0,0.0,0.0,0.0,0.0,0.0,0.0,0.0,0.0,0.0,0.0,0.0,0.0,0.0,0.0,0.0,0.0,0.0,0.0,0.0,0.0,0.0,0.0,0.0,0.0,0.0,0.0,0.0,0.0,0.0,0.0,0.0,0.0,0.0,0.0,0.0,0.0,0.0,0.0,0.0,0.0,0.0,0.0,0.0,0.0,0.0,0.0,0.0,0.0,0.0,0.0,0.0,0.0,0.0,0.0,0.0,0.0,0.0,0.0,0.0,0.0,0.0,0.0,0.0,0.0,0.0,0.0,0.0,0.0,0.0,0.0,0.0,0.0,0.0,0.0,0.0,0.0,0.0,0.0,0.0,0.0,0.0,0.0,0.0,0.0,0.0,0.0,0.0,0.0,0.0,0.0,0.0,0.0,0.0,0.0,0.0,0.0,0.0,0.0,0.0,0.0,0.0,0.0,0.0,0.0,0.0,0.0,0.0,0.0,0.0,0.0,0.0,0.0,0.0,0.0,0.0,0.0,0.0,0.0,0.0,0.0,0.0,0.0,0.0,0.0,0.0,0.0,0.0,0.0,0.0,0.0,0.0,0.0,0.0,0.0,0.0,0.0,0.0,0.0,0.0,0.0,0.0,0.0,0.0,0.0,0.0,0.0,0.0,0.0,0.0,0.0,0.0,0.0,0.0,0.0,0.0,0.0,0.0,0.0,0.0,0.0,0.0,0.0,0.0,0.0,0.0,0.0,0.0,0.0,0.0,0.0,0.0,0.0,0.0,0.0,0.0,0.0,0.0,0.0,0.0,0.0,0.0,0.0,0.0,0.0,0.0,0.0,0.0,0.0,0.0,0.0,0.0,0.0,0.0,0.0,0.0,0.0,0.0,0.0,0.0,0.0,0.0,0.0,0.0,0.0,0.0,0.0,0.0,0.0,0.0,0.0,0.0,0.0,0.0,0.0,0.0,0.0,0.0,0.0,0.0,0.0,0.0,0.0,0.0,0.0,0.0,0.0,0.0,0.0,0.0,0.0,0.0,0.0,0.0,0.0,0.0,0.0,0.0,0.0,0.0,0.0,0.0,0.0,0.0,0.0,0.0,0.0,0.0,0.0,0.0,0.0,0.0,0.0,0.0,0.0,0.0,0.0,0.0,0.0,0.0,0.0,0.0,0.0,0.0,0.0,0.0,0.0,0.0,0.0,0.0,0.0,0.0,0.0,0.0,0.0,0.0,0.0,0.0,0.0,0.0,0.0,0.0,0.0,0.0,0.0,0.0,0.0,0.0,0.0,0.0,0.0,0.0,0.0,0.0,0.0,0.0,0.0,0.0,0.0,0.0,0.0,0.0,0.0,0.0,0.0,0.0,0.0,0.0,0.0,0.0,0.0,0.0,0.0,0.0,0.0,0.0,0.0,0.0,0.0,0.0,0.0,0.0,0.0,0.0,0.0,0.0,0.0,0.0,0.0,0.0,0.0,0.0,0.0,0.0,0.0,0.0,0.0,0.0,0.0,0.0,0.0,0.0,0.0,0.0,0.0,0.0,0.0,0.0,0.0,0.0,0.0,0.0,0.0,0.0,0.0,0.0,0.0,0.0,0.0,0.0,0.0,0.0,0.0,0.0,0.0,0.0,0.0,0.0,0.0,0.0,0.0,0.0,0.0,0.0,0.0,0.0,0.0,0.0,0.0,0.0,0.0,0.0,0.0,0.0,0.0,0.0,0.0,0.0,0.0,0.0,0.0,0.0,0.0,0.0,0.0,0.0,0.0,0.0,0.0,0.0,0.0,0.0,0.0,0.0,0.0,0.0,0.0,0.0,0.0,0.0,0.0,0.0,0.0,0.0,0.0,0.0,0.0,0.0,0.0,0.0,0.0,0.0,0.0,0.0,0.0,0.0,0.0,0.0,0.0,0.0,0.0,0.0,0.0,0.0,0.0,0.0,0.0,0.0,0.0,0.0,0.0,0.0,0.0,0.0,0.0,0.0,0.0,0.0,0.0,0.0,0.0,0.0,0.0,0.0,0.0,0.0,0.0,0.0,0.0,0.0,0.0,0.0,0.0,0.0,0.0,0.0,0.0,0.0,0.0,0.0,0.0,0.0,0.0,0.0,0.0,0.0,0.0,0.0,0.0,0.0,0.0,0.0,0.0,0.0,0.0,0.0,0.0,0.0,0.0,0.0,0.0,0.0,0.0,0.0,0.0,0.0,0.0,0.0,0.0,0.0,0.0,0.0,0.0,0.0,0.0,0.0,0.0,0.0,0.0,0.0,0.0,0.0,0.0,0.0,0.0,0.0,0.0,0.0,0.0,0.0,0.0,0.0,0.0,0.0,0.0,0.0,0.0,0.0,0.0,0.0,0.0,0.0,0.0,0.0,0.0,0.0,0.0,0.0,0.0,0.0,0.0,0.0,0.0,0.0,0.0,0.0,0.0,0.0,0.0,0.0,0.0,0.0,0.0,0.0,0.0,0.0,0.0,0.0,0.0,0.0,0.0,0.0,0.0,0.0,0.0,0.0,0.0,0.0,0.0,0.0,0.0,0.0,0.0,0.0,0.0,0.0,0.0,0.0,0.0,0.0,0.0,0.0,0.0,0.0,0.0,0.0,0.0,0.0,0.0,0.0,0.0,0.0,0.0,0.0,0.0,0.0,0.0,0.0,0.0,0.0,0.0,0.0,0.0,0.0,0.0,0.0,0.0,0.0,0.0,0.0,0.0,0.0,0.0,0.0,0.0,0.0,0.0,0.0,0.0,0.0,0.0,0.0,0.0,0.0,0.0,0.0,0.0,0.0,0.0,0.0,0.0,0.0,0.0,0.0,0.0,0.0,0.0,0.0,0.0,0.0,0.0,0.0,0.0,0.0,0.0,0.0,0.0,0.0,0.0,0.0,0.0,0.0,0.0,0.0,0.0,0.0,0.0,0.0,0.0,0.0,0.0,0.0,0.0,0.0,0.0,0.0,0.0,0.0,0.0,0.0,0.0,0.0,0.0,0.0,0.0,0.0,0.0,0.0,0.0,0.0,0.0,0.0,0.0,0.0,0.0,0.0,0.0,0.0,0.0,0.0,0.0,0.0,0.0,0.0,0.0,0.0,0.0,0.0,0.0,0.0,0.0,0.0,0.0,0.0,0.0,0.0,0.0,0.0,0.0,0.0,0.0,0.0,0.0,0.0,0.0,0.0,0.0,0.0,0.0,0.0,0.0,0.0,0.0,0.0,0.0,0.0,0.0,0.0,0.0,0.0,0.0,0.0,0.0,0.0,0.0,0.0,0.0,0.0,0.0,0.0,0.0,0.0,0.0,0.0,0.0,0.0,0.0,0.0,0.0,0.0,0.0,0.0,0.0,0.0,0.0,0.0,0.0,0.0,0.0,0.0,0.0,0.0,0.0,0.0,0.0,0.0,0.0,0.0,0.0,0.0,0.0,0.0,0.0,0.0,0.0,0.0,0.0,0.0,0.0,0.0,0.0,0.0,0.0,0.0,0.0,0.0,0.0,0.0,0.0,0.0,0.0,0.0,0.0,0.0,0.0,0.0,0.0,0.0,0.0,0.0,0.0,0.0,0.0,0.0,0.0,0.0,0.0,0.0,0.0,0.0,0.0,0.0,0.0,0.0,0.0,0.0,0.0,0.0,0.0,0.0,0.0,0.0,0.0,0.0,0.0,0.0,0.0,0.0,0.0,0.0,0.0,0.0,0.0,0.0,0.0,0.0,0.0,0.0,0.0,0.0,0.0,0.0,0.0,0.0,0.0,0.0,0.0,0.0,0.0,0.0,0.0,0.0,0.0,0.0,0.0,0.0,0.0,0.0,0.0,0.0,0.0,0.0,0.0,0.0,0.0,0.0,0.0,0.0,0.0,0.0,0.0,0.0,0.0,0.0,0.0,0.0,0.0,0.0,0.0,0.0,0.0,0.0,0.0,0.0,0.0,0.0,0.0,0.0,0.0,0.0,0.0,0.0,0.0,0.0,0.0,0.0,0.0,0.0,0.0,0.0,0.0,0.0,0.0,-0.7649,0.0,0.0,0.0,0.0,0.0,0.0,0.0,0.0,0.0,0.0,0.0,0.0,0.0,0.0,0.0,0.0,0.0,0.0,0.0,0.0,0.0,0.0,0.0,0.0,0.0,0.0,0.0,0.0,0.0,0.0,0.0,0.0,0.0,0.0,0.0,0.0,0.0,0.0,0.0,0.0692,0.1295,0.1926,0.1344,0.0,0.0,0.0,0.0,0.0,0.0,0.0,0.0,0.0,0.0,0.0,0.0,0.0,0.0,0.0,0.0,0.0,0.0,0.0,0.0,0.0,0.0,0.0,0.0,0.0,0.0,0.0,0.0,0.0,0.0,0.0,0.0,0.0,0.0,0.0,0.0,0.0,0.0,0.0,0.0,0.0,0.0,0.0,0.0,0.0,0.0,0.0,0.0,0.0,0.0,0.0,0.0,0.0,0.0,0.0,0.0,0.0,0.0,0.0,0.0,0.0,0.0,0.0,0.0,0.0,0.0,0.0,0.0,0.0,0.0,0.0,0.0,0.0,-0.7964,0.0,0.0,0.0,0.0,0.0,0.0,0.0,0.0,0.0,0.0,0.0,0.0,0.0,0.0,0.0,0.0,0.0,0.0,0.0,0.0,0.0,0.0,0.0,0.0291,0.0599,0.1217,0.1343,0.0945,0.0,0.0,0.0,0.0,0.0,0.0,0.0,0.0,0.0116,0.0353,0.1442,0.1992,0.209,0.2022,0.0,0.0,0.0,0.0,0.0,0.0,0.0,0.0,0.0,0.0,0.0,0.0,0.0,0.0,0.0,0.0,0.0,0.0,0.0,0.0,0.0,0.0,0.0,0.0,0.0,0.0,0.0,0.0,0.0,0.0,0.0,0.0,0.0,0.0,0.0,0.0,0.0,0.0,0.0,0.0,0.0,0.0,0.0,0.0,0.0,0.0,0.0,0.0,0.0,0.0,0.0,0.0,0.0,0.0,0.0,0.0,0.0,0.0,0.0,0.0,0.0,0.0,0.0,0.0,0.0,0.0,-0.9478,-0.9741,-1.0068,-1.0313,-1.0438,-1.0405,-0.953,-0.891,-0.8508,0.0,0.0,0.0,0.0,0.0,0.0,0.0,0.0,0.0,0.0,0.0,0.0,0.0,0.0,0.0,0.0,0.0,0.0,0.0,0.0,0.0,0.0,0.1412,0.1032,0.031,0.021,0.0106,0.0,0.0,0.0,0.0,0.0,0.0,0.0,0.0,0.0588,0.1768,0.194,0.2091,0.2224,0.2306,0.2334,0.2306,0.1922,0.0,0.0,0.0,0.0,0.0,0.0,0.0,0.0,0.0,0.0,0.0,0.0,0.0,0.0,0.0,0.0,0.0,0.0,0.0,0.0,0.0,0.0,0.0,0.0,0.0,0.0,0.0,0.0,0.0,0.0,0.0,0.0,0.0,0.0,0.0,0.0,0.0,0.0,0.0,0.0,0.0,0.0,0.0,-0.7635,-0.7334,0.0,0.0,0.0,0.0,0.0,0.0,0.0,0.0,0.0,0.0,0.0,0.0,0.0,-0.8319,-0.8094,-0.9189,-1.0066,-1.053,-1.0382,-1.0501,-1.0944,-1.1373,-1.1539,-1.1444,-1.1411,0.0,-0.9595,-0.9188,0.0,0.0,0.0,0.0,0.0,0.0,0.0,0.0,0.0,0.0,0.0,0.0,0.0,0.0,0.0,0.0,0.0,0.0,0.0,0.0,0.0,0.0731,0.0762,0.099,0.1058,0.0957,0.1019,0.1058,0.1061,0.1012,0.113,0.1148,0.1178,0.1179,0.147,0.1981,0.2147,0.2453,0.2764,0.2824,0.2853,0.2846,0.2687,0.2391,0.2125,0.2342,0.0,0.0,0.0,0.0,0.0,0.0,0.0,0.0,0.0,0.0,0.0,0.0,0.0,0.0,0.0,0.0,0.0,0.0,0.0,0.0,0.0,0.0,0.0,0.0,0.0,0.0,0.0,0.0,0.0,0.0,0.0,0.0,0.0,0.0,0.0,0.0,0.0,0.0,0.0,-0.7784,-0.8139,-0.7578,-0.7812,-0.7801,0.0,0.0,0.0,0.0,0.0,0.0,0.0,0.0,0.0,-0.8239,-0.8973,-0.831,-0.582,-0.6605,-0.825,-1.0962,-1.1481,-1.1092,-0.9802,-1.164,-1.2493,-1.2542,-1.2591,-1.2172,-1.1373,-1.0427,-0.9704,-0.915,0.0,0.0,0.0,0.0,0.0,-0.8715,0.0,0.0,0.0,0.0,0.0,0.0,0.0,0.0,0.0,0.0,0.0,0.0,0.0507,0.044,0.0818,0.1797,0.1935,0.197,0.2097,0.1881,0.1853,0.1857,0.1952,0.1971,0.1907,0.1962,0.2113,0.2223,0.2536,0.2862,0.3198,0.325,0.3273,0.3273,0.3247,0.2878,0.2425,0.2675,0.2404,0.0,0.0,0.0,0.0,0.0,0.0,0.0,0.0,0.0,0.0,0.0,0.0,0.0,0.0,0.0,0.0,0.0,0.0,0.0,0.0,0.0,0.0,0.0,0.0,0.0,0.0,0.0,0.0,0.0,0.0,0.0,0.0,0.0,0.0,0.0,0.0,0.0,0.0,-0.858,-0.8811,-0.7928,-0.8253,-0.8285,0.0,0.0,0.0,0.0,0.0,0.0,-0.6833,-0.7731,-0.8276,-0.8558,-0.9679,-0.7787,-0.2926,-0.3224,-0.5658,-1.0167,-1.2014,-1.2009,-1.0069,-1.2385,-1.3439,-1.3428,-1.3395,-1.3211,-1.2835,-1.1574,-1.0655,-0.9987,-0.9508,-0.928,-0.9237,-0.9329,-0.9454,-0.9633,0.0,0.0,0.0,0.0,0.0,0.0,0.0,0.0,0.0,0.0,0.0,0.0414,0.1439,0.1677,0.1915,0.2264,0.2283,0.2434,0.2866,0.2157,0.1837,0.1755,0.1831,0.1817,0.1848,0.1894,0.2224,0.2586,0.2969,0.3159,0.3125,0.3411,0.3454,0.3454,0.325,0.3082,0.2959,0.2527,0.2293,0.2308,0.0,0.0,0.0,0.0,0.0,0.0,0.0,0.0,0.0,0.0,0.0,0.0,0.0,0.0,0.0,0.0,0.0,0.0,0.0,0.0,0.0,0.0,0.0,0.0,0.0,0.0,0.0,0.0,0.0,0.0,0.0,0.0,0.0,0.0,0.0,0.0,0.0,0.0,0.0,-0.8088,-0.8889,0.0,0.0,0.0,0.0,-0.7521,-0.7846,-0.684,-0.402,-0.3909,-0.5383,-0.8515,-0.9565,-0.6849,-0.0209,-0.0209,-0.2736,-0.7497,-1.1201,-1.3222,-1.3522,-1.3977,-1.3977,-1.3733,-1.3819,-1.3684,-1.3471,-1.2379,-1.1574,-1.0982,-1.0503,-1.0172,-0.9965,-0.9976,-1.0128,-1.0335,0.0,0.0,0.0,0.0,0.0,0.0,0.0,0.0,0.123,0.0667,0.0831,0.1241,0.1684,0.1993,0.2286,0.2676,0.2629,0.2632,0.2499,0.2247,0.2021,0.195,0.1984,0.1875,0.1878,0.2207,0.2575,0.2979,0.3185,0.3356,0.3287,0.332,0.3335,0.3333,0.3314,0.3235,0.3295,0.2868,0.266,0.2474,0.22,0.2064,0.0,0.0,0.0,0.0,0.0,0.0,0.0,0.0,0.0,0.0,0.0,0.0,0.0,0.0,0.0,0.0,0.0,0.0,0.0,0.0,0.0,0.0,0.0,0.0,0.0,0.0,0.0,0.0,0.0,0.0,0.0,0.0,0.0,0.0,0.0,0.0,0.0,-0.9645,-0.9961,0.0,-0.8846,-0.6513,-0.5128,-0.4997,-0.6825,-0.7724,-0.7292,-0.344,-0.1789,-0.3074,-0.9023,-0.8319,-0.0,0.0,-0.0872,-0.2632,-1.0171,-1.0649,-0.5098,-0.8164,-1.1242,-1.4124,-1.3999,-1.3696,-1.3626,-1.3246,-1.2593,-1.1976,-1.1498,-1.1204,-1.1069,-1.115,-1.1183,-1.121,0.0,0.0,0.0,0.0,0.0,0.0,0.0,0.0,0.1147,0.0577,0.1198,0.1819,0.195,0.2319,0.2675,0.2969,0.3032,0.283,0.2366,0.2372,0.224,0.1996,0.2059,0.2116,0.2027,0.2548,0.2946,0.3179,0.3362,0.3499,0.3382,0.3382,0.3382,0.3381,0.336,0.3335,0.3296,0.3343,0.3085,0.2611,0.2353,0.2242,0.2111,0.0,0.0,0.0,0.0,0.0,0.0,0.0,0.0,0.0,0.0,0.0,0.0,0.0,0.0,0.0,0.0,0.0,0.0,0.0,0.0,0.0,0.0,0.0,0.0,0.0,0.0,0.0,0.0,0.0,0.0,0.0,0.0,0.0,0.0,0.0,-1.0838,-1.0383,-1.0978,-1.0773,-0.9076,-0.6816,-0.4726,-0.2457,-0.4086,-0.5444,-0.6198,-0.2291,0.0,0.0,-0.5963,-0.5791,0.1113,0.1343,0.0673,-0.0897,-0.6317,-0.6103,-0.1355,-0.4264,-0.7169,-1.0312,-1.0857,-1.0807,-1.0795,-1.1395,-1.146,-1.1101,-1.1947,-1.2254,-1.208,-1.2161,-1.2134,-1.2063,0.0,0.0,0.0,0.0,0.0,0.0,0.0,0.1393,0.1442,0.157,0.17,0.1925,0.2514,0.2808,0.307,0.3089,0.3133,0.3035,0.2694,0.2684,0.2463,0.2023,0.2191,0.2151,0.2168,0.2744,0.3156,0.3347,0.3298,0.3385,0.3415,0.3415,0.3415,0.3415,0.3415,0.3397,0.3367,0.3337,0.337,0.3089,0.2669,0.2423,0.2246,0.0,0.0,0.0,0.0,0.0,0.0,0.0,0.0,0.0,0.0,0.0,0.0,0.0,0.0,0.0,0.0,0.0,0.0,0.0,0.0,0.0,0.0,0.0,0.0,0.0,0.0,0.0,0.0,0.0,0.0,0.0,0.0,0.0,-1.0149,-1.0976,-1.1118,-0.9987,-1.1785,-1.1931,-0.8437,-0.8665,-0.6446,-0.0394,0.0,0.0212,0.0213,0.0,0.0,0.0,0.0,0.1151,0.3681,0.3681,0.184,-0.2066,0.069,0.023,-0.3214,-0.2525,-0.2066,-0.2293,-0.4058,-0.4923,-0.4914,-0.6813,-0.7602,-0.8177,-1.1877,-1.327,-1.2933,-1.2933,-1.2917,-1.2841,0.0,0.0,0.0,0.0,0.0,0.0,0.0,0.138,0.1456,0.1628,0.1689,0.2077,0.2721,0.3038,0.3114,0.3069,0.3105,0.2971,0.2729,0.259,0.2252,0.1943,0.2187,0.0,0.2758,0.2964,0.3343,0.3305,0.3412,0.3469,0.3478,0.3478,0.3478,0.3478,0.3478,0.346,0.3431,0.3423,0.3339,0.3389,0.2972,0.261,0.229,0.0,0.0,0.0,0.0,0.0,0.0,0.0,0.0,0.0,0.0,0.0,0.0,0.0,0.0,0.0,0.0,0.0,0.0,0.0,0.0,0.0,0.0,0.0,0.0,0.0,0.0,0.0,0.0,0.0,0.0,0.0,-0.8685,-0.9965,-1.0467,-1.0741,-0.9834,-0.7241,-1.0888,-1.3016,-1.2169,-0.6318,-0.1922,-0.0213,0.1751,0.2676,0.2681,0.1824,0.138,0.1371,0.1385,0.1621,0.253,0.347,0.3248,0.2088,0.3015,0.2783,0.1856,0.2075,0.207,0.207,0.1592,0.1358,0.113,0.0666,-0.2853,-0.7846,-0.8392,-0.8668,-0.8925,-1.2265,-1.3189,-1.2993,0.0,0.0,0.0,0.0,0.0,0.0,0.0,0.1375,0.147,0.1578,0.1762,0.2173,0.2845,0.3159,0.3208,0.3115,0.3131,0.2961,0.2671,0.2266,0.2148,0.2045,0.0,0.2729,0.3147,0.3145,0.3292,0.3404,0.3471,0.3502,0.3502,0.3502,0.3502,0.3502,0.3502,0.3493,0.3475,0.3463,0.3426,0.3365,0.3217,0.3058,0.2711,0.2884,0.2771,0.2377,0.2105,0.2079,0.2079,0.2387,0.0,0.0,0.0,0.0,0.0,0.0,0.0,0.0,0.0,0.0,0.0,0.0,0.0,0.0,0.0,0.0,0.0,0.0,0.0,0.0,0.0,0.0,0.0,0.0,-0.9112,-1.0941,-1.1534,-0.8319,-0.6707,-0.88,-0.8428,-0.791,-0.791,-0.2013,0.1579,0.1565,0.2508,0.3227,0.3906,0.3266,0.2817,0.2802,0.2825,0.283,0.2817,0.3539,0.3782,0.3782,0.3782,0.3782,0.3782,0.3754,0.3733,0.0,0.3674,0.3649,0.3632,0.3125,0.0441,0.0,0.0,0.0,0.0,0.0,-1.3406,-1.3205,0.0,0.0,0.0,0.0,0.0,0.0,0.0,0.1374,0.1481,0.1622,0.1807,0.2368,0.3051,0.3191,0.3217,0.3285,0.3087,0.2891,0.2413,0.2228,0.2047,0.2194,0.2736,0.3127,0.332,0.3508,0.342,0.3695,0.3506,0.3524,0.3524,0.3524,0.352,0.3517,0.3517,0.3513,0.3506,0.3479,0.3465,0.3457,0.34,0.3335,0.324,0.2968,0.2707,0.2536,0.2391,0.2271,0.2327,0.286,0.0,0.0,0.0,0.0,0.0,0.0,0.0,0.0,0.0,0.0,0.0,0.0,0.0,0.0,0.0,0.0,0.0,0.0,0.0,0.0,0.0,0.0,0.0,0.0,-0.8164,-0.9989,-1.1302,-0.4759,-0.2932,-1.1051,-0.4659,0.0451,0.0452,0.2304,0.3726,0.3701,0.2812,0.2593,0.3744,0.0,0.0,0.0,0.0,0.3866,0.3862,0.3866,0.3866,0.3862,0.3862,0.3866,0.3862,0.3831,0.3803,0.3772,0.3708,0.3667,0.3636,0.2679,0.2204,0.1529,-0.0649,-0.1286,-0.1914,-1.0424,-1.3569,0.0,0.0,0.0,0.0,0.0,0.0,0.0,0.0,0.1362,0.1481,0.1622,0.1936,0.25,0.2985,0.3144,0.3192,0.3091,0.3087,0.2729,0.1951,0.2157,0.2354,0.2784,0.3142,0.3326,0.3518,0.3467,0.3565,0.36,0.3632,0.3645,0.3645,0.3645,0.3632,0.3611,0.3611,0.3583,0.3538,0.3531,0.3513,0.349,0.3454,0.3359,0.343,0.3317,0.3217,0.3126,0.3039,0.2874,0.2906,0.275,0.2547,0.2205,0.1913,0.0,0.0,0.0,0.0,0.0,0.0,0.0,0.0,0.0,0.0,0.0,0.0,0.0,0.0,0.0,0.0,0.0,0.0,0.0,0.0,-0.1231,-0.172,-0.2255,-0.2384,-0.1105,-0.0669,-0.245,0.0679,0.3223,0.3033,0.2595,0.2854,0.3827,0.3598,0.3602,0.3838,0.3869,0.0,0.3851,0.388,0.3883,0.3859,0.3883,0.3898,0.3893,0.0,0.0,0.3898,0.3842,0.3813,0.3803,0.3719,0.3677,0.3667,0.3359,0.2637,0.0865,-0.7726,-0.8755,-0.6165,-1.1492,-1.3607,-1.3537,0.0,0.0,0.0,0.0,0.0,0.0,0.0,0.1359,0.1481,0.1622,0.1999,0.2507,0.2956,0.2903,0.2891,0.2907,0.2778,0.2537,0.2059,0.2564,0.2885,0.3018,0.319,0.355,0.3692,0.3596,0.3667,0.3681,0.3694,0.3705,0.3701,0.3688,0.3663,0.3636,0.3652,0.3625,0.3569,0.3569,0.3551,0.352,0.3491,0.3434,0.336,0.33,0.3423,0.3334,0.3302,0.3291,0.3272,0.3143,0.2908,0.2689,0.2718,0.2557,0.2401,0.0,0.0,0.0,0.0,0.0,0.0,0.0,0.0,0.0,0.0,0.0,0.0,0.0,0.0,0.0,0.0,0.0,0.0,0.0,0.1021,0.1294,0.0222,0.0,0.0461,0.182,0.3007,0.3996,0.3793,0.3354,0.314,0.3883,0.3898,0.3907,0.3907,0.3918,0.3922,0.3904,0.3932,0.3936,0.3904,0.3936,0.3949,0.3949,0.3936,0.3936,0.3949,0.3887,0.3844,0.3813,0.3737,0.3688,0.3652,0.3562,0.3061,0.1942,-0.5131,-0.7033,-0.6177,-0.8515,-0.936,-0.9757,0.0,0.0,0.0,0.0,0.0,0.0,0.0,0.1362,0.1477,0.1608,0.1911,0.2212,0.2747,0.2632,0.2556,0.2504,0.2494,0.2549,0.2372,0.2865,0.3294,0.3236,0.34,0.3524,0.3614,0.3701,0.3748,0.375,0.375,0.375,0.375,0.3723,0.3692,0.3892,0.3681,0.3656,0.36,0.36,0.358,0.3551,0.3524,0.3509,0.3502,0.3444,0.339,0.3347,0.3341,0.3466,0.335,0.3305,0.3415,0.3311,0.3202,0.3089,0.2791,0.2294,0.208,0.0,0.0,0.0,0.0,0.0,0.0,0.0,0.0,0.0,0.0,0.0,0.0295,0.0627,0.067,0.0723,0.058,0.0609,0.1931,0.2456,0.0905,0.0696,0.1413,0.373,0.3797,0.3842,0.3842,0.3898,0.3932,0.3932,0.3953,0.3963,0.396,0.3963,0.3963,0.396,0.3988,0.3992,0.3967,0.3992,0.4005,0.4003,0.3978,0.3978,0.3992,0.3938,0.388,0.382,0.3748,0.3688,0.3628,0.354,0.3489,0.3029,0.0,-0.213,-0.3624,-0.4683,-0.5107,-0.5733,0.0,0.0,0.0,0.0,0.0,0.0,0.0,0.0,0.1463,0.1555,0.1718,0.1857,0.2074,0.1921,0.1842,0.1837,0.1971,0.2115,0.2603,0.3088,0.3513,0.3453,0.3538,0.3618,0.3708,0.3775,0.382,0.3844,0.3844,0.3844,0.3844,0.3813,0.3786,0.3754,0.3733,0.3688,0.3859,0.3632,0.3614,0.3583,0.3551,0.354,0.3534,0.3475,0.3448,0.3438,0.3411,0.3324,0.3426,0.3447,0.3391,0.331,0.3295,0.3185,0.3201,0.2832,0.2463,0.2259,0.2712,0.2331,0.1811,0.2144,0.2041,0.1575,0.0,0.0,0.0,0.0,0.1335,0.2603,0.2906,0.3061,0.3024,0.319,0.154,0.1132,0.3035,0.3312,0.3588,0.3873,0.3911,0.3936,0.3936,0.3988,0.4026,0.4026,0.403,0.4019,0.3992,0.4016,0.4019,0.3992,0.4019,0.4034,0.403,0.4034,0.4037,0.4037,0.4034,0.4019,0.3994,0.396,0.3911,0.3848,0.3733,0.3667,0.3628,0.354,0.3499,0.3491,0.3004,0.2558,0.1918,-0.3188,-0.5097,-0.5514,0.0,0.0,0.0,0.0,0.0,0.0,0.0,0.0,0.0,0.1602,0.1613,0.17,0.1734,0.1796,0.184,0.1858,0.1832,0.204,0.271,0.3187,0.3494,0.3569,0.3652,0.3723,0.3779,0.3838,0.3873,0.3887,0.3887,0.3887,0.3883,0.3855,0.3827,0.3795,0.3786,0.3744,0.3688,0.367,0.3645,0.3614,0.3583,0.3562,0.354,0.3499,0.344,0.3371,0.3324,0.3443,0.0,0.3168,0.3135,0.3286,0.3305,0.3403,0.324,0.3207,0.2685,0.2207,0.2309,0.2215,0.2063,0.2014,0.2095,0.2051,0.1728,0.1628,0.1847,0.1929,0.2577,0.3263,0.3355,0.3515,0.3446,0.0,0.2708,0.2535,0.3737,0.3772,0.3786,0.4011,0.3848,0.3918,0.3971,0.4016,0.4048,0.4065,0.405,0.4043,0.4048,0.4043,0.4034,0.4023,0.405,0.4058,0.4041,0.4058,0.4058,0.4041,0.4041,0.4023,0.3994,0.3981,0.3915,0.3803,0.3719,0.3652,0.3604,0.3531,0.3502,0.3495,0.3435,0.3412,0.3198,0.0638,-0.0213,-0.0213,0.0,0.0,0.0,0.0,0.0,0.0,0.0,0.0,0.0,0.0,0.1629,0.1581,0.1596,0.1731,0.1761,0.1793,0.1839,0.2094,0.2948,0.3382,0.3554,0.3611,0.3719,0.3788,0.3828,0.3887,0.3918,0.3918,0.3918,0.3918,0.3914,0.3887,0.3859,0.3842,0.3824,0.3788,0.3737,0.3705,0.367,0.3632,0.3611,0.358,0.3538,0.3486,0.3385,0.3468,0.3404,0.3291,0.3171,0.279,0.2753,0.3082,0.3326,0.3283,0.3173,0.298,0.2652,0.221,0.2102,0.1933,0.2088,0.2184,0.231,0.2601,0.29,0.3007,0.3113,0.3239,0.3384,0.351,0.337,0.349,0.3587,0.3611,0.3677,0.3733,0.3748,0.3764,0.375,0.3699,0.3754,0.3831,0.3911,0.3994,0.405,0.4072,0.4068,0.4072,0.4086,0.4072,0.4061,0.4054,0.4082,0.409,0.4065,0.4086,0.4082,0.4054,0.4054,0.4034,0.3994,0.3971,0.3898,0.3793,0.3716,0.3656,0.3611,0.354,0.3509,0.3499,0.3445,0.3419,0.3412,0.3412,0.3412,0.3411,0.0,0.0,0.0,0.0,0.0,0.0,0.0,0.0,0.0,0.0,0.0,0.0,0.0,0.1731,0.1761,0.1793,0.1789,0.2173,0.3071,0.3464,0.3656,0.3799,0.3941,0.3799,0.3855,0.3918,0.3949,0.3949,0.3949,0.3949,0.3947,0.3918,0.39,0.39,0.3842,0.3799,0.3768,0.3737,0.3692,0.3636,0.3636,0.3596,0.3531,0.3415,0.3483,0.3337,0.3464,0.3087,0.2701,0.2337,0.2583,0.2977,0.3116,0.3013,0.2836,0.2361,0.2182,0.204,0.195,0.1999,0.2079,0.2422,0.2897,0.3214,0.3382,0.3305,0.3411,0.3329,0.3382,0.3434,0.352,0.354,0.3576,0.3663,0.3705,0.3748,0.3806,0.3788,0.3761,0.3263,0.3217,0.3208,0.0,0.3922,0.4041,0.4041,0.4097,0.4117,0.4086,0.4114,0.4114,0.4086,0.4114,0.4128,0.4128,0.4128,0.4114,0.4086,0.4086,0.4054,0.3992,0.3904,0.3859,0.3848,0.3733,0.3681,0.367,0.358,0.3527,0.3499,0.3468,0.3438,0.3412,0.3412,0.3412,0.3408,0.0,0.0,0.0,0.0,0.0,0.0,0.0,0.0,0.0,0.0,0.0,0.0,0.0,0.0,0.0,0.0,0.1745,0.195,0.2593,0.2997,0.3346,0.3614,0.3851,0.3761,0.3799,0.388,0.3918,0.3918,0.3938,0.3949,0.3949,0.3938,0.3925,0.3904,0.3862,0.3828,0.3795,0.3726,0.3685,0.366,0.358,0.3524,0.3478,0.3397,0.32,0.2946,0.0,0.2472,0.2166,0.1972,0.2086,0.2361,0.242,0.2293,0.2265,0.2226,0.2206,0.2113,0.215,0.2435,0.2622,0.2833,0.3163,0.3295,0.3433,0.33,0.3348,0.3388,0.3566,0.3539,0.357,0.3612,0.3665,0.374,0.3851,0.3716,0.3779,0.3779,0.3715,0.3119,0.315,0.0,0.0,0.0,0.0,0.4003,0.403,0.4061,0.4114,0.4124,0.4128,0.4117,0.4124,0.4121,0.4099,0.4099,0.4075,0.4026,0.3985,0.3963,0.396,0.3851,0.3788,0.3768,0.3684,0.3639,0.3618,0.3565,0.3538,0.3527,0.3499,0.3468,0.3442,0.3442,0.3429,0.3411,0.0,0.0,0.0,0.0,0.0,0.0,0.0,0.0,0.0,0.0,0.0,0.0,0.0,0.0,0.0,0.0,0.0,0.1853,0.2145,0.2612,0.3084,0.3527,0.3531,0.3667,0.3952,0.3782,0.384,0.3911,0.3956,0.4011,0.3838,0.3848,0.3842,0.3824,0.3793,0.3768,0.3748,0.3906,0.3851,0.3796,0.367,0.3572,0.3489,0.3368,0.3139,0.0,0.235,0.2052,0.1936,0.1767,0.1892,0.2033,0.207,0.1949,0.2083,0.2151,0.209,0.2216,0.2324,0.2829,0.3046,0.3247,0.3385,0.3494,0.3365,0.3397,0.3403,0.337,0.3496,0.3423,0.3399,0.3201,0.3243,0.3567,0.3683,0.3806,0.3951,0.3712,0.3649,0.3313,0.331,0.3287,0.0,0.0,0.0,0.3915,0.397,0.403,0.411,0.4124,0.4131,0.4131,0.4131,0.411,0.4068,0.4079,0.4054,0.3994,0.3932,0.3907,0.3914,0.3817,0.3754,0.3723,0.3663,0.3625,0.3604,0.3572,0.3555,0.354,0.3513,0.3484,0.3456,0.3445,0.3429,0.3411,0.0,0.0,0.0,0.0,0.0,0.0,0.0,0.0,0.0,0.0,0.0,0.0,0.0,0.0,0.0,0.0,0.0,0.0,0.1734,0.2168,0.2529,0.3315,0.338,0.3471,0.3796,0.3772,0.3671,0.3874,0.3945,0.3869,0.3833,0.3866,0.3877,0.3877,0.3848,0.3833,0.383,0.3796,0.3711,0.3589,0.3664,0.3318,0.3159,0.3116,0.3225,0.2999,0.2222,0.1932,0.1812,0.1807,0.1808,0.1823,0.2005,0.2046,0.1975,0.2003,0.209,0.2185,0.2767,0.3134,0.3486,0.3449,0.3348,0.3412,0.3412,0.3407,0.3377,0.3491,0.3388,0.3294,0.2846,0.0,0.2791,0.3187,0.3668,0.3809,0.3882,0.3844,0.3806,0.0,0.0,0.0,0.0,0.0,0.0,0.3799,0.0,0.4016,0.4082,0.4114,0.4131,0.4131,0.4131,0.4099,0.4041,0.4061,0.4048,0.3992,0.3929,0.3887,0.3855,0.3795,0.3754,0.3719,0.3659,0.3636,0.3632,0.36,0.3572,0.3544,0.3516,0.3486,0.3456,0.3426,0.3414,0.3408,0.0,0.0,0.0,0.0,0.0,0.0,0.0,0.0,0.0,0.0,0.0,0.0,0.0,0.0,0.0,0.0,0.0,0.0,0.1857,0.1887,0.2028,0.2299,0.2514,0.2644,0.2494,0.2399,0.246,0.269,0.3114,0.3366,0.3437,0.3446,0.3449,0.3449,0.3441,0.3424,0.3598,0.3538,0.3492,0.3449,0.313,0.2874,0.2475,0.2388,0.2405,0.2375,0.2122,0.198,0.1833,0.1769,0.1909,0.2107,0.2087,0.214,0.2068,0.1956,0.2398,0.2707,0.3117,0.3298,0.3447,0.3351,0.3395,0.3412,0.3625,0.355,0.3454,0.3359,0.2964,0.2776,0.2504,0.2399,0.2338,0.2491,0.2913,0.0,0.3579,0.3608,0.0,0.3716,0.0,0.3643,0.3572,0.3572,0.0,0.0,0.3855,0.3929,0.4079,0.4114,0.4131,0.4131,0.4131,0.4093,0.4009,0.3947,0.3932,0.396,0.388,0.3844,0.3855,0.3775,0.3723,0.3692,0.3652,0.3621,0.36,0.3594,0.3587,0.3576,0.3544,0.3516,0.3487,0.3457,0.3431,0.3411,0.0,0.0,0.0,0.0,0.0,0.0,0.0,0.0,0.0,0.0,0.0,0.0,0.0,0.0,0.0,0.0,0.0,0.0,0.0,0.1855,0.1822,0.19,0.2035,0.2123,0.2158,0.2052,0.2112,0.2188,0.2552,0.2792,0.2901,0.2927,0.2939,0.2941,0.2954,0.295,0.2932,0.2898,0.286,0.0,0.0,0.2458,0.2253,0.2178,0.2226,0.2252,0.2051,0.1985,0.1922,0.1899,0.1931,0.2143,0.2171,0.2391,0.2455,0.232,0.2624,0.312,0.3315,0.3475,0.3384,0.3422,0.3431,0.3404,0.3504,0.3401,0.3269,0.3062,0.2677,0.2341,0.223,0.219,0.2191,0.2553,0.3032,0.0,0.3588,0.3869,0.3859,0.0,0.3806,0.0,0.3712,0.3712,0.3764,0.0,0.3873,0.3922,0.4079,0.4114,0.4131,0.4131,0.4117,0.4075,0.3994,0.3918,0.3898,0.3929,0.3866,0.3831,0.3817,0.3754,0.3708,0.3681,0.0,0.3625,0.3607,0.3596,0.3589,0.3587,0.3555,0.3527,0.3499,0.3468,0.3438,0.3412,0.0,0.0,0.0,0.0,0.0,0.0,0.0,0.0,0.0,0.0,0.1624,0.0,0.0,0.0,0.0,0.0,0.0,0.0,0.0,0.0,0.1752,0.1826,0.1814,0.1962,0.2165,0.2128,0.2202,0.2114,0.2141,0.2243,0.2255,0.2305,0.233,0.2333,0.2361,0.2203,0.2203,0.2369,0.2327,0.2256,0.2162,0.2232,0.2154,0.0,0.0,0.2242,0.2206,0.209,0.2008,0.211,0.2161,0.2221,0.2436,0.2528,0.2765,0.2765,0.3059,0.3352,0.3511,0.3422,0.3495,0.3465,0.3452,0.3384,0.3343,0.3218,0.3059,0.2716,0.2387,0.2122,0.2017,0.1855,0.2036,0.2968,0.3478,0.3845,0.4027,0.4056,0.4082,0.4196,0.4134,0.4089,0.3869,0.3844,0.3866,0.3956,0.3932,0.3967,0.4079,0.4106,0.4121,0.4121,0.4086,0.4043,0.3994,0.3932,0.39,0.3911,0.3873,0.3828,0.3782,0.3748,0.3712,0.3681,0.0,0.0,0.3628,0.36,0.3589,0.3587,0.3555,0.3527,0.3499,0.3468,0.3438,0.3412,0.0,0.0,0.0,0.0,0.0,0.0,0.0,0.0,0.0,0.0,0.1559,0.1617,0.0,0.0,0.0,0.0,0.0,0.0,0.0,0.0,0.0,0.1825,0.1752,0.19,0.2036,0.1978,0.2029,0.1807,0.1964,0.2008,0.2065,0.2099,0.2127,0.2151,0.2179,0.2192,0.2191,0.2168,0.2148,0.2132,0.2228,0.22,0.2184,0.2162,0.0,0.0,0.2215,0.2149,0.2024,0.2384,0.2682,0.274,0.2917,0.3208,0.3325,0.3359,0.3434,0.3482,0.343,0.3487,0.3495,0.3465,0.3419,0.3325,0.3304,0.2735,0.2367,0.212,0.195,0.1828,0.1894,0.1782,0.216,0.3196,0.3746,0.3934,0.4153,0.4208,0.3974,0.0,0.3988,0.3956,0.3936,0.3907,0.0,0.0,0.0,0.4009,0.4082,0.4068,0.4057,0.4057,0.4003,0.3981,0.3994,0.3911,0.3891,0.3938,0.3862,0.3831,0.3842,0.3788,0.3733,0.3681,0.3674,0.0,0.3596,0.3594,0.3589,0.3587,0.3555,0.3527,0.3499,0.3468,0.3438,0.3412,0.0,0.0,0.0,0.0,0.0,0.0,0.0,0.1475,0.1531,0.1573,0.1797,0.1866,0.1587,0.1567,0.1662,0.0,0.0,0.0,0.0,0.0,0.0,0.0,0.0,0.0,0.1862,0.1919,0.1956,0.1849,0.0,0.2018,0.2063,0.1962,0.2124,0.2154,0.2185,0.2199,0.2198,0.2183,0.2176,0.2176,0.2161,0.2155,0.0,0.0,0.0,0.0,0.0,0.2053,0.1975,0.2194,0.2714,0.3107,0.3363,0.3307,0.3398,0.3332,0.3381,0.3414,0.3499,0.3538,0.3538,0.3493,0.34,0.3441,0.3118,0.2545,0.2018,0.1894,0.1893,0.1814,0.1771,0.1853,0.2248,0.283,0.3514,0.3935,0.4003,0.4056,0.4119,0.4065,0.4075,0.4061,0.4043,0.403,0.4041,0.4086,0.4058,0.4061,0.4106,0.4082,0.405,0.4019,0.3988,0.3974,0.397,0.3929,0.3911,0.3925,0.3883,0.3851,0.3835,0.3806,0.3771,0.3726,0.3712,0.0,0.3636,0.3621,0.3604,0.3589,0.3572,0.3551,0.352,0.3491,0.3461,0.3433,0.0,0.0,0.0,0.0,0.0,0.0,0.0,0.1636,0.1712,0.1684,0.1958,0.2161,0.1819,0.1635,0.1582,0.0,0.0,0.0,0.0,0.0,0.0,0.0,0.0,0.0,0.0,0.0,0.0,0.2041,0.2055,0.0,0.0,0.0,0.0,0.0,0.2142,0.2155,0.2155,0.2155,0.2155,0.0,0.0,0.2151,0.0,0.0,0.0,0.0,0.0,0.1947,0.2032,0.1983,0.2497,0.3141,0.3265,0.3459,0.3374,0.3416,0.3468,0.352,0.3555,0.3583,0.3587,0.3527,0.3595,0.3353,0.3116,0.2533,0.1865,0.1826,0.1851,0.1827,0.1816,0.1911,0.2145,0.2327,0.3081,0.347,0.3572,0.3877,0.4001,0.4065,0.4114,0.4117,0.4113,0.411,0.0,0.4121,0.4106,0.0,0.4103,0.4086,0.4048,0.3988,0.3985,0.3974,0.3949,0.3949,0.3938,0.3914,0.3907,0.3876,0.3827,0.382,0.3795,0.3761,0.373,0.0,0.0,0.3639,0.3611,0.3589,0.3589,0.3572,0.354,0.352,0.3493,0.3463,0.0,0.0,0.0,0.0,0.0,0.0,0.0,0.1802,0.215,0.1996,0.2102,0.2291,0.2373,0.1892,0.1548,0.0,0.0,0.0,0.0,0.0,0.0,0.0,0.0,0.0,0.0,0.0,0.0,0.2008,0.1945,0.0,0.0,0.0,0.0,0.0,0.0,0.2155,0.2155,0.2155,0.0,0.0,0.0,0.0,0.0,0.0,0.0,0.0,0.0,0.2009,0.2031,0.1972,0.2089,0.2187,0.3058,0.3244,0.3362,0.334,0.3431,0.3555,0.3611,0.3628,0.3618,0.3555,0.3578,0.3295,0.2906,0.2316,0.18,0.1788,0.182,0.1814,0.1751,0.1825,0.1985,0.2151,0.2486,0.257,0.237,0.3407,0.4027,0.3985,0.4058,0.4079,0.405,0.4048,0.4061,0.409,0.4114,0.0,0.4012,0.403,0.4016,0.3956,0.3953,0.3953,0.3949,0.3949,0.3949,0.3947,0.3918,0.3887,0.3855,0.3827,0.3786,0.373,0.3699,0.0,0.0,0.3607,0.3594,0.3589,0.3589,0.3572,0.3544,0.354,0.3524,0.3495,0.0,0.0,0.0,0.0,0.0,0.0,0.1363,0.1902,0.2256,0.2154,0.244,0.2551,0.2559,0.2048,0.1643,0.1637,0.0,0.0,0.0,0.0,0.0,0.0,0.0,0.0,0.0,0.0,0.1885,0.2003,0.1947,0.0,0.0,0.0,0.0,0.0,0.0,0.2155,0.2155,0.2155,0.0,0.0,0.0,0.0,0.0,0.0,0.0,0.0,0.0,0.0,0.1992,0.1955,0.2068,0.2034,0.252,0.2638,0.2785,0.3356,0.3501,0.3625,0.3766,0.3818,0.3594,0.3534,0.3533,0.3234,0.2701,0.2119,0.1751,0.1755,0.1804,0.1802,0.1827,0.1764,0.1874,0.1953,0.2175,0.2373,0.227,0.2966,0.357,0.3757,0.3876,0.397,0.0,0.0,0.4099,0.4114,0.4124,0.0,0.405,0.4043,0.4012,0.3953,0.3949,0.3949,0.3949,0.3949,0.3949,0.3949,0.3936,0.3907,0.3859,0.3848,0.381,0.375,0.3723,0.0,0.0,0.3628,0.3607,0.3589,0.3589,0.3583,0.3569,0.3551,0.3538,0.3524,0.0,0.0,0.0,0.0,0.0,0.1402,0.1363,0.1809,0.2163,0.2157,0.2466,0.2614,0.2661,0.2236,0.1802,0.1595,0.159,0.0,0.0,0.0,0.0,0.0,0.0,0.0,0.0,0.0,0.1877,0.2003,0.2058,0.1982,0.0,0.0,0.2202,0.2242,0.0,0.0,0.0,0.0,0.0,0.0,0.0,0.0,0.0,0.0,0.0,0.0,0.0,0.0,0.0,0.0,0.0,0.2046,0.2131,0.2155,0.2259,0.2923,0.3333,0.3504,0.3678,0.3777,0.3814,0.3531,0.3504,0.3188,0.2677,0.2089,0.1848,0.1849,0.1795,0.1795,0.1795,0.1838,0.1798,0.1802,0.212,0.2305,0.2408,0.2879,0.3285,0.3313,0.3667,0.3803,0.4005,0.409,0.4131,0.4131,0.4131,0.0,0.4086,0.4058,0.4016,0.3963,0.3953,0.3947,0.3936,0.3947,0.3947,0.3936,0.3936,0.3907,0.3859,0.3851,0.382,0.3768,0.373,0.0,0.0,0.3639,0.3611,0.3589,0.3589,0.3589,0.3587,0.3565,0.3558,0.3555,0.0,0.0,0.0,0.0,0.0,0.0,0.1363,0.1645,0.1773,0.1758,0.2174,0.2451,0.2518,0.254,0.2226,0.161,0.1646,0.0,0.0,0.0,0.0,0.0,0.0,0.0,0.0,0.0,0.1855,0.2003,0.2036,0.1962,0.2019,0.2019,0.2052,0.2241,0.0,0.0,0.0,0.0,0.0,0.0,0.0,0.0,0.0,0.0,0.0,0.0,0.0,0.0,0.0,0.0,0.0,0.0,0.0,0.1842,0.2133,0.2472,0.2973,0.3462,0.3592,0.352,0.3621,0.3558,0.3502,0.3159,0.2671,0.2073,0.1825,0.1844,0.1795,0.1795,0.1795,0.182,0.1762,0.175,0.2146,0.2371,0.2904,0.2938,0.313,0.3135,0.345,0.3576,0.3757,0.3992,0.4131,0.4131,0.0,0.0,0.4086,0.4058,0.4026,0.3994,0.3963,0.3936,0.3904,0.3936,0.3936,0.3904,0.3904,0.3891,0.3859,0.3831,0.3799,0.0,0.0,0.0,0.0,0.3614,0.3589,0.3589,0.3589,0.3589,0.3589,0.3589,0.3589,0.3587,0.0,0.0,0.0,0.0,0.0,0.0,0.0,0.1527,0.1725,0.1955,0.21,0.2135,0.1978,0.1839,0.1851,0.161,0.1647,0.0,0.0,0.0,0.0,0.0,0.0,0.0,0.0,0.0,0.1778,0.1826,0.1997,0.2042,0.195,0.195,0.2079,0.2078,0.2207,0.2213,0.0,0.0,0.0,0.0,0.0,0.0,0.0,0.0,0.0,0.0,0.0,0.0,0.0,0.0,0.0,0.0,0.0,0.0,0.0,0.214,0.2587,0.3071,0.3388,0.3549,0.3644,0.3507,0.3498,0.3252,0.2632,0.2109,0.1781,0.1836,0.1795,0.1795,0.1795,0.1804,0.1883,0.1975,0.2319,0.2745,0.2592,0.2856,0.3099,0.331,0.3688,0.3953,0.0,0.0,0.4131,0.4131,0.0,0.0,0.4117,0.4068,0.4026,0.3994,0.3967,0.3936,0.3904,0.3936,0.3925,0.3873,0.3893,0.388,0.3831,0.382,0.3799,0.0,0.0,0.0,0.0,0.3639,0.3607,0.3589,0.3589,0.3589,0.3589,0.3589,0.3589,0.3589,0.0,0.0,0.0,0.0,0.0,0.0,0.0,0.1475,0.1648,0.1813,0.1938,0.1872,0.1637,0.1633,0.1557,0.1606,0.1647,0.0,0.0,0.0,0.0,0.0,0.0,0.0,0.1795,0.1843,0.1794,0.1884,0.2069,0.2125,0.2178,0.2063,0.2035,0.1967,0.211,0.2095,0.0,0.0,0.0,0.0,0.0,0.0,0.1975,0.0,0.0,0.0,0.0,0.0,0.0,0.0,0.0,0.0,0.0,0.0,0.0,0.0,0.2143,0.2536,0.3092,0.3107,0.3021,0.3098,0.313,0.294,0.252,0.2041,0.1749,0.1829,0.1795,0.1795,0.1795,0.1805,0.1874,0.1938,0.2403,0.2673,0.2492,0.2784,0.3077,0.3356,0.3748,0.0,0.0,0.4086,0.4131,0.0,0.0,0.0,0.4114,0.4068,0.4026,0.3994,0.3953,0.3918,0.3887,0.3904,0.3891,0.3844,0.3862,0.3851,0.3817,0.3806,0.3782,0.0,0.0,0.0,0.0,0.3632,0.3607,0.3589,0.3589,0.3589,0.3589,0.3589,0.3589,0.3589,0.0,0.0,0.0,0.0,0.0,0.0,0.0,0.1475,0.1641,0.1621,0.1608,0.1653,0.157,0.1641,0.1569,0.1588,0.0,0.0,0.0,0.0,0.0,0.0,0.0,0.0,0.1795,0.1827,0.1915,0.2064,0.2262,0.2346,0.2298,0.2207,0.2157,0.2024,0.2049,0.201,0.0,0.0,0.0,0.0,0.1954,0.1948,0.0,0.0,0.0,0.0,0.0,0.0,0.0,0.0,0.0,0.0,0.0,0.0,0.0,0.0,0.0,0.0,0.0,0.243,0.2178,0.2506,0.2389,0.223,0.2173,0.1999,0.0,0.0,0.0,0.0,0.1804,0.1823,0.1862,0.1941,0.23,0.2613,0.2594,0.275,0.0,0.0,0.3692,0.0,0.3831,0.4012,0.0,0.0,0.0,0.0,0.4086,0.4054,0.4023,0.3994,0.3936,0.3891,0.3859,0.3859,0.3844,0.3813,0.3813,0.3813,0.3813,0.3779,0.375,0.0,0.0,0.0,0.0,0.3604,0.3594,0.3589,0.3589,0.3589,0.3589,0.3589,0.3589,0.3589,0.0,0.0,0.0,0.0,0.0,0.0,0.0,0.0,0.0,0.0,0.1641,0.155,0.1591,0.1651,0.164,0.0,0.0,0.0,0.0,0.0,0.0,0.0,0.0,0.0,0.1795,0.1847,0.1816,0.2064,0.2443,0.2695,0.28,0.2545,0.248,0.2463,0.2173,0.1971,0.0,0.0,0.0,0.0,0.1947,0.1936,0.0,0.0,0.0,0.0,0.1896,0.1788,0.0,0.0,0.0,0.0,0.0,0.0,0.0,0.0,0.1964,0.2046,0.2176,0.0,0.2418,0.2439,0.239,0.2196,0.0,0.1964,0.0,0.0,0.0,0.0,0.0,0.1849,0.1885,0.1998,0.2176,0.2404,0.2504,0.2975,0.0,0.3835,0.3978,0.403,0.3992,0.4075,0.0,0.0,0.0,0.4093,0.4086,0.4034,0.4003,0.3994,0.3936,0.3891,0.3859,0.3859,0.3835,0.3782,0.3782,0.3782,0.3782,0.3726,0.3712,0.0,0.0,0.0,0.3636,0.3628,0.3611,0.3589,0.3589,0.3589,0.3589,0.3589,0.3589,0.3589,0.0,0.0,0.0,0.0,0.0,0.0,0.0,0.0,0.0,0.0,0.0,0.1617,0.1617,0.1617,0.0,0.0,0.0,0.0,0.0,0.0,0.0,0.0,0.0,0.1795,0.1795,0.1854,0.1835,0.1973,0.2365,0.2639,0.277,0.2649,0.2562,0.2655,0.2241,0.2016,0.0,0.0,0.0,0.0,0.2026,0.0,0.0,0.0,0.0,0.0,0.1865,0.175,0.0,0.1914,0.194,0.1952,0.0,0.0,0.0,0.0,0.1909,0.1963,0.1994,0.2124,0.2229,0.2281,0.2117,0.1952,0.1975,0.0,0.0,0.0,0.0,0.0,0.0,0.0,0.2022,0.1976,0.2187,0.2368,0.2789,0.0,0.3589,0.3953,0.405,0.409,0.0,0.0,0.0,0.0,0.0,0.4079,0.4065,0.4019,0.3981,0.3953,0.3907,0.3876,0.3859,0.3844,0.3817,0.3772,0.3772,0.3764,0.375,0.3716,0.3694,0.0,0.0,0.0,0.3614,0.3614,0.3604,0.3589,0.3589,0.3589,0.3589,0.3589,0.3589,0.3589,0.0,0.0,0.0,0.0,0.0,0.0,0.0,0.0,0.0,0.0,0.0,0.0,0.0,0.0,0.0,0.0,0.0,0.0,0.0,0.0,0.0,0.0,0.1795,0.18,0.1809,0.1743,0.1847,0.1873,0.2137,0.242,0.272,0.2615,0.2675,0.2578,0.2184,0.1944,0.0,0.0,0.0,0.0,0.198,0.0,0.0,0.0,0.0,0.0,0.0,0.0,0.0,0.1921,0.1945,0.2055,0.2073,0.0,0.0,0.0,0.0,0.0,0.1952,0.195,0.2062,0.2031,0.1994,0.1813,0.1858,0.0,0.0,0.0,0.0,0.0,0.0,0.2133,0.0,0.2184,0.2364,0.271,0.3152,0.3405,0.3645,0.3963,0.4034,0.0,0.0,0.0,0.0,0.0,0.0,0.4065,0.4034,0.3998,0.3956,0.3904,0.3876,0.3859,0.3859,0.3827,0.3795,0.3772,0.3768,0.375,0.3726,0.3715,0.3684,0.0,0.0,0.0,0.3589,0.3589,0.3589,0.3589,0.3589,0.3589,0.3589,0.3589,0.3589,0.3589,0.0,0.0,0.0,0.0,0.0,0.0,0.0,0.0,0.0,0.0,0.0,0.0,0.0,0.0,0.0,0.0,0.0,0.0,0.0,0.0,0.0,0.1795,0.1795,0.1819,0.1754,0.1764,0.1828,0.1948,0.2156,0.2307,0.2563,0.2721,0.2476,0.206,0.1872,0.1876,0.1806,0.196,0.0,0.1771,0.1854,0.0,0.0,0.0,0.0,0.0,0.0,0.0,0.0,0.1855,0.201,0.2284,0.2227,0.0,0.0,0.0,0.0,0.0,0.192,0.2023,0.2058,0.2144,0.2128,0.2135,0.18,0.0,0.0,0.0,0.0,0.0,0.0,0.2415,0.2624,0.0,0.0,0.2936,0.0,0.0,0.3748,0.4003,0.0,0.4099,0.0,0.0,0.0,0.0,0.0,0.4034,0.4003,0.3949,0.3915,0.3904,0.3876,0.3859,0.3859,0.3806,0.3775,0.3772,0.3748,0.373,0.3723,0.3674,0.3645,0.0,0.0,0.3594,0.3589,0.3589,0.3589,0.3589,0.3589,0.3589,0.3589,0.3589,0.3589,0.3589,0.0,0.0,0.0,0.0,0.0,0.0,0.0,0.0,0.0,0.0,0.0,0.0,0.0,0.0,0.0,0.0,0.0,0.0,0.0,0.0,0.1824,0.1771,0.1846,0.1849,0.1789,0.1974,0.1959,0.1975,0.2158,0.2296,0.2898,0.283,0.2674,0.2297,0.2086,0.1838,0.1784,0.1844,0.1835,0.1742,0.0,0.0,0.0,0.0,0.0,0.0,0.0,0.0,0.0,0.0,0.1919,0.207,0.2142,0.0,0.0,0.0,0.0,0.0,0.1966,0.2183,0.2507,0.258,0.2359,0.2113,0.1881,0.0,0.0,0.0,0.0,0.0,0.0,0.0,0.2661,0.269,0.0,0.3254,0.3513,0.3667,0.0,0.0,0.0,0.0,0.0,0.0,0.0,0.0,0.0,0.0,0.3994,0.3936,0.3898,0.388,0.3851,0.3827,0.3813,0.3786,0.3779,0.3795,0.3748,0.3726,0.3723,0.3663,0.3636,0.3636,0.0,0.3589,0.3589,0.3589,0.3589,0.3589,0.3589,0.3589,0.3589,0.3589,0.3589,0.3589,0.0,0.0,0.0,0.0,0.0,0.0,0.0,0.0,0.0,0.0,0.0,0.0,0.0,0.0,0.0,0.0,0.0,0.0,0.0,0.1778,0.1839,0.1819,0.1898,0.1917,0.1761,0.2098,0.2248,0.2158,0.2321,0.2624,0.3081,0.2981,0.2747,0.2552,0.2193,0.1944,0.1895,0.1864,0.1847,0.1838,0.0,0.0,0.0,0.0,0.0,0.0,0.0,0.0,0.0,0.0,0.0,0.0,0.0,0.0,0.0,0.1846,0.1838,0.1873,0.1924,0.2367,0.2716,0.2684,0.0,0.2056,0.0,0.0,0.0,0.0,0.0,0.0,0.0,0.2555,0.0,0.3044,0.0,0.0,0.0,0.0,0.0,0.0,0.0,0.0,0.0,0.0,0.0,0.0,0.0,0.0,0.3974,0.3922,0.3876,0.3838,0.3817,0.3795,0.3772,0.3764,0.3775,0.3806,0.375,0.3723,0.3712,0.3659,0.3632,0.3625,0.36,0.3589,0.3589,0.3589,0.3589,0.3589,0.3589,0.3589,0.3589,0.3589,0.3589,0.3589,0.0,0.0,0.0,0.0,0.0,0.0,0.0,0.0,0.0,0.0,0.0,0.0,0.0,0.0,0.0,0.0,0.0,0.0,0.0,0.1778,0.1812,0.1849,0.2165,0.2189,0.1833,0.2104,0.25,0.2755,0.2974,0.3117,0.3181,0.2981,0.2593,0.2065,0.2041,0.2034,0.1926,0.1895,0.175,0.184,0.1838,0.0,0.0,0.0,0.0,0.0,0.0,0.0,0.0,0.0,0.0,0.0,0.0,0.0,0.1807,0.1771,0.1782,0.1828,0.1805,0.1986,0.2018,0.2051,0.0,0.0,0.0,0.0,0.0,0.0,0.0,0.0,0.0,0.2707,0.2996,0.3223,0.3509,0.0,0.0,0.0,0.0,0.0,0.0,0.0,0.0,0.0,0.0,0.0,0.0,0.0,0.3915,0.388,0.3838,0.3779,0.3775,0.3775,0.3772,0.3744,0.3744,0.3775,0.3739,0.3712,0.3684,0.3649,0.3621,0.3594,0.3589,0.3589,0.3589,0.3589,0.3589,0.3589,0.3589,0.3589,0.3589,0.3589,0.3589,0.3589,0.0,0.0,0.0,0.0,0.0,0.0,0.0,0.0,0.0,0.0,0.0,0.0,0.0,0.0,0.0,0.0,0.0,0.0,0.0,0.1767,0.1834,0.1801,0.208,0.2196,0.2258,0.2414,0.2797,0.3094,0.3236,0.3268,0.3188,0.2897,0.25,0.2024,0.1982,0.2001,0.1958,0.1926,0.1907,0.1894,0.1855,0.1844,0.0,0.0,0.0,0.0,0.0,0.0,0.0,0.0,0.1838,0.1864,0.1838,0.1876,0.1921,0.1989,0.1996,0.1917,0.1857,0.1804,0.1875,0.1935,0.0,0.0,0.0,0.0,0.0,0.0,0.0,0.0,0.0,0.0,0.3197,0.3408,0.0,0.0,0.0,0.0,0.0,0.0,0.0,0.0,0.0,0.0,0.0,0.0,0.0,0.0,0.3907,0.3842,0.3795,0.3772,0.3754,0.3733,0.3716,0.3723,0.3723,0.3716,0.3684,0.3674,0.3681,0.3628,0.3611,0.3618,0.3596,0.3589,0.3589,0.3589,0.3589,0.3589,0.3589,0.3589,0.3589,0.3589,0.3589,0.3589,0.0,0.0,0.0,0.0,0.0,0.0,0.0,0.0,0.0,0.0,0.0,0.0,0.0,0.0,0.0,0.0,0.0,0.0,0.1811,0.1761,0.1836,0.1808,0.1839,0.2069,0.241,0.2537,0.2795,0.323,0.3376,0.334,0.2945,0.2671,0.2312,0.2032,0.1999,0.2052,0.2059,0.2008,0.2094,0.1941,0.1889,0.1876,0.0,0.0,0.0,0.0,0.0,0.0,0.0,0.0,0.1831,0.1971,0.1842,0.1881,0.1925,0.213,0.2016,0.2036,0.1928,0.1866,0.1945,0.0,0.0,0.0,0.0,0.0,0.0,0.0,0.0,0.0,0.0,0.0,0.0,0.0,0.0,0.0,0.0,0.0,0.0,0.0,0.0,0.0,0.0,0.0,0.0,0.0,0.0,0.0,0.0,0.3803,0.3757,0.373,0.3719,0.3699,0.3667,0.3688,0.3688,0.3667,0.3636,0.3636,0.3663,0.3614,0.36,0.3621,0.36,0.3589,0.3589,0.3589,0.3589,0.3589,0.3589,0.3589,0.3589,0.3589,0.3589,0.3589,0.0,0.0,0.0,0.0,0.0,0.0,0.0,0.0,0.0,0.0,0.0,0.0,0.0,0.0,0.0,0.0,0.0,0.0,0.1811,0.1761,0.1808,0.1839,0.1807,0.1955,0.2323,0.2108,0.2444,0.3466,0.3353,0.3314,0.2823,0.2506,0.2221,0.1962,0.1984,0.194,0.1959,0.2147,0.2187,0.1975,0.1944,0.1913,0.1765,0.0,0.0,0.0,0.0,0.0,0.0,0.0,0.182,0.181,0.1902,0.1932,0.1816,0.1967,0.1977,0.1971,0.194,0.2052,0.2077,0.0,0.0,0.0,0.0,0.0,0.0,0.0,0.0,0.0,0.0,0.0,0.0,0.0,0.0,0.0,0.0,0.0,0.0,0.0,0.0,0.0,0.0,0.0,0.0,0.0,0.0,0.0,0.0,0.3772,0.373,0.3639,0.3663,0.3667,0.3636,0.3636,0.3636,0.3636,0.3604,0.3604,0.3636,0.3604,0.3589,0.3589,0.3589,0.3589,0.3589,0.3589,0.3589,0.3589,0.3589,0.3589,0.3589,0.3589,0.3589,0.3589,0.0,0.0,0.0,0.0,0.0,0.0,0.0,0.0,0.0,0.0,0.0,0.0,0.0,0.0,0.0,0.0,0.0,0.0,0.1809,0.185,0.1776,0.1808,0.1778,0.1844,0.1892,0.2592,0.2978,0.3424,0.3242,0.3094,0.2967,0.2529,0.2252,0.2267,0.257,0.2533,0.2315,0.2262,0.2082,0.2031,0.196,0.1939,0.1941,0.0,0.0,0.0,0.0,0.0,0.0,0.0,0.0,0.0,0.1859,0.1925,0.1982,0.1929,0.1973,0.2022,0.1951,0.2008,0.0,0.0,0.0,0.0,0.0,0.0,0.0,0.0,0.0,0.0,0.0,0.0,0.0,0.0,0.0,0.0,0.0,0.0,0.0,0.0,0.0,0.0,0.0,0.0,0.0,0.0,0.0,0.0,0.0,0.3712,0.3663,0.3636,0.3645,0.3636,0.3604,0.3604,0.3594,0.3572,0.354,0.3555,0.3604,0.3594,0.3589,0.3589,0.3589,0.3589,0.3589,0.3589,0.3589,0.3589,0.3589,0.3589,0.3589,0.3589,0.3589,0.3589,0.0,0.0,0.0,0.0,0.0,0.0,0.0,0.0,0.0,0.0,0.1617,0.1617,0.0,0.0,0.0,0.0,0.0,0.0,0.0,0.174,0.1768,0.181,0.175,0.1811,0.1884,0.2399,0.2829,0.2776,0.2804,0.2705,0.2643,0.2348,0.231,0.253,0.2639,0.2603,0.2457,0.2258,0.2176,0.1947,0.2011,0.1994,0.2003,0.0,0.0,0.0,0.0,0.0,0.0,0.0,0.0,0.0,0.1836,0.1889,0.2064,0.2152,0.2077,0.1879,0.1974,0.2059,0.0,0.0,0.0,0.0,0.0,0.0,0.0,0.0,0.0,0.0,0.0,0.0,0.0,0.0,0.0,0.0,0.0,0.0,0.0,0.0,0.0,0.0,0.0,0.0,0.0,0.0,0.0,0.0,0.0,0.3667,0.3628,0.3618,0.3618,0.3604,0.3572,0.3572,0.3558,0.3527,0.3509,0.352,0.3555,0.3555,0.3569,0.3589,0.3589,0.3583,0.3572,0.3587,0.3583,0.3572,0.3587,0.3589,0.3589,0.3589,0.3589,0.3589,0.0,0.0,0.1497,0.1616,0.0,0.0,0.0,0.0,0.0,0.0,0.1617,0.1617,0.0,0.0,0.0,0.0,0.0,0.0,0.0,0.1745,0.1774,0.1838,0.1851,0.1839,0.205,0.2053,0.1929,0.198,0.216,0.2184,0.2066,0.2068,0.2468,0.2971,0.2589,0.2376,0.2541,0.2289,0.2141,0.1967,0.2071,0.2059,0.205,0.1993,0.0,0.0,0.0,0.0,0.0,0.0,0.0,0.0,0.1831,0.1844,0.1976,0.215,0.2054,0.183,0.2011,0.0,0.0,0.2008,0.2523,0.0,0.0,0.0,0.0,0.0,0.0,0.0,0.0,0.0,0.0,0.0,0.0,0.0,0.0,0.0,0.0,0.0,0.0,0.0,0.0,0.0,0.0,0.0,0.0,0.0,0.0,0.3628,0.3614,0.3583,0.3583,0.3569,0.354,0.3538,0.3524,0.0,0.3495,0.3495,0.3499,0.3502,0.3531,0.3583,0.3583,0.3569,0.3544,0.3572,0.3569,0.3549,0.358,0.3589,0.3589,0.3589,0.3587,0.3587,0.0,0.0,0.1546,0.1625,0.0,0.0,0.0,0.0,0.0,0.0,0.0,0.0,0.0,0.0,0.0,0.0,0.0,0.0,0.0,0.1714,0.1752,0.1836,0.193,0.2027,0.226,0.1987,0.1839,0.1817,0.1961,0.1996,0.2069,0.2261,0.2519,0.3186,0.3003,0.2949,0.3053,0.2281,0.201,0.2037,0.2158,0.2267,0.2241,0.2077,0.1918,0.0,0.0,0.0,0.0,0.0,0.0,0.0,0.1831,0.1873,0.191,0.1899,0.1945,0.2012,0.1944,0.2022,0.0,0.0,0.3003,0.3576,0.3789,0.0,0.0,0.0,0.0,0.0,0.0,0.0,0.0,0.0,0.0,0.0,0.0,0.0,0.0,0.0,0.0,0.0,0.0,0.0,0.0,0.0,0.0,0.0,0.36,0.3576,0.3551,0.3524,0.352,0.3516,0.3513,0.3487,0.3472,0.0,0.3442,0.3444,0.3468,0.3491,0.3509,0.3524,0.3544,0.3538,0.3513,0.354,0.3551,0.3549,0.358,0.3589,0.3589,0.3589,0.3576,0.3555,0.0,0.0,0.0,0.0,0.0,0.0,0.0,0.0,0.0,0.0,0.0,0.0,0.0,0.0,0.0,0.0,0.0,0.0,0.0,0.0,0.1861,0.1858,0.2086,0.2139,0.2253,0.2125,0.197,0.1792,0.188,0.1957,0.189,0.2223,0.2672,0.3254,0.3202,0.2957,0.2741,0.2141,0.2023,0.2061,0.2174,0.2158,0.2265,0.2093,0.1915,0.1858,0.1812,0.0,0.0,0.0,0.0,0.0,0.0,0.0,0.1752,0.1764,0.1929,0.1999,0.1971,0.0,0.0,0.3091,0.0,0.3792,0.3906,0.3739,0.3761,0.3712,0.0,0.0,0.0,0.0,0.0,0.0,0.0,0.0,0.0,0.0,0.0,0.0,0.0,0.0,0.0,0.0,0.0,0.0,0.0,0.36,0.3569,0.354,0.3516,0.3502,0.3502,0.3495,0.348,0.3465,0.345,0.3435,0.3419,0.342,0.3437,0.3482,0.3495,0.3482,0.3513,0.3509,0.3483,0.3513,0.3516,0.3506,0.3538,0.3549,0.3549,0.3549,0.3538,0.3524,0.0,0.0,0.0,0.0,0.0,0.0,0.0,0.0,0.0,0.0,0.0,0.0,0.0,0.0,0.0,0.0,0.0,0.0,0.0,0.0,0.0,0.2006,0.2093,0.223,0.2278,0.2195,0.2039,0.1819,0.1838,0.1834,0.1896,0.2219,0.2541,0.3191,0.3061,0.2798,0.2145,0.2017,0.2046,0.1954,0.2064,0.2053,0.2171,0.1989,0.1918,0.1843,0.1808,0.1795,0.1795,0.1795,0.0,0.0,0.0,0.0,0.1814,0.1759,0.1911,0.1964,0.1981,0.0,0.2871,0.3598,0.3698,0.0,0.3712,0.373,0.3739,0.3761,0.3788,0.3795,0.0,0.0,0.0,0.0,0.0,0.0,0.0,0.0,0.0,0.0,0.0,0.0,0.0,0.0,0.0,0.0,0.0,0.3565,0.3531,0.3506,0.3493,0.3487,0.3487,0.3475,0.3449,0.3449,0.3437,0.3412,0.3412,0.3412,0.3414,0.3464,0.3474,0.345,0.3482,0.3478,0.3452,0.3482,0.348,0.346,0.3491,0.3502,0.3502,0.3502,0.3499,0.3495,0.0,0.0,0.0,0.0,0.0,0.0,0.0,0.0,0.0,0.0,0.1617,0.1617,0.0,0.0,0.0,0.0,0.0,0.0,0.1567,0.0,0.0,0.1801,0.1962,0.2,0.2039,0.1973,0.1808,0.1793,0.1773,0.0,0.0,0.0,0.0,0.2816,0.2742,0.2506,0.1961,0.2026,0.2031,0.1996,0.2142,0.2136,0.1985,0.1829,0.1793,0.1755,0.1814,0.1795,0.1795,0.1795,0.1795,0.0,0.0,0.0,0.1846,0.1788,0.1928,0.1964,0.2114,0.0,0.3303,0.0,0.3698,0.3882,0.0,0.0,0.3757,0.0,0.3757,0.3782,0.3803,0.3831,0.0,0.0,0.0,0.0,0.0,0.0,0.0,0.0,0.0,0.0,0.0,0.0,0.0,0.0,0.3551,0.3527,0.3472,0.3465,0.3452,0.3425,0.3425,0.3422,0.3418,0.3418,0.3416,0.3412,0.3412,0.3412,0.3412,0.342,0.3422,0.3419,0.345,0.3446,0.342,0.345,0.3461,0.346,0.3491,0.3502,0.3502,0.3502,0.3486,0.3463,0.0,0.0,0.0,0.0,0.0,0.0,0.0,0.0,0.0,0.0,0.0,0.1617,0.0,0.0,0.0,0.1617,0.1617,0.1629,0.1557,0.1714,0.1778,0.1851,0.1868,0.1895,0.1937,0.1782,0.1755,0.1854,0.0,0.0,0.0,0.2394,0.2678,0.0,0.0,0.2414,0.2063,0.1987,0.2011,0.2,0.2122,0.2112,0.1973,0.1943,0.1913,0.1765,0.1855,0.1846,0.0,0.0,0.1846,0.1849,0.1746,0.0,0.0,0.0,0.1944,0.2023,0.2034,0.2632,0.3317,0.0,0.3709,0.3632,0.3708,0.375,0.3764,0.3733,0.3737,0.3739,0.3719,0.3754,0.3768,0.3723,0.0,0.0,0.0,0.0,0.0,0.0,0.0,0.0,0.0,0.0,0.0,0.0,0.3506,0.3484,0.3459,0.3441,0.3426,0.3412,0.3412,0.3412,0.3412,0.3412,0.3412,0.3412,0.3412,0.3412,0.3412,0.3412,0.3412,0.3412,0.3426,0.3425,0.3412,0.3426,0.3431,0.3433,0.3446,0.3452,0.3452,0.3452,0.3444,0.3431,0.0,0.0,0.0,0.0,0.0,0.0,0.0,0.0,0.0,0.0,0.0,0.0,0.0,0.0,0.0,0.0,0.1617,0.1629,0.1557,0.1682,0.1718,0.177,0.1779,0.1794,0.1817,0.1825,0.1817,0.1795,0.0,0.0,0.2053,0.259,0.2894,0.0,0.2701,0.0,0.0,0.0,0.0,0.0,0.2007,0.1977,0.1975,0.1959,0.193,0.1898,0.1906,0.0,0.0,0.0,0.0,0.0,0.0,0.1909,0.0,0.0,0.0,0.2053,0.0,0.0,0.3201,0.3398,0.3404,0.3549,0.0,0.0,0.3723,0.0,0.3715,0.3699,0.3645,0.3677,0.3699,0.3643,0.366,0.3677,0.367,0.0,0.0,0.0,0.0,0.0,0.0,0.0,0.0,0.0,0.3469,0.3453,0.3446,0.3425,0.3412,0.3412,0.3412,0.3412,0.3412,0.3404,0.34,0.34,0.3393,0.3393,0.34,0.34,0.3404,0.3412,0.3412,0.3412,0.3412,0.3412,0.3412,0.3412,0.3412,0.3412,0.3412,0.3412,0.3412,0.3412,0.0,0.0,0.0,0.0,0.0,0.0,0.0,0.0,0.0,0.0,0.0,0.0,0.1617,0.1617,0.1617,0.1617,0.1617,0.1629,0.1557,0.1559,0.1573,0.1601,0.1737,0.0,0.1755,0.1782,0.1797,0.0,0.0,0.0,0.208,0.2779,0.3186,0.3165,0.2769,0.2449,0.2179,0.0,0.0,0.0,0.2057,0.1977,0.1979,0.2004,0.0,0.0,0.0,0.0,0.0,0.0,0.0,0.0,0.0,0.0,0.0,0.0,0.0,0.0,0.0,0.2394,0.2798,0.3061,0.314,0.3373,0.0,0.0,0.3614,0.367,0.3684,0.3674,0.3643,0.366,0.3674,0.3639,0.366,0.367,0.3643,0.3639,0.3628,0.0,0.0,0.0,0.0,0.0,0.0,0.0,0.3459,0.3445,0.3415,0.3412,0.3412,0.3412,0.3412,0.3412,0.3412,0.3384,0.3369,0.3369,0.334,0.3341,0.3369,0.3369,0.3385,0.3412,0.3412,0.3412,0.3412,0.3412,0.3412,0.3412,0.3412,0.3412,0.3412,0.3412,0.3412,0.3412,0.0,0.0,0.0,0.0,0.0,0.0,0.0,0.0,0.0,0.0,0.0,0.0,0.0,0.1617,0.1617,0.1617,0.1617,0.1621,0.1633,0.1633,0.155,0.1595,0.1608,0.1738,0.1778,0.179,0.1795,0.0,0.0,0.1918,0.2179,0.2914,0.3123,0.3181,0.2675,0.2441,0.2578,0.2674,0.0,0.0,0.2049,0.2004,0.2007,0.0,0.0,0.0,0.0,0.0,0.0,0.0,0.0,0.0,0.0,0.0,0.0,0.0,0.0,0.2014,0.0,0.2163,0.2301,0.2732,0.2976,0.3183,0.3313,0.3456,0.3565,0.3589,0.3594,0.3589,0.358,0.36,0.3618,0.3607,0.3583,0.3569,0.3576,0.3562,0.3544,0.3534,0.0,0.0,0.0,0.0,0.0,0.0,0.0,0.3423,0.3412,0.3393,0.3382,0.3382,0.3382,0.3382,0.3382,0.3352,0.3337,0.3337,0.3345,0.3356,0.3367,0.3386,0.3401,0.3412,0.3412,0.3412,0.3412,0.3412,0.3412,0.3412,0.3412,0.3412,0.3412,0.3412,0.3412,0.3412,0.0,0.0,0.0,0.0,0.0,0.0,0.0,0.0,0.0,0.1617,0.0,0.0,0.0,0.0,0.1647,0.1647,0.1637,0.1636,0.1645,0.1645,0.1559,0.1596,0.1607,0.1738,0.1779,0.179,0.1795,0.0,0.0,0.0,0.0,0.2691,0.3042,0.3089,0.2736,0.2571,0.0,0.0,0.0,0.1942,0.1977,0.2064,0.2072,0.0,0.0,0.0,0.0,0.0,0.0,0.0,0.0,0.0,0.0,0.0,0.0,0.0,0.0,0.0,0.1993,0.0,0.2027,0.2454,0.2782,0.2934,0.3175,0.3307,0.3399,0.3469,0.3502,0.3516,0.3516,0.3524,0.3538,0.3558,0.3527,0.3506,0.3513,0.3509,0.3491,0.3461,0.3475,0.0,0.0,0.0,0.0,0.0,0.0,0.0,0.3396,0.3367,0.3351,0.3351,0.3351,0.3351,0.3351,0.3321,0.3306,0.3306,0.3315,0.3326,0.3337,0.3356,0.3377,0.3396,0.3396,0.3403,0.3412,0.3412,0.3412,0.3412,0.3412,0.3412,0.3412,0.3412,0.3419,0.3427,0.0,0.0,0.0,0.0,0.0,0.0,0.0,0.0,0.1617,0.1618,0.0,0.0,0.0,0.0,0.0,0.1707,0.1682,0.1572,0.1596,0.1598,0.1598,0.1599,0.1734,0.175,0.175,0.178,0.1795,0.1795,0.0,0.0,0.0,0.0,0.2485,0.293,0.2967,0.2685,0.2246,0.0,0.2246,0.1989,0.0,0.2023,0.218,0.0,0.0,0.0,0.2234,0.2168,0.0,0.0,0.0,0.0,0.0,0.0,0.0,0.0,0.0,0.0,0.0,0.0,0.0,0.2512,0.2547,0.2631,0.31,0.3122,0.3103,0.3314,0.3405,0.3449,0.3454,0.3431,0.3431,0.349,0.3499,0.3487,0.346,0.348,0.3465,0.3377,0.3419,0.3431,0.0,0.0,0.0,0.0,0.3382,0.3365,0.3365,0.3336,0.332,0.332,0.3318,0.3318,0.332,0.329,0.3275,0.3273,0.3245,0.3247,0.3276,0.3277,0.3309,0.3365,0.3366,0.3384,0.3411,0.3411,0.3412,0.3412,0.3412,0.3412,0.3412,0.3412,0.343,0.3456,0.0,0.0,0.0,0.0,0.0,0.0,0.1617,0.1617,0.1625,0.0,0.0,0.0,0.169,0.1738,0.1659,0.1659,0.1653,0.1633,0.1707,0.1704,0.1714,0.1735,0.1745,0.176,0.1782,0.1791,0.1795,0.1795,0.1834,0.1797,0.1913,0.2017,0.2151,0.2458,0.2626,0.2481,0.2014,0.2445,0.0,0.0,0.223,0.2118,0.0,0.0,0.0,0.0,0.0,0.2406,0.2233,0.0,0.2169,0.221,0.0,0.0,0.0,0.0,0.0,0.0,0.1978,0.0,0.0,0.0,0.0,0.0,0.2607,0.2739,0.2885,0.3096,0.317,0.3243,0.3396,0.3418,0.3418,0.3434,0.34,0.3384,0.3419,0.3412,0.3395,0.337,0.3381,0.3377,0.3337,0.0,0.0,0.0,0.3339,0.3333,0.3333,0.3305,0.3288,0.3288,0.3266,0.3266,0.3288,0.3258,0.3243,0.3243,0.3257,0.3268,0.3276,0.3298,0.3317,0.3335,0.3356,0.3371,0.3381,0.3403,0.3412,0.3412,0.3412,0.3412,0.3412,0.3412,0.3416,0.3427,0.0,0.0,0.1621,0.1633,0.1645,0.1654,0.1654,0.1665,0.1674,0.0,0.0,0.0,0.1774,0.1844,0.1761,0.1738,0.16,0.1686,0.1763,0.1749,0.175,0.1768,0.1768,0.1783,0.1813,0.1802,0.1808,0.1832,0.1838,0.1762,0.1837,0.1915,0.2004,0.2101,0.2288,0.2155,0.0,0.0,0.0,0.0,0.2491,0.0,0.0,0.2534,0.2751,0.0,0.0,0.0,0.2596,0.2571,0.2295,0.0,0.0,0.0,0.0,0.0,0.0,0.0,0.0,0.0,0.0,0.0,0.0,0.0,0.244,0.2536,0.2654,0.2891,0.2984,0.3071,0.3232,0.3283,0.3303,0.3317,0.3288,0.3295,0.3381,0.3388,0.3371,0.3333,0.3351,0.335,0.3306,0.3314,0.3321,0.3321,0.3309,0.3296,0.3284,0.3266,0.3257,0.3257,0.3239,0.3239,0.3257,0.3239,0.323,0.3231,0.3249,0.3257,0.3257,0.3275,0.329,0.3303,0.3321,0.3343,0.3367,0.3385,0.34,0.3412,0.3412,0.3412,0.3412,0.3412,0.342,0.3433,0.0,0.0,0.1628,0.1662,0.169,0.1711,0.1718,0.174,0.1749,0.0,0.1761,0.182,0.1915,0.1993,0.2015,0.1956,0.1779,0.1742,0.1842,0.1814,0.1798,0.1795,0.1798,0.1813,0.1839,0.1817,0.1832,0.1768,0.1858,0.1874,0.1811,0.1959,0.2016,0.1962,0.2038,0.2061,0.2004,0.0,0.0,0.2275,0.2813,0.2756,0.0,0.0,0.2701,0.0,0.2766,0.2902,0.2982,0.2904,0.2556,0.0,0.0,0.0,0.0,0.0,0.2086,0.0,0.0,0.0,0.0,0.0,0.0,0.0,0.2447,0.2436,0.244,0.2691,0.2808,0.29,0.3007,0.3082,0.3133,0.315,0.3175,0.3232,0.3345,0.3382,0.3366,0.3285,0.3324,0.3333,0.3276,0.3295,0.3311,0.3311,0.3285,0.3258,0.3231,0.323,0.323,0.323,0.323,0.323,0.323,0.323,0.323,0.323,0.323,0.323,0.323,0.323,0.3245,0.327,0.3277,0.3311,0.3362,0.3369,0.3388,0.3412,0.3412,0.3412,0.3412,0.3412,0.3429,0.3453,0.1617,0.1617,0.1633,0.1686,0.172,0.1757,0.1806,0.1798,0.181,0.1879,0.1955,0.2046,0.2162,0.2033,0.2007,0.208,0.2041,0.1846,0.1849,0.1835,0.182,0.1795,0.1819,0.1835,0.184,0.1858,0.1874,0.1768,0.188,0.2013,0.1932,0.1937,0.1962,0.2003,0.199,0.2007,0.2052,0.0,0.0,0.218,0.2447,0.0,0.3024,0.3194,0.311,0.3048,0.3011,0.3202,0.3201,0.0,0.2537,0.2228,0.0,0.0,0.0,0.0,0.0,0.0,0.0,0.0,0.0,0.0,0.0,0.0,0.2215,0.2255,0.2343,0.2467,0.2527,0.262,0.2833,0.2961,0.3011,0.2946,0.3096,0.3247,0.332,0.3314,0.3295,0.3277,0.3285,0.3279,0.3242,0.3245,0.3247,0.3247,0.3242,0.3236,0.3231,0.323,0.323,0.323,0.323,0.323,0.323,0.323,0.323,0.323,0.323,0.323,0.323,0.323,0.3234,0.3242,0.3291,0.3318,0.3333,0.3382,0.3407,0.3412,0.3412,0.3412,0.3412,0.3412,0.3415,0.3427,0.162,0.1629,0.1663,0.1737,0.1775,0.182,0.1896,0.1919,0.1951,0.2012,0.2138,0.2221,0.2222,0.2236,0.2203,0.2228,0.2046,0.1982,0.1892,0.1872,0.1855,0.184,0.1855,0.1877,0.1907,0.2012,0.1907,0.1952,0.1922,0.2044,0.1954,0.1954,0.1962,0.0,0.1992,0.2005,0.2026,0.0,0.2203,0.241,0.2236,0.0,0.3288,0.3357,0.3275,0.3182,0.3152,0.3357,0.334,0.3214,0.2911,0.0,0.0,0.2467,0.2461,0.0,0.2188,0.2303,0.0,0.0,0.0,0.217,0.0,0.0,0.0,0.2188,0.2219,0.2371,0.2388,0.2439,0.2635,0.2733,0.2793,0.2823,0.2942,0.3067,0.3172,0.3251,0.3287,0.3257,0.3253,0.3242,0.3212,0.3195,0.3193,0.3208,0.3209,0.3216,0.323,0.323,0.3224,0.3209,0.3223,0.3224,0.3209,0.3223,0.323,0.323,0.323,0.323,0.323,0.323,0.323,0.3232,0.3262,0.3294,0.3324,0.3354,0.3385,0.3412,0.3412,0.3412,0.3412,0.3412,0.3412,0.3416,0.1622,0.1637,0.1681,0.1771,0.1816,0.1873,0.197,0.2024,0.2076,0.2136,0.2275,0.2343,0.2277,0.2436,0.2409,0.2303,0.2068,0.2005,0.1993,0.1936,0.1898,0.1885,0.1891,0.1918,0.1967,0.2047,0.206,0.2011,0.1963,0.1952,0.1977,0.1977,0.1977,0.0,0.0,0.0,0.0,0.0,0.0,0.242,0.0,0.2676,0.3219,0.3265,0.3385,0.3238,0.3279,0.329,0.3434,0.3256,0.0,0.2761,0.2643,0.2747,0.0,0.0,0.0,0.0,0.0,0.0,0.0,0.0,0.0,0.2229,0.0,0.0,0.0,0.2304,0.2296,0.2303,0.2438,0.2496,0.2559,0.2662,0.0,0.0,0.0,0.3104,0.0,0.319,0.3182,0.3174,0.3163,0.3119,0.3114,0.3167,0.3149,0.3156,0.3202,0.321,0.3205,0.3189,0.321,0.3213,0.3197,0.3219,0.323,0.323,0.323,0.323,0.323,0.3224,0.3225,0.323,0.323,0.3265,0.3321,0.3328,0.3362,0.3412,0.3412,0.3412,0.3412,0.3412,0.3412,0.3414,0.1622,0.162,0.165,0.174,0.1802,0.188,0.1996,0.2019,0.2083,0.2108,0.2309,0.2384,0.0,0.0,0.0,0.0,0.0,0.0,0.2068,0.0,0.1943,0.2006,0.2031,0.1929,0.2057,0.2078,0.2094,0.1981,0.1975,0.1973,0.1977,0.1977,0.1977,0.0,0.2005,0.0,0.0,0.0,0.2184,0.0,0.224,0.2554,0.0,0.3271,0.3239,0.3297,0.329,0.3339,0.3292,0.0,0.2818,0.2333,0.0,0.2931,0.286,0.0,0.0,0.0,0.0,0.0,0.0,0.0,0.2478,0.0,0.0,0.0,0.2249,0.2192,0.0,0.2192,0.2263,0.0,0.0,0.0,0.0,0.0,0.2587,0.2731,0.2891,0.3017,0.3009,0.3011,0.3063,0.2969,0.2961,0.3097,0.3007,0.2995,0.3107,0.3138,0.3164,0.3187,0.3191,0.3204,0.3225,0.3228,0.323,0.323,0.323,0.323,0.323,0.3204,0.3206,0.323,0.323,0.3265,0.3324,0.335,0.3381,0.3412,0.3412,0.3412,0.3412,0.3412,0.3412,0.3419,0.162,0.1632,0.1671,0.176,0.1797,0.1861,0.1997,0.2138,0.2125,0.223,0.2465,0.0,0.0,0.0,0.0,0.0,0.0,0.2558,0.0,0.0,0.2034,0.199,0.1969,0.1974,0.2007,0.2112,0.2109,0.2001,0.1985,0.1977,0.1977,0.1977,0.1985,0.0,0.2031,0.0,0.2191,0.0,0.2173,0.0,0.0,0.0,0.0,0.2816,0.2997,0.3421,0.3309,0.3343,0.3315,0.0,0.3031,0.0,0.0,0.0,0.0,0.0,0.0,0.0,0.0,0.0,0.0,0.0,0.0,0.0,0.2349,0.0,0.2217,0.0,0.0,0.0,0.0,0.0,0.0,0.0,0.2391,0.0,0.2488,0.2553,0.2662,0.283,0.0,0.0,0.2864,0.2841,0.2855,0.0,0.2894,0.2911,0.3013,0.3081,0.3122,0.3135,0.317,0.3186,0.3179,0.3213,0.323,0.323,0.323,0.323,0.323,0.3217,0.3219,0.323,0.3213,0.325,0.3321,0.3315,0.3352,0.3412,0.3412,0.3412,0.3412,0.3412,0.3412,0.3415,0.1628,0.0,0.0,0.1757,0.1783,0.1846,0.1996,0.2181,0.0,0.0,0.0,0.0,0.2695,0.2647,0.0,0.0,0.0,0.292,0.0,0.0,0.2017,0.0,0.0,0.0,0.0,0.2009,0.1994,0.2007,0.1986,0.1981,0.1988,0.1979,0.1996,0.0,0.0,0.2176,0.2286,0.0,0.2409,0.2476,0.2787,0.3012,0.322,0.2704,0.2862,0.3321,0.3321,0.3329,0.3309,0.3289,0.3056,0.0,0.2898,0.0,0.0,0.0,0.0,0.0,0.2612,0.0,0.0,0.0,0.0,0.0,0.0,0.0,0.0,0.0,0.0,0.0,0.0,0.0,0.0,0.0,0.0,0.236,0.2402,0.2408,0.2472,0.0,0.0,0.0,0.0,0.2707,0.272,0.0,0.0,0.2766,0.2905,0.2975,0.3033,0.3084,0.3127,0.3152,0.3156,0.3197,0.3223,0.323,0.323,0.323,0.323,0.3223,0.3223,0.3228,0.3201,0.3239,0.332,0.3298,0.3337,0.3412,0.3412,0.3412,0.3412,0.3412,0.3412,0.3412,0.1655,0.1662,0.0,0.0,0.0,0.1846,0.1996,0.0,0.0,0.0,0.0,0.0,0.0,0.0,0.0,0.0,0.0,0.2929,0.2383,0.0,0.2148,0.0,0.0,0.2176,0.0,0.0,0.2004,0.1978,0.1977,0.199,0.2142,0.1989,0.2007,0.0,0.2323,0.2576,0.2532,0.2688,0.2879,0.2901,0.2409,0.2529,0.3272,0.0,0.334,0.3321,0.3321,0.0,0.0,0.3404,0.334,0.0,0.0,0.0,0.0,0.0,0.0,0.0,0.0,0.0,0.0,0.2632,0.0,0.0,0.0,0.0,0.2435,0.0,0.0,0.0,0.0,0.0,0.0,0.0,0.0,0.0,0.0,0.2252,0.2308,0.2459,0.0,0.0,0.0,0.2563,0.2527,0.0,0.2491,0.0,0.2774,0.2792,0.2874,0.3048,0.3055,0.3099,0.3186,0.3189,0.3204,0.323,0.323,0.323,0.323,0.3202,0.3204,0.3228,0.3201,0.3239,0.3321,0.332,0.3356,0.3412,0.3412,0.3412,0.3412,0.3412,0.3412,0.3416,0.1665,0.0,0.0,0.0,0.0,0.0,0.0,0.1973,0.0,0.0,0.0,0.0,0.0,0.0,0.3536,0.0,0.0,0.3214,0.2894,0.2529,0.0,0.0,0.0,0.2348,0.0,0.0,0.0,0.0,0.0,0.0,0.0,0.0,0.0,0.0,0.0,0.2483,0.0,0.0,0.0,0.0,0.0,0.3115,0.3311,0.0,0.0,0.3291,0.3291,0.3284,0.0,0.3253,0.3206,0.3155,0.3134,0.3058,0.2968,0.2928,0.2945,0.0,0.0,0.0,0.3065,0.2803,0.0,0.0,0.0,0.0,0.0,0.0,0.0,0.0,0.0,0.0,0.0,0.0,0.0,0.0,0.0,0.2198,0.2226,0.2335,0.0,0.0,0.0,0.0,0.0,0.0,0.2413,0.0,0.0,0.2718,0.283,0.2931,0.3011,0.3086,0.3157,0.3178,0.3202,0.323,0.323,0.323,0.323,0.322,0.3221,0.3228,0.3201,0.3239,0.332,0.3299,0.3339,0.3412,0.3412,0.3412,0.3412,0.3412,0.3412,0.3419,0.1699,0.0,0.0,0.0,0.0,0.0,0.0,0.0,0.0,0.0,0.2626,0.0,0.3083,0.0,0.3785,0.0,0.3598,0.3457,0.3198,0.2905,0.0,0.2609,0.2484,0.0,0.0,0.0,0.0,0.0,0.0,0.2101,0.0,0.0,0.0,0.0,0.0,0.2538,0.2829,0.3069,0.319,0.0,0.0,0.3347,0.0,0.0,0.328,0.3303,0.0,0.3273,0.3288,0.3266,0.3242,0.3216,0.3195,0.3127,0.3046,0.2995,0.3009,0.3028,0.2979,0.3058,0.0,0.2923,0.2875,0.0,0.2598,0.0,0.0,0.0,0.0,0.0,0.0,0.0,0.0,0.2391,0.2338,0.2277,0.0,0.2166,0.0,0.0,0.2304,0.2333,0.0,0.0,0.0,0.0,0.0,0.0,0.0,0.0,0.274,0.2855,0.2964,0.3059,0.3142,0.3163,0.3191,0.323,0.323,0.323,0.323,0.323,0.323,0.323,0.3223,0.3258,0.3321,0.3311,0.335,0.3412,0.3412,0.3412,0.3412,0.3412,0.3412,0.342,0.1759,0.0,0.0,0.0,0.1879,0.0,0.0,0.0,0.2078,0.0,0.31,0.3529,0.3528,0.3636,0.3714,0.377,0.3583,0.0,0.3099,0.3126,0.0,0.0,0.2654,0.2611,0.2493,0.0,0.0,0.0,0.0,0.0,0.0,0.0,0.0,0.0,0.2316,0.0,0.2575,0.2848,0.3017,0.311,0.3195,0.3232,0.3235,0.3433,0.3288,0.3356,0.3265,0.3269,0.3309,0.3253,0.3251,0.3264,0.3209,0.3171,0.314,0.3108,0.31,0.3096,0.3065,0.3082,0.3086,0.2995,0.0,0.0,0.0,0.0,0.2889,0.0,0.0,0.0,0.0,0.0,0.0,0.2476,0.2387,0.2286,0.217,0.0,0.2155,0.0,0.2232,0.2285,0.2285,0.226,0.0,0.0,0.0,0.2202,0.0,0.0,0.2609,0.2814,0.2912,0.302,0.3142,0.3142,0.3172,0.323,0.323,0.323,0.323,0.323,0.323,0.3232,0.3262,0.3292,0.3324,0.3354,0.3384,0.3412,0.3412,0.3412,0.3412,0.3414,0.3414,0.3423,0.1794,0.1838,0.1892,0.0,0.1811,0.1861,0.0,0.0,0.0,0.0,0.3506,0.3765,0.3818,0.3915,0.3944,0.3681,0.3708,0.0,0.0,0.0,0.0,0.311,0.2981,0.2879,0.2806,0.262,0.0,0.2455,0.0,0.0,0.2243,0.2166,0.214,0.0,0.0,0.2497,0.2547,0.2861,0.3061,0.3168,0.3213,0.3257,0.0,0.0,0.33,0.3388,0.3296,0.326,0.3258,0.3288,0.3273,0.3243,0.3251,0.3217,0.3171,0.314,0.3148,0.3159,0.3127,0.319,0.3242,0.3152,0.3112,0.3061,0.0,0.0,0.0,0.0,0.0,0.0,0.0,0.0,0.0,0.0,0.2307,0.0,0.0,0.0,0.0,0.2185,0.0,0.0,0.2189,0.2223,0.0,0.0,0.0,0.0,0.0,0.0,0.0,0.2691,0.2868,0.302,0.3142,0.3142,0.3172,0.323,0.323,0.323,0.323,0.323,0.323,0.3232,0.3262,0.3292,0.3324,0.3354,0.3384,0.3412,0.3412,0.3412,0.3415,0.3437,0.3446,0.3454,0.1861,0.0,0.0,0.1762,0.0,0.0,0.1868,0.0,0.0,0.3518,0.3812,0.0,0.3815,0.3974,0.3817,0.3786,0.3788,0.0,0.0,0.0,0.0,0.3283,0.3191,0.3097,0.2999,0.28,0.0,0.256,0.0,0.0,0.2249,0.2185,0.2155,0.2163,0.2379,0.2489,0.2537,0.2881,0.3089,0.3191,0.3219,0.0,0.0,0.3264,0.33,0.3366,0.3314,0.3302,0.3309,0.3303,0.3287,0.3268,0.3258,0.3232,0.3204,0.3186,0.3193,0.3202,0.3186,0.324,0.329,0.3239,0.3224,0.3189,0.3069,0.3067,0.3065,0.0,0.0,0.0,0.0,0.0,0.0,0.0,0.0,0.0,0.0,0.0,0.0,0.0,0.2177,0.0,0.0,0.0,0.0,0.0,0.0,0.0,0.0,0.0,0.0,0.2645,0.2838,0.3006,0.3141,0.3156,0.3186,0.323,0.323,0.323,0.323,0.323,0.323,0.3232,0.3276,0.3306,0.3325,0.3369,0.3396,0.3412,0.3412,0.3412,0.3416,0.3461,0.3468,0.3464,0.0,0.0,0.0,0.0,0.0,0.0,0.0,0.3134,0.0,0.3411,0.0,0.4121,0.4822,0.4418,0.3859,0.3859,0.0,0.3757,0.3587,0.3621,0.3549,0.3326,0.333,0.3276,0.3141,0.2968,0.0,0.0,0.0,0.0,0.2211,0.2173,0.2155,0.2162,0.2339,0.2465,0.2566,0.2898,0.3091,0.3174,0.3219,0.325,0.327,0.3279,0.3295,0.3315,0.3324,0.3356,0.3382,0.3302,0.3291,0.3299,0.3247,0.323,0.323,0.323,0.323,0.3231,0.3235,0.3258,0.3281,0.3281,0.3305,0.3298,0.3186,0.316,0.3152,0.3122,0.3002,0.2923,0.0,0.0,0.0,0.0,0.0,0.0,0.0,0.0,0.0,0.0,0.0,0.0,0.0,0.0,0.0,0.0,0.0,0.0,0.0,0.0,0.0,0.2631,0.2814,0.2986,0.3141,0.0,0.3204,0.3236,0.3232,0.323,0.323,0.3234,0.3234,0.3234,0.3299,0.3325,0.3326,0.3386,0.3412,0.3412,0.3412,0.3412,0.3418,0.3471,0.3479,0.3468,0.0,0.0,0.0,0.0,0.0,0.5013,1.3761,0.8519,0.319,0.2509,0.3375,0.5659,0.9962,0.654,0.3911,0.3862,0.3876,0.0,0.0,0.0,0.0,0.354,0.3469,0.341,0.3358,0.3062,0.2879,0.0,0.0,0.0,0.2273,0.2192,0.2155,0.2161,0.2316,0.2503,0.2712,0.2898,0.0,0.3086,0.3216,0.3255,0.3243,0.3294,0.33,0.3291,0.334,0.3333,0.3296,0.3281,0.3262,0.3245,0.3234,0.323,0.323,0.323,0.323,0.3236,0.3261,0.329,0.3313,0.3313,0.3336,0.334,0.3269,0.3253,0.3243,0.3213,0.3127,0.3032,0.2947,0.0,0.0,0.0,0.0,0.0,0.0,0.0,0.0,0.0,0.0,0.2225,0.0,0.0,0.0,0.0,0.0,0.0,0.0,0.0,0.0,0.0,0.2774,0.0,0.0,0.0,0.3215,0.3268,0.3242,0.323,0.3231,0.3255,0.3254,0.3235,0.3321,0.3344,0.3326,0.3386,0.3412,0.3412,0.3412,0.3412,0.3414,0.3423,0.3456,0.3502,0.0,0.0,0.0,0.0,0.0,0.0,0.0,1.4255,0.0,1.137,1.1848,1.1975,1.1776,1.0311,0.9078,0.8042,0.8033,0.7983,0.7862,0.7738,0.6908,0.5645,0.5503,0.0,0.3412,0.3133,0.2934,0.2827,0.0,0.0,0.0,0.2183,0.2155,0.2161,0.2294,0.248,0.0,0.0,0.0,0.3043,0.3209,0.3276,0.3283,0.3328,0.3345,0.3348,0.3362,0.3348,0.3321,0.3305,0.3279,0.3251,0.3235,0.323,0.323,0.323,0.323,0.3234,0.3247,0.3285,0.3313,0.3281,0.3321,0.3347,0.3269,0.3265,0.3266,0.3236,0.3172,0.307,0.2901,0.2676,0.0,0.0,0.0,0.0,0.0,0.0,0.0,0.0,0.0,0.0,0.0,0.0,0.0,0.0,0.0,0.0,0.0,0.0,0.0,0.0,0.0,0.0,0.0,0.0,0.0,0.3251,0.3238,0.3223,0.321,0.3255,0.3258,0.3235,0.3326,0.3358,0.3348,0.3393,0.3412,0.3412,0.3412,0.3412,0.3415,0.3448,0.3467,0.3486,0.0,0.2225,0.0,0.0,0.4972,0.0,1.6707,1.8336,1.899,1.9702,1.9707,1.8145,1.4028,1.3788,1.3269,1.1804,1.1739,1.1645,1.1539,1.1298,1.0391,0.8186,0.7972,0.6726,0.4287,0.399,0.3537,0.0,0.0,0.0,0.0,0.2169,0.0,0.0,0.0,0.0,0.0,0.0,0.2926,0.3024,0.321,0.3296,0.3315,0.3359,0.3382,0.3392,0.338,0.3367,0.3354,0.3337,0.3306,0.3272,0.3247,0.3235,0.323,0.323,0.323,0.3231,0.3238,0.3275,0.3299,0.3251,0.3294,0.3326,0.3247,0.3249,0.326,0.3235,0.3183,0.3082,0.2883,0.2739,0.0,0.0,0.0,0.0,0.0,0.0,0.0,0.0,0.0,0.0,0.2163,0.0,0.0,0.0,0.0,0.0,0.2157,0.0,0.0,0.0,0.0,0.2838,0.3066,0.0,0.3195,0.323,0.323,0.3219,0.32,0.3258,0.3272,0.3254,0.3339,0.3377,0.3378,0.3401,0.3412,0.3412,0.3412,0.3412,0.3419,0.3472,0.3482,0.3471,0.0,0.0,0.0,0.0,0.0,0.0,0.0,1.8342,1.8993,1.9553,1.9592,1.9556,1.9105,1.472,1.2049,1.1804,1.1792,1.1719,1.1539,1.1363,1.1171,1.0764,1.0424,0.915,0.6753,0.6296,0.5107,0.0,0.0,0.0,0.0,0.0,0.0,0.0,0.0,0.0,0.0,0.2787,0.2926,0.3025,0.3232,0.3302,0.329,0.3374,0.3375,0.3336,0.3389,0.3371,0.3329,0.3354,0.3324,0.3276,0.3272,0.3253,0.323,0.323,0.323,0.3236,0.3264,0.3276,0.3279,0.3273,0.3277,0.3275,0.3239,0.3232,0.3234,0.3231,0.3183,0.3095,0.2936,0.2853,0.2744,0.0,0.0,0.0,0.0,0.0,0.0,0.2346,0.0,0.0,0.0,0.2207,0.0,0.0,0.2158,0.0,0.0,0.0,0.0,0.2393,0.0,0.2787,0.2972,0.3089,0.3175,0.323,0.323,0.3228,0.3228,0.329,0.3315,0.3315,0.338,0.3408,0.3408,0.3411,0.3412,0.3412,0.3412,0.3412,0.3416,0.3449,0.3478,0.3502,0.0,0.0,0.0,0.0,0.0,0.0,0.0,1.8948,1.9525,1.9692,1.975,1.9698,1.9712,1.7709,1.646,1.646,1.646,1.6357,1.609,1.5857,1.5133,1.328,1.2926,1.1605,0.9157,0.8932,0.8012,0.0,0.0,0.0,0.0,0.0,0.0,0.0,0.0,0.2454,0.2623,0.28,0.2946,0.3077,0.3251,0.3325,0.3336,0.339,0.3397,0.3378,0.3403,0.3396,0.3377,0.3389,0.3354,0.3299,0.3281,0.3268,0.3254,0.3235,0.323,0.3232,0.3245,0.3262,0.327,0.3253,0.3276,0.329,0.3242,0.3245,0.3253,0.3234,0.3198,0.3135,0.3018,0.292,0.2834,0.0,0.0,0.0,0.0,0.0,0.0,0.0,0.0,0.2274,0.0,0.0,0.0,0.0,0.0,0.0,0.0,0.0,0.0,0.2375,0.0,0.2717,0.2934,0.3055,0.3155,0.323,0.323,0.323,0.3232,0.3294,0.3341,0.3377,0.3401,0.3412,0.3412,0.3412,0.3412,0.3412,0.3412,0.3412,0.3415,0.3446,0.3476,0.3506,1.3795,0.0,1.7192,0.0,1.7869,1.8117,1.8698,1.9205,1.9546,1.9727,1.9715,1.961,1.9664,1.9664,1.9664,1.9664,1.9624,1.9481,1.9217,1.8918,1.7922,1.5805,1.5459,0.0,1.1546,1.1396,1.064,0.9343,0.781,0.0,0.0,0.0,0.0,0.0,0.244,0.2556,0.2712,0.2871,0.3011,0.3137,0.3277,0.3347,0.337,0.34,0.3412,0.3412,0.3412,0.3412,0.3412,0.3412,0.3384,0.3341,0.3302,0.3283,0.3269,0.3239,0.323,0.3232,0.324,0.326,0.327,0.3249,0.3276,0.3294,0.3242,0.3247,0.3255,0.3235,0.3215,0.3175,0.3095,0.3002,0.2928,0.2896,0.0,0.0,0.0,0.0,0.0,0.0,0.2328,0.224,0.2162,0.2155,0.0,0.0,0.0,0.0,0.0,0.0,0.0,0.0,0.0,0.0,0.0,0.3037,0.3142,0.323,0.3239,0.3249,0.3258,0.332,0.3371,0.3412,0.3412,0.3412,0.3412,0.3412,0.3412,0.3412,0.3412,0.3412,0.3415,0.3446,0.3471,0.3493,1.6896,1.6907,1.7158,1.7718,1.7894,1.8121,1.8733,1.8796,1.9094,1.964,1.9681,1.9729,1.9644,1.9664,1.9664,1.9664,1.9522,1.9359,1.9217,1.8918,1.864,0.0,0.0,1.6608,1.3934,1.3791,1.2434,0.9632,0.0,0.0,0.8269,0.0,0.4006,0.256,0.2649,0.274,0.2838,0.3018,0.313,0.3198,0.3318,0.3366,0.337,0.34,0.3412,0.3412,0.3412,0.3412,0.3412,0.3412,0.3411,0.34,0.334,0.3299,0.3269,0.3239,0.323,0.3236,0.3266,0.3276,0.3276,0.3276,0.3276,0.3268,0.3238,0.3231,0.3231,0.323,0.323,0.3212,0.3153,0.3116,0.3037,0.2859,0.0,0.0,0.0,0.0,0.0,0.0,0.235,0.2285,0.2166,0.2155,0.0,0.0,0.0,0.0,0.0,0.0,0.0,0.2375,0.2552,0.0,0.2915,0.3037,0.3142,0.3231,0.3261,0.3291,0.3322,0.3382,0.3411,0.3412,0.3412,0.3412,0.3412,0.3412,0.3412,0.3412,0.3412,0.3412,0.3415,0.3446,0.3457,0.3463,1.6974,1.7078,1.7209,1.7875,1.7827,1.8135,1.8747,1.8796,1.9061,1.9502,1.9612,1.9729,1.9644,1.9664,1.9664,0.0,1.9522,1.9359,0.0,1.8918,1.864,1.8335,1.8124,1.7391,1.6334,1.62,1.5553,1.4223,0.0,0.0,0.0,0.5854,0.4402,0.2684,0.2754,0.2859,0.2988,0.3108,0.3206,0.3284,0.3343,0.338,0.3399,0.3408,0.3412,0.3412,0.3412,0.3412,0.3412,0.3412,0.3412,0.3405,0.3365,0.3345,0.3332,0.33,0.3277,0.3268,0.3298,0.3291,0.3276,0.3276,0.3276,0.3273,0.3264,0.3261,0.3255,0.3234,0.323,0.3212,0.3153,0.3118,0.3058,0.2939,0.2901,0.0,0.0,0.0,0.0,0.0,0.2285,0.2219,0.0,0.2155,0.0,0.0,0.0,0.0,0.0,0.0,0.0,0.0,0.2593,0.0,0.2915,0.3058,0.3174,0.3261,0.327,0.3302,0.3354,0.3393,0.3412,0.3412,0.3412,0.3412,0.3412,0.3412,0.3412,0.3412,0.3412,0.3412,0.3412,0.3423,0.344,0.3459,1.7026,1.7256,1.7494,1.7738,1.8077,1.8355,1.8678,1.8708,1.8952,1.9338,1.9447,1.9585,1.9556,1.9522,0.0,1.9569,1.9379,1.9217,1.9128,1.8905,1.864,1.8335,1.8233,1.7935,1.7433,0.0,0.0,1.6476,1.4066,1.0771,0.7156,0.6109,0.4714,0.2859,0.2919,0.2999,0.3093,0.3195,0.327,0.3325,0.3367,0.3395,0.3412,0.3412,0.3412,0.3412,0.3412,0.3412,0.3412,0.3412,0.3412,0.3408,0.3389,0.3384,0.3375,0.3333,0.3307,0.3299,0.3329,0.3324,0.331,0.331,0.331,0.3305,0.3281,0.3276,0.3266,0.3236,0.323,0.3212,0.3153,0.3118,0.3067,0.2976,0.2902,0.2814,0.2692,0.0,0.0,0.0,0.0,0.0,0.0,0.2208,0.2215,0.0,0.0,0.0,0.0,0.0,0.0,0.2459,0.2675,0.0,0.2983,0.3111,0.3215,0.3294,0.3315,0.3347,0.3384,0.3403,0.3412,0.3412,0.3412,0.3412,0.3412,0.3412,0.3412,0.3412,0.3412,0.3412,0.3412,0.3412,0.3423,0.344,1.6969,1.7552,0.0,0.0,1.8273,0.0,1.8809,1.8823,1.8816,1.8731,1.8993,1.9338,1.9379,1.9271,1.9237,1.9393,0.0,0.0,0.0,1.885,1.864,1.8335,1.8321,1.8036,1.7446,1.7426,1.7202,1.6748,1.3911,1.1417,0.9474,0.7145,0.5064,0.3637,0.3315,0.3343,0.3353,0.3275,0.3324,0.3329,0.3388,0.3412,0.3412,0.3412,0.3412,0.3412,0.3412,0.3412,0.3412,0.3412,0.3412,0.3412,0.3412,0.3412,0.34,0.3344,0.3326,0.333,0.3362,0.3369,0.3366,0.3366,0.3366,0.3351,0.3292,0.3277,0.3268,0.3239,0.3228,0.3208,0.3153,0.3116,0.3065,0.2973,0.2882,0.278,0.2658,0.0,0.0,0.0,0.0,0.0,0.0,0.2303,0.2301,0.0,0.0,0.0,0.0,0.0,0.2459,0.2604,0.2787,0.2953,0.3099,0.3189,0.3264,0.3325,0.3384,0.3412,0.3412,0.3412,0.3412,0.3412,0.3412,0.3412,0.3412,0.3412,0.3412,0.3412,0.3412,0.3412,0.3412,0.3412,0.3412,0.3412,0.0,0.0,1.7895,1.7813,1.7981,1.8369,1.8836,1.8708,1.8816,1.8731,1.8751,1.9061,1.9237,1.9128,1.9061,1.9094,1.9027,1.8993,1.8993,1.885,1.864,1.8335,1.8321,1.8091,1.7602,1.748,1.7202,1.6748,1.5805,1.4379,1.2263,1.1533,1.0095,0.8061,0.6324,0.5571,0.5618,0.3934,0.3355,0.3359,0.3397,0.3412,0.3412,0.3412,0.3412,0.3412,0.3412,0.3412,0.3412,0.3412,0.3412,0.3412,0.3412,0.3412,0.341,0.3395,0.3374,0.3362,0.3393,0.3384,0.3366,0.3366,0.3366,0.3356,0.332,0.3292,0.3273,0.3266,0.321,0.3159,0.3145,0.3099,0.3033,0.2942,0.2833,0.2717,0.2597,0.247,0.0,0.0,0.2315,0.2313,0.2343,0.2338,0.2353,0.0,0.0,0.0,0.0,0.2515,0.2587,0.2668,0.2868,0.3026,0.3131,0.322,0.3295,0.3356,0.3393,0.3412,0.3412,0.3412,0.3412,0.3412,0.3412,0.3412,0.3412,0.3412,0.3412,0.3412,0.3412,0.3412,0.3412,0.3412,0.3412,0.3415,1.9088,1.9379,1.9498,1.9611,1.9803,1.9745,1.8983,1.8905,1.9015,1.9592,1.9351,1.94,1.9567,1.9683,1.9606,1.8993,1.8918,1.8884,1.8884,1.8742,1.8552,1.8335,1.8247,1.8002,1.7555,1.746,1.7236,1.6856,1.5653,1.4511,1.3405,1.2145,1.1063,0.9907,0.8698,0.8116,0.796,0.5833,0.5041,0.4835,0.3823,0.3412,0.3412,0.3412,0.3412,0.3412,0.3412,0.3412,0.3412,0.3412,0.3412,0.3412,0.3412,0.3412,0.3412,0.3412,0.34,0.339,0.3407,0.34,0.3386,0.3386,0.3386,0.3375,0.333,0.3298,0.3268,0.3242,0.3197,0.3155,0.3127,0.3073,0.2998,0.2893,0.2763,0.2639,0.2533,0.2425,0.0,0.2393,0.2383,0.2402,0.2473,0.2491,0.2489,0.247,0.2485,0.0,0.2514,0.2637,0.2721,0.2754,0.2932,0.3071,0.3163,0.3251,0.3326,0.3388,0.3404,0.3412,0.3412,0.3412,0.3412,0.3412,0.3412,0.3412,0.3412,0.3412,0.3412,0.3412,0.3412,0.3412,0.3412,0.3412,0.3412,0.3414,2.1382,2.1448,2.1303,2.1309,2.1599,2.1097,1.9043,1.9045,1.9697,2.0601,2.0385,2.0219,2.0109,2.0473,2.0219,1.9421,1.909,1.9022,1.8762,1.862,1.8464,1.8321,1.8179,1.7894,1.7467,1.7412,1.7256,1.6978,1.4952,1.4053,1.4047,1.2058,1.1184,1.1184,1.0768,1.0561,1.0364,0.8163,0.7357,0.715,0.4882,0.3837,0.3837,0.3624,0.3412,0.3412,0.3412,0.3412,0.3412,0.3412,0.3412,0.3412,0.3412,0.3412,0.3412,0.3412,0.3412,0.3412,0.3412,0.3412,0.3412,0.3412,0.3412,0.3399,0.3347,0.3307,0.3268,0.3219,0.3194,0.3165,0.3114,0.3043,0.2956,0.2841,0.2694,0.2564,0.2474,0.0,0.2379,0.2465,0.2465,0.25,0.2612,0.2665,0.2645,0.2532,0.2647,0.2679,0.2574,0.2739,0.2844,0.2861,0.299,0.3107,0.3208,0.3288,0.3356,0.3412,0.3412,0.3412,0.3412,0.3412,0.3412,0.3412,0.3412,0.3412,0.3412,0.3412,0.3412,0.3412,0.3412,0.3412,0.3412,0.3412,0.3412,0.3412,2.1497,2.136,2.1465,2.1343,1.9825,1.8733,1.8879,2.049,2.1525,2.0667,2.0772,2.0863,2.0639,2.0758,2.078,2.0422,2.0517,2.0051,1.8762,1.862,1.8464,1.8321,1.8179,1.7948,1.7623,1.7358,1.7148,1.6978,1.6741,1.6518,1.6518,1.5944,1.5672,1.5666,1.3783,1.2948,1.2751,1.0555,0.9749,0.9541,0.7226,0.6169,0.5957,0.4048,0.3412,0.3412,0.3412,0.3412,0.3412,0.3412,0.3412,0.3412,0.3412,0.3412,0.3412,0.3412,0.3412,0.3412,0.3412,0.3412,0.3412,0.3412,0.3412,0.341,0.34,0.3354,0.3311,0.3302,0.322,0.3146,0.3138,0.3024,0.29,0.2806,0.2664,0.2534,0.2443,0.0,0.2433,0.2499,0.257,0.2639,0.271,0.2702,0.2714,0.2769,0.2703,0.2707,0.2812,0.2849,0.2913,0.3014,0.3065,0.3157,0.3299,0.334,0.3377,0.3412,0.3412,0.3412,0.3412,0.3412,0.3412,0.3412,0.3412,0.3412,0.3412,0.3412,0.3412,0.3412,0.3412,0.3412,0.3412,0.3412,0.3412,0.3415,2.1423,2.1319,2.1441,2.1406,2.0817,2.0484,2.0667,2.1559,2.1931,2.1685,2.1502,2.1302,2.1064,2.1603,2.1387,2.0609,2.0908,2.0915,1.9922,1.9226,1.8844,1.8767,1.8321,1.7826,1.7534,1.7229,1.7046,1.6978,1.6978,1.6978,1.6978,1.691,1.6876,1.687,1.5819,1.5394,1.5185,1.2922,1.2098,1.1887,0.9557,0.7865,0.6592,0.5534,0.4473,0.3412,0.3412,0.3412,0.3412,0.3412,0.3412,0.3412,0.3412,0.3412,0.3412,0.3412,0.3412,0.3412,0.3412,0.3412,0.3412,0.3412,0.3412,0.3408,0.3392,0.3352,0.3311,0.3279,0.3216,0.3157,0.3125,0.3007,0.2891,0.2819,0.2654,0.0,0.0,0.2458,0.2482,0.2575,0.265,0.2732,0.2825,0.2821,0.2825,0.2851,0.2815,0.2816,0.2871,0.2919,0.2986,0.3074,0.3153,0.3235,0.3321,0.3351,0.3382,0.3412,0.3412,0.3412,0.3412,0.3412,0.3412,0.3412,0.3412,0.3412,0.3412,0.3412,0.3412,0.3412,0.3412,0.3412,0.3412,0.3412,0.3412,0.3414,2.1382,2.1319,2.1441,2.1465,2.1891,2.232,2.2428,2.2172,2.2105,2.2424,2.1987,2.1788,2.1788,2.2266,2.2051,2.0848,2.1341,2.1341,2.0609,1.9626,1.922,1.922,1.8184,1.765,1.7426,1.7134,1.6978,1.6978,1.6978,1.6978,1.6978,1.6978,1.6978,1.6978,1.6978,1.6978,1.6978,1.5066,1.4423,1.4212,1.1887,0.998,0.8286,0.7865,0.6169,0.4261,0.4261,0.3837,0.3412,0.3412,0.3412,0.3412,0.3412,0.3412,0.3412,0.3412,0.3412,0.3412,0.3412,0.3412,0.3412,0.3412,0.3412,0.3405,0.3382,0.3359,0.3326,0.3273,0.3234,0.319,0.313,0.3013,0.29,0.2821,0.0,0.0,0.0,0.2512,0.2549,0.2656,0.2721,0.28,0.2905,0.2916,0.2913,0.2905,0.2926,0.2931,0.2916,0.2994,0.3069,0.3137,0.3235,0.33,0.333,0.3362,0.3389,0.3412,0.3412,0.3412,0.3412,0.3412,0.3412,0.3412,0.3412,0.3412,0.3412,0.3412,0.3412,0.3412,0.3412,0.3412,0.3412,0.3412,0.3412,0.3412,2.1335,2.1506,2.1406,2.1406,2.1462,2.1637,2.2428,2.2473,2.2407,2.2473,2.2367,2.2464,2.2464,2.2618,2.241,2.1564,2.1689,2.1464,2.0609,1.9626,1.922,1.922,1.7985,1.7446,1.7419,1.7134,1.6978,1.6978,1.6978,1.6978,1.6978,1.6978,1.6978,1.6978,1.6978,1.6978,1.6978,1.6768,1.6768,1.6551,1.4218,1.3153,1.2942,1.083,0.8501,0.6592,0.6592,0.5109,0.3412,0.3412,0.3412,0.3412,0.3412,0.3412,0.3412,0.3412,0.3412,0.3412,0.3412,0.3412,0.3412,0.3412,0.3412,0.3411,0.341,0.3407,0.3396,0.3363,0.331,0.3251,0.3193,0.3059,0.2911,0.2767,0.0,0.0,0.2526,0.2583,0.2658,0.2724,0.2785,0.2846,0.2909,0.2916,0.2939,0.2992,0.2999,0.3011,0.3037,0.3099,0.3172,0.326,0.3298,0.3332,0.3363,0.3393,0.341,0.3412,0.3412,0.3412,0.3412,0.3412,0.3412,0.3412,0.3412,0.3412,0.3412,0.3412,0.3412,0.3412,0.3412,0.3412,0.3412,0.3412,0.3412,0.3412,2.1439,2.136,2.149,2.149,2.1709,2.2112,2.2411,2.2391,2.2555,2.2596,2.2432,2.2472,2.2472,2.2618,2.2651,2.2242,2.2154,2.213,2.1622,2.0471,1.9302,1.835,1.7589,1.7378,1.7283,1.708,1.6978,1.6978,1.6978,1.6978,1.6978,1.6978,1.6978,1.6978,1.6978,1.6978,1.6978,1.6978,1.6978,1.6978,1.6124,1.485,1.3575,1.2731,1.0826,0.8921,0.8921,0.7441,0.5534,0.5534,0.4473,0.3412,0.3412,0.3412,0.3412,0.3412,0.3412,0.3412,0.3412,0.3412,0.3412,0.3412,0.3412,0.3412,0.3412,0.3412,0.3403,0.3373,0.3333,0.3285,0.3225,0.3107,0.2992,0.2917,0.0,0.2705,0.2709,0.2722,0.2754,0.2815,0.2875,0.2927,0.2968,0.2972,0.299,0.3032,0.3052,0.3069,0.308,0.3155,0.323,0.3302,0.3333,0.3355,0.3366,0.3396,0.3412,0.3412,0.3412,0.3412,0.3412,0.3412,0.3412,0.3412,0.3412,0.3412,0.3412,0.3412,0.3412,0.3412,0.3412,0.3412,0.3412,0.3412,0.3412,0.3412,2.1431,2.14,2.1309,2.149,2.1956,2.2411,2.2469,2.2416,2.2555,2.2448,2.2472,2.2472,2.2472,2.2618,2.2651,2.225,2.2394,2.2114,2.1748,2.0606,1.9417,1.7738,1.7575,1.7419,1.727,1.7121,1.7026,1.6978,1.6978,1.6978,1.6978,1.6978,1.6978,1.6978,1.6978,1.6978,1.6978,1.6978,1.6978,1.6978,1.6978,1.6124,1.4639,1.4639,1.3158,1.1258,1.1289,0.9792,0.7868,0.7039,0.577,0.4278,0.364,0.3426,0.3425,0.3415,0.3419,0.3425,0.3414,0.3419,0.3423,0.3414,0.3412,0.3412,0.3412,0.3412,0.3405,0.3385,0.3356,0.3317,0.3255,0.3163,0.3073,0.3003,0.2897,0.283,0.2853,0.2855,0.2872,0.2924,0.2957,0.2987,0.3018,0.3013,0.3028,0.3077,0.31,0.3125,0.3152,0.3202,0.3262,0.3333,0.3355,0.3371,0.3381,0.3401,0.3412,0.3412,0.3412,0.3412,0.3412,0.3412,0.3412,0.3412,0.3412,0.3412,0.3412,0.3412,0.3412,0.3412,0.3412,0.3412,0.3412,0.3412,0.3412,0.3412,2.1384,2.1446,2.1406,2.1446,2.2099,2.2407,2.2457,2.258,2.2472,2.2472,2.2472,2.2472,2.2472,2.2618,2.241,2.1564,2.1689,2.1402,2.0393,2.0057,1.9345,1.7867,1.7717,1.7575,1.7426,1.727,1.7127,1.6985,1.6985,1.6985,1.6978,1.6978,1.6978,1.6978,1.6978,1.6978,1.6978,1.6978,1.6978,1.6978,1.6978,1.6978,1.6978,1.6985,1.5704,1.3597,1.3716,1.219,1.0,0.7732,0.6897,0.6466,0.4318,0.3457,0.3452,0.342,0.3434,0.345,0.342,0.3434,0.345,0.3419,0.3412,0.3412,0.3412,0.3412,0.3412,0.3412,0.3388,0.3348,0.3287,0.3228,0.314,0.2988,0.2988,0.2987,0.2926,0.2969,0.3018,0.305,0.3026,0.302,0.305,0.3025,0.3046,0.3135,0.3144,0.3182,0.327,0.3247,0.3272,0.3363,0.3367,0.3381,0.3411,0.3412,0.3412,0.3412,0.3412,0.3412,0.3412,0.3412,0.3412,0.3412,0.3412,0.3412,0.3412,0.3412,0.3412,0.3412,0.3412,0.3412,0.3412,0.3412,0.3412,0.3412,2.1384,2.1465,2.153,2.2159,2.2279,2.2325,2.226,2.2277,2.2472,2.2472,2.2472,2.2472,2.2472,2.2618,2.2651,2.225,2.229,2.1876,2.0724,2.0478,1.9677,1.853,1.8382,1.801,1.7426,1.7378,1.7277,1.7127,1.7127,1.708,1.6978,1.6978,1.6978,1.6978,1.6978,1.6978,1.6978,1.6978,1.6978,1.6978,1.6978,1.6978,1.6992,1.7093,1.6697,1.6073,1.622,1.4938,1.2751,1.2135,1.0853,0.9111,0.6695,0.4768,0.3479,0.3427,0.3449,0.3482,0.3452,0.345,0.345,0.3419,0.3412,0.3412,0.3412,0.3412,0.3412,0.3412,0.3404,0.3386,0.3347,0.3291,0.3221,0.3134,0.3092,0.3071,0.3074,0.3073,0.3089,0.3141,0.312,0.3106,0.3115,0.3108,0.3114,0.3141,0.3163,0.3204,0.3272,0.3287,0.3315,0.3365,0.3386,0.3403,0.3412,0.3412,0.3412,0.3412,0.3412,0.3412,0.3412,0.3412,0.3412,0.3412,0.3412,0.3412,0.3412,0.3412,0.3412,0.3412,0.3412,0.3412,0.3412,0.3412,0.3412,0.3412,2.1384,2.1441,2.149,2.1955,2.1981,2.2186,2.226,2.2449,2.2391,2.2472,2.2472,2.2472,2.2472,2.2618,2.2618,2.2383,2.2237,2.1791,2.1239,2.1048,2.0505,1.9405,1.9309,1.8748,1.7514,1.7507,1.7439,1.7283,1.7222,1.7148,1.7066,1.7005,1.6978,1.6978,1.6978,1.6978,1.6978,1.6978,1.6978,1.6978,1.6978,1.7012,1.7073,1.7161,1.7229,1.7304,1.7453,1.6595,1.5242,1.4422,1.2476,1.0284,0.8933,0.6774,0.4818,0.4949,0.4121,0.3506,0.3453,0.3457,0.3465,0.3422,0.3412,0.3412,0.3412,0.3412,0.3412,0.3412,0.3412,0.3403,0.3371,0.3336,0.3292,0.3232,0.3202,0.3189,0.3194,0.319,0.32,0.3236,0.3204,0.3178,0.3178,0.3156,0.3148,0.316,0.32,0.3243,0.3291,0.3322,0.3352,0.3384,0.3403,0.3412,0.3412,0.3412,0.3412,0.3412,0.3412,0.3412,0.3412,0.3412,0.3412,0.3412,0.3412,0.3412,0.3412,0.3412,0.3412,0.3412,0.3412,0.3412,0.3412,0.3412,0.3412,0.3412,2.1384,2.1506,2.1406,2.1406,2.1327,2.1719,2.2358,2.2391,2.2473,2.2407,2.2432,2.2448,2.2448,2.2594,2.2553,2.2212,2.1871,2.166,2.1636,2.1473,2.1172,2.0505,2.0505,1.9558,1.767,1.767,1.7595,1.7439,1.7304,1.7222,1.7209,1.708,1.7019,1.7019,1.7005,1.6998,1.6998,1.6985,1.6978,1.6985,1.6992,1.708,1.7195,1.7222,1.7317,1.746,1.7616,1.7582,1.7257,1.5202,1.3032,1.1048,1.104,0.9282,0.7278,0.7148,0.5458,0.3744,0.344,0.3459,0.3489,0.343,0.3416,0.3415,0.3412,0.3412,0.3412,0.3412,0.3412,0.3403,0.3375,0.3369,0.3348,0.3292,0.3305,0.3313,0.3287,0.3306,0.3322,0.3325,0.3273,0.3238,0.3234,0.3183,0.3163,0.3194,0.3246,0.329,0.3324,0.3351,0.3381,0.3411,0.3412,0.3412,0.3412,0.3412,0.3412,0.3412,0.3412,0.3412,0.3412,0.3412,0.3412,0.3412,0.3412,0.3412,0.3412,0.3412,0.3412,0.3412,0.3412,0.3412,0.3412,0.3412,0.3412,0.3412,2.1384,2.1425,2.1441,2.1441,2.1365,2.1486,2.1534,2.2129,2.2469,2.2511,2.2416,2.2498,2.2498,2.2637,2.2424,2.2212,2.1871,2.1595,2.1449,2.1408,2.1172,2.0505,2.0505,1.9845,1.8494,1.8487,1.8191,1.7602,1.7568,1.7487,1.7372,1.7338,1.7324,1.7317,1.7202,1.7148,1.7141,1.7026,1.6978,1.6992,1.71,1.7161,1.7216,1.746,1.7568,1.7616,1.7758,1.7792,1.7772,1.7352,1.5593,1.3575,1.3481,1.1965,0.955,0.7593,0.6763,0.5949,0.3897,0.3475,0.3493,0.3456,0.3448,0.3441,0.3418,0.3412,0.3412,0.3412,0.3412,0.341,0.3403,0.3382,0.3362,0.335,0.3332,0.3326,0.3344,0.3332,0.3329,0.3354,0.3324,0.3292,0.3268,0.3232,0.3224,0.3254,0.3268,0.3299,0.3354,0.3363,0.3381,0.3411,0.3412,0.3412,0.3412,0.3412,0.3412,0.3412,0.3412,0.3412,0.3412,0.3412,0.3412,0.3412,0.3412,0.3412,0.3412,0.3412,0.3412,0.3412,0.3412,0.3412,0.3412,0.3412,0.3412,0.3412,2.1497,2.1319,2.1384,2.1384,2.1465,2.1325,2.1406,2.1806,2.1961,2.2042,2.2123,2.2237,2.2555,2.2342,2.2253,2.2082,2.1806,2.1579,2.1408,2.1384,2.1156,2.0945,2.0733,2.0073,1.9192,1.8757,1.8487,1.7758,1.7684,1.7609,1.7528,1.7453,1.7419,1.7419,1.7338,1.7304,1.729,1.7148,1.708,1.7087,1.7161,1.7195,1.7222,1.7534,1.765,1.767,1.7812,1.786,1.7846,1.7792,1.6917,1.6059,1.5918,1.4195,1.2251,1.0946,0.8801,0.6869,0.5426,0.4347,0.3495,0.3465,0.3446,0.3431,0.3415,0.3412,0.3412,0.3412,0.3412,0.3412,0.3412,0.3399,0.3388,0.3388,0.3374,0.3365,0.3366,0.3366,0.3365,0.3366,0.3352,0.333,0.33,0.3283,0.328,0.3296,0.3311,0.3333,0.3365,0.338,0.3396,0.3411,0.3412,0.3412,0.3412,0.3412,0.3412,0.3412,0.3412,0.3412,0.3412,0.3412,0.3412,0.3412,0.3412,0.3412,0.3412,0.3412,0.3412,0.3412,0.3412,0.3412,0.3412,0.3412,0.3412,0.3412,2.1423,2.1497,2.1384,2.1384,2.1384,2.1425,2.1365,2.1303,2.1462,2.1613,2.1677,2.2017,2.2399,2.2253,2.2082,2.1953,2.1741,2.1555,2.1449,2.1408,2.14,2.1197,2.078,2.0111,1.9441,1.9043,1.8579,1.786,1.7738,1.7684,1.7684,1.7555,1.7494,1.7494,1.7467,1.746,1.7446,1.727,1.7195,1.7195,1.7195,1.7209,1.7263,1.7541,1.7663,1.7704,1.7826,1.786,1.7846,1.7717,1.7758,1.7846,1.7717,1.6432,1.4941,1.4365,1.1528,0.8227,0.7171,0.5656,0.3937,0.3682,0.3442,0.3425,0.3414,0.3412,0.3412,0.3412,0.3412,0.3412,0.3412,0.3412,0.3412,0.3412,0.3412,0.3403,0.3378,0.3396,0.3403,0.3377,0.3365,0.3351,0.333,0.3314,0.3311,0.3328,0.3347,0.3363,0.3374,0.3399,0.3412,0.3412,0.3412,0.3412,0.3412,0.3412,0.3412,0.3412,0.3412,0.3412,0.3412,0.3412,0.3412,0.3412,0.3412,0.3412,0.3412,0.3412,0.3412,0.3412,0.3412,0.3412,0.3412,0.3412,0.3412,0.3412,2.136,2.136,2.1384,2.1384,2.1384,2.1384,2.1425,2.1349,2.1701,2.2196,2.2469,2.2196,2.1992,2.2058,2.1953,2.1936,2.162,2.1473,2.162,2.1473,2.1237,2.0731,2.0731,2.0064,1.9173,1.9092,1.8797,1.786,1.7846,1.7826,1.7826,1.7812,1.7812,1.7792,1.767,1.7616,1.7602,1.7311,1.7195,1.7195,1.7195,1.727,1.7405,1.7582,1.7717,1.7846,1.786,1.786,1.786,1.7846,1.7846,1.786,1.7846,1.7619,1.6937,1.481,1.3899,1.2339,0.83,0.68,0.616,0.412,0.3474,0.3476,0.3423,0.3412,0.3412,0.3412,0.3412,0.3412,0.3412,0.3412,0.3412,0.3412,0.3412,0.3411,0.3407,0.341,0.3411,0.3407,0.3359,0.3336,0.3358,0.3288,0.3275,0.3354,0.334,0.335,0.3403,0.341,0.3412,0.3412,0.3412,0.3412,0.3412,0.3412,0.3412,0.3412,0.3412,0.3412,0.3412,0.3412,0.3412,0.3412,0.3412,0.3412,0.3412,0.3412,0.3412,0.3412,0.3412,0.3412,0.3412,0.3412,0.3412,0.3412,2.1262,2.1319,2.1384,2.1384,2.1384,2.1384,2.1384,2.1406,2.1558,2.2377,2.2453,2.2383,2.1832,2.2058,2.2082,2.2082,2.1936,2.179,2.166,2.1579,2.1365,2.077,2.0309,1.9923,1.9106,1.874,1.8431,1.7989,1.7989,1.7948,1.786,1.786,1.786,1.786,1.7792,1.7772,1.7758,1.7446,1.7372,1.7439,1.7351,1.7358,1.7446,1.7684,1.7758,1.7758,1.7826,1.786,1.7846,1.7772,1.7792,1.7846,1.7772,1.7792,1.7619,1.6671,1.5319,1.3748,1.1663,0.9254,0.6842,0.57,0.458,0.3475,0.3465,0.3437,0.3412,0.3412,0.3412,0.3412,0.3412,0.3412,0.3412,0.3412,0.3412,0.34,0.3366,0.339,0.3412,0.3412,0.3388,0.3377,0.339,0.3355,0.3348,0.3389,0.3363,0.3366,0.341,0.3396,0.3395,0.3411,0.3412,0.3412,0.3412,0.3412,0.3412,0.3412,0.3412,0.3412,0.3412,0.3412,0.3412,0.3412,0.3412,0.3412,0.3412,0.3412,0.3412,0.3412,0.3412,0.3412,0.3412,0.3412,0.3412,0.3412]}]]